<?xml version="1.0" encoding="UTF-8" standalone="no" ?>
<gpx xmlns="http://www.topografix.com/GPX/1/1" xmlns:xsi="http://www.w3.org/2001/XMLSchema-instance" xsi:schemaLocation="http://www.topografix.com/GPX/1/1 http://www.topografix.com/GPX/1/1/gpx.xsd" version="1.1" creator="VisuGPX - https://www.visugpx.com">
  <metadata>
    <name>Vélo bleu - Circuit 10</name>
    <desc><![CDATA[Petit patrimoine sur ce circuit :
- Lavoirs de Mussey-sur-marne, Blécourt, Flammerécourt, Charmes-en-l'Angle, Charmes-la-Grande, Brachay, Joinville, Rupt
- Châteaux de Charmes-en-l'Angle et de Rupt]]></desc>
  </metadata>
  <trk>
    <name><![CDATA[Sortie vélo le matin 15]]></name>
    <trkseg>
      <trkpt lat="48.37726" lon="5.14792">
        <ele>213.1</ele>
        <time>2025-01-03T16:06:00.000Z</time>
      </trkpt>
      <trkpt lat="48.37742" lon="5.14795">
        <ele>213.29</ele>
        <time>2025-01-03T16:06:00.003Z</time>
      </trkpt>
      <trkpt lat="48.37754" lon="5.14806">
        <ele>213.58</ele>
        <time>2025-01-03T16:06:00.008Z</time>
      </trkpt>
      <trkpt lat="48.37765" lon="5.14819">
        <ele>213.98</ele>
        <time>2025-01-03T16:06:00.015Z</time>
      </trkpt>
      <trkpt lat="48.3777" lon="5.1483">
        <ele>214.44</ele>
        <time>2025-01-03T16:06:00.023Z</time>
      </trkpt>
      <trkpt lat="48.37777" lon="5.14852">
        <ele>215.02</ele>
        <time>2025-01-03T16:06:00.034Z</time>
      </trkpt>
      <trkpt lat="48.37785" lon="5.14875">
        <ele>215.57</ele>
        <time>2025-01-03T16:06:00.048Z</time>
      </trkpt>
      <trkpt lat="48.378" lon="5.14883">
        <ele>216.16</ele>
        <time>2025-01-03T16:06:00.064Z</time>
      </trkpt>
      <trkpt lat="48.378" lon="5.14883">
        <ele>216.68</ele>
        <time>2025-01-03T16:06:00.080Z</time>
      </trkpt>
      <trkpt lat="48.37823" lon="5.14896">
        <ele>217.35</ele>
        <time>2025-01-03T16:06:00.100Z</time>
      </trkpt>
      <trkpt lat="48.37849" lon="5.14899">
        <ele>218.01</ele>
        <time>2025-01-03T16:06:00.125Z</time>
      </trkpt>
      <trkpt lat="48.37875" lon="5.14903">
        <ele>218.74</ele>
        <time>2025-01-03T16:06:00.154Z</time>
      </trkpt>
      <trkpt lat="48.37879" lon="5.14909">
        <ele>219.34</ele>
        <time>2025-01-03T16:06:00.184Z</time>
      </trkpt>
      <trkpt lat="48.37879" lon="5.14909">
        <ele>219.83</ele>
        <time>2025-01-03T16:06:00.214Z</time>
      </trkpt>
      <trkpt lat="48.37888" lon="5.14894">
        <ele>220.24</ele>
        <time>2025-01-03T16:06:00.246Z</time>
      </trkpt>
      <trkpt lat="48.37897" lon="5.14869">
        <ele>220.62</ele>
        <time>2025-01-03T16:06:00.281Z</time>
      </trkpt>
      <trkpt lat="48.37907" lon="5.14845">
        <ele>220.91</ele>
        <time>2025-01-03T16:06:00.319Z</time>
      </trkpt>
      <trkpt lat="48.37907" lon="5.14843">
        <ele>221.12</ele>
        <time>2025-01-03T16:06:00.357Z</time>
      </trkpt>
      <trkpt lat="48.37908" lon="5.14796">
        <ele>221.28</ele>
        <time>2025-01-03T16:06:00.400Z</time>
      </trkpt>
      <trkpt lat="48.37908" lon="5.14749">
        <ele>221.29</ele>
        <time>2025-01-03T16:06:00.448Z</time>
      </trkpt>
      <trkpt lat="48.37909" lon="5.14703">
        <ele>221.33</ele>
        <time>2025-01-03T16:06:00.501Z</time>
      </trkpt>
      <trkpt lat="48.3791" lon="5.14675">
        <ele>221.37</ele>
        <time>2025-01-03T16:06:00.557Z</time>
      </trkpt>
      <trkpt lat="48.37911" lon="5.14647">
        <ele>221.44</ele>
        <time>2025-01-03T16:06:00.616Z</time>
      </trkpt>
      <trkpt lat="48.37909" lon="5.14609">
        <ele>221.41</ele>
        <time>2025-01-03T16:06:00.679Z</time>
      </trkpt>
      <trkpt lat="48.37909" lon="5.14585">
        <ele>221.37</ele>
        <time>2025-01-03T16:06:00.745Z</time>
      </trkpt>
      <trkpt lat="48.37907" lon="5.14542">
        <ele>221.37</ele>
        <time>2025-01-03T16:06:00.815Z</time>
      </trkpt>
      <trkpt lat="48.37905" lon="5.14499">
        <ele>221.31</ele>
        <time>2025-01-03T16:06:00.890Z</time>
      </trkpt>
      <trkpt lat="48.37905" lon="5.14499">
        <ele>221.21</ele>
        <time>2025-01-03T16:06:00.965Z</time>
      </trkpt>
      <trkpt lat="48.37901" lon="5.14459">
        <ele>221.11</ele>
        <time>2025-01-03T16:06:01.044Z</time>
      </trkpt>
      <trkpt lat="48.37898" lon="5.1442">
        <ele>221.11</ele>
        <time>2025-01-03T16:06:01.127Z</time>
      </trkpt>
      <trkpt lat="48.37895" lon="5.14379">
        <ele>220.95</ele>
        <time>2025-01-03T16:06:01.215Z</time>
      </trkpt>
      <trkpt lat="48.37892" lon="5.14338">
        <ele>220.71</ele>
        <time>2025-01-03T16:06:01.307Z</time>
      </trkpt>
      <trkpt lat="48.37884" lon="5.14312">
        <ele>220.47</ele>
        <time>2025-01-03T16:06:01.402Z</time>
      </trkpt>
      <trkpt lat="48.37877" lon="5.14287">
        <ele>220.16</ele>
        <time>2025-01-03T16:06:01.500Z</time>
      </trkpt>
      <trkpt lat="48.37867" lon="5.14262">
        <ele>219.8</ele>
        <time>2025-01-03T16:06:01.601Z</time>
      </trkpt>
      <trkpt lat="48.37857" lon="5.14237">
        <ele>219.42</ele>
        <time>2025-01-03T16:06:01.705Z</time>
      </trkpt>
      <trkpt lat="48.37847" lon="5.14201">
        <ele>219.09</ele>
        <time>2025-01-03T16:06:01.813Z</time>
      </trkpt>
      <trkpt lat="48.37837" lon="5.14164">
        <ele>218.85</ele>
        <time>2025-01-03T16:06:01.926Z</time>
      </trkpt>
      <trkpt lat="48.37827" lon="5.14128">
        <ele>218.47</ele>
        <time>2025-01-03T16:06:02.043Z</time>
      </trkpt>
      <trkpt lat="48.37823" lon="5.1409">
        <ele>218.21</ele>
        <time>2025-01-03T16:06:02.164Z</time>
      </trkpt>
      <trkpt lat="48.37819" lon="5.14053">
        <ele>218.03</ele>
        <time>2025-01-03T16:06:02.289Z</time>
      </trkpt>
      <trkpt lat="48.37819" lon="5.14036">
        <ele>217.89</ele>
        <time>2025-01-03T16:06:02.416Z</time>
      </trkpt>
      <trkpt lat="48.37817" lon="5.13998">
        <ele>217.72</ele>
        <time>2025-01-03T16:06:02.547Z</time>
      </trkpt>
      <trkpt lat="48.37815" lon="5.13961">
        <ele>217.61</ele>
        <time>2025-01-03T16:06:02.682Z</time>
      </trkpt>
      <trkpt lat="48.37815" lon="5.13943">
        <ele>217.54</ele>
        <time>2025-01-03T16:06:02.819Z</time>
      </trkpt>
      <trkpt lat="48.3781" lon="5.13931">
        <ele>217.49</ele>
        <time>2025-01-03T16:06:02.957Z</time>
      </trkpt>
      <trkpt lat="48.37808" lon="5.13922">
        <ele>217.49</ele>
        <time>2025-01-03T16:06:03.096Z</time>
      </trkpt>
      <trkpt lat="48.37808" lon="5.13922">
        <ele>217.53</ele>
        <time>2025-01-03T16:06:03.235Z</time>
      </trkpt>
      <trkpt lat="48.37802" lon="5.13901">
        <ele>217.57</ele>
        <time>2025-01-03T16:06:03.377Z</time>
      </trkpt>
      <trkpt lat="48.37791" lon="5.13879">
        <ele>217.6</ele>
        <time>2025-01-03T16:06:03.522Z</time>
      </trkpt>
      <trkpt lat="48.3778" lon="5.13858">
        <ele>217.72</ele>
        <time>2025-01-03T16:06:03.669Z</time>
      </trkpt>
      <trkpt lat="48.37774" lon="5.13832">
        <ele>217.88</ele>
        <time>2025-01-03T16:06:03.819Z</time>
      </trkpt>
      <trkpt lat="48.37768" lon="5.13809">
        <ele>218.13</ele>
        <time>2025-01-03T16:06:03.972Z</time>
      </trkpt>
      <trkpt lat="48.37763" lon="5.13787">
        <ele>218.46</ele>
        <time>2025-01-03T16:06:04.127Z</time>
      </trkpt>
      <trkpt lat="48.37759" lon="5.13752">
        <ele>218.81</ele>
        <time>2025-01-03T16:06:04.286Z</time>
      </trkpt>
      <trkpt lat="48.37754" lon="5.13717">
        <ele>219.23</ele>
        <time>2025-01-03T16:06:04.449Z</time>
      </trkpt>
      <trkpt lat="48.3775" lon="5.13682">
        <ele>219.64</ele>
        <time>2025-01-03T16:06:04.616Z</time>
      </trkpt>
      <trkpt lat="48.37746" lon="5.13647">
        <ele>220.08</ele>
        <time>2025-01-03T16:06:04.787Z</time>
      </trkpt>
      <trkpt lat="48.37737" lon="5.13612">
        <ele>220.49</ele>
        <time>2025-01-03T16:06:04.962Z</time>
      </trkpt>
      <trkpt lat="48.37729" lon="5.13577">
        <ele>220.91</ele>
        <time>2025-01-03T16:06:05.141Z</time>
      </trkpt>
      <trkpt lat="48.3772" lon="5.13542">
        <ele>221.29</ele>
        <time>2025-01-03T16:06:05.324Z</time>
      </trkpt>
      <trkpt lat="48.37709" lon="5.13506">
        <ele>221.66</ele>
        <time>2025-01-03T16:06:05.511Z</time>
      </trkpt>
      <trkpt lat="48.37699" lon="5.1347">
        <ele>222.01</ele>
        <time>2025-01-03T16:06:05.702Z</time>
      </trkpt>
      <trkpt lat="48.37688" lon="5.13435">
        <ele>222.34</ele>
        <time>2025-01-03T16:06:05.897Z</time>
      </trkpt>
      <trkpt lat="48.37683" lon="5.13407">
        <ele>222.67</ele>
        <time>2025-01-03T16:06:06.095Z</time>
      </trkpt>
      <trkpt lat="48.37677" lon="5.13379">
        <ele>222.97</ele>
        <time>2025-01-03T16:06:06.296Z</time>
      </trkpt>
      <trkpt lat="48.37674" lon="5.13338">
        <ele>223.33</ele>
        <time>2025-01-03T16:06:06.502Z</time>
      </trkpt>
      <trkpt lat="48.37671" lon="5.13298">
        <ele>223.62</ele>
        <time>2025-01-03T16:06:06.712Z</time>
      </trkpt>
      <trkpt lat="48.37664" lon="5.13275">
        <ele>223.77</ele>
        <time>2025-01-03T16:06:06.925Z</time>
      </trkpt>
      <trkpt lat="48.37658" lon="5.13252">
        <ele>223.91</ele>
        <time>2025-01-03T16:06:07.140Z</time>
      </trkpt>
      <trkpt lat="48.37658" lon="5.13252">
        <ele>224.06</ele>
        <time>2025-01-03T16:06:07.355Z</time>
      </trkpt>
      <trkpt lat="48.37647" lon="5.13231">
        <ele>224.17</ele>
        <time>2025-01-03T16:06:07.573Z</time>
      </trkpt>
      <trkpt lat="48.37626" lon="5.13205">
        <ele>224.28</ele>
        <time>2025-01-03T16:06:07.796Z</time>
      </trkpt>
      <trkpt lat="48.37604" lon="5.13179">
        <ele>224.34</ele>
        <time>2025-01-03T16:06:08.023Z</time>
      </trkpt>
      <trkpt lat="48.37583" lon="5.13154">
        <ele>224.43</ele>
        <time>2025-01-03T16:06:08.254Z</time>
      </trkpt>
      <trkpt lat="48.37561" lon="5.13128">
        <ele>224.58</ele>
        <time>2025-01-03T16:06:08.490Z</time>
      </trkpt>
      <trkpt lat="48.3754" lon="5.13102">
        <ele>224.64</ele>
        <time>2025-01-03T16:06:08.730Z</time>
      </trkpt>
      <trkpt lat="48.37522" lon="5.13074">
        <ele>224.7</ele>
        <time>2025-01-03T16:06:08.974Z</time>
      </trkpt>
      <trkpt lat="48.37504" lon="5.13046">
        <ele>224.76</ele>
        <time>2025-01-03T16:06:09.222Z</time>
      </trkpt>
      <trkpt lat="48.37487" lon="5.13018">
        <ele>224.9</ele>
        <time>2025-01-03T16:06:09.474Z</time>
      </trkpt>
      <trkpt lat="48.37469" lon="5.12991">
        <ele>225.06</ele>
        <time>2025-01-03T16:06:09.731Z</time>
      </trkpt>
      <trkpt lat="48.3745" lon="5.12967">
        <ele>225.21</ele>
        <time>2025-01-03T16:06:09.992Z</time>
      </trkpt>
      <trkpt lat="48.3743" lon="5.12944">
        <ele>225.4</ele>
        <time>2025-01-03T16:06:10.257Z</time>
      </trkpt>
      <trkpt lat="48.37406" lon="5.12923">
        <ele>225.53</ele>
        <time>2025-01-03T16:06:10.526Z</time>
      </trkpt>
      <trkpt lat="48.37382" lon="5.12902">
        <ele>225.67</ele>
        <time>2025-01-03T16:06:10.799Z</time>
      </trkpt>
      <trkpt lat="48.37358" lon="5.12882">
        <ele>225.94</ele>
        <time>2025-01-03T16:06:11.077Z</time>
      </trkpt>
      <trkpt lat="48.37334" lon="5.12861">
        <ele>226.29</ele>
        <time>2025-01-03T16:06:11.359Z</time>
      </trkpt>
      <trkpt lat="48.3731" lon="5.12841">
        <ele>226.67</ele>
        <time>2025-01-03T16:06:11.646Z</time>
      </trkpt>
      <trkpt lat="48.37294" lon="5.12831">
        <ele>227.04</ele>
        <time>2025-01-03T16:06:11.935Z</time>
      </trkpt>
      <trkpt lat="48.37278" lon="5.12821">
        <ele>227.46</ele>
        <time>2025-01-03T16:06:12.227Z</time>
      </trkpt>
      <trkpt lat="48.37253" lon="5.12806">
        <ele>227.92</ele>
        <time>2025-01-03T16:06:12.524Z</time>
      </trkpt>
      <trkpt lat="48.37227" lon="5.1279">
        <ele>228.35</ele>
        <time>2025-01-03T16:06:12.825Z</time>
      </trkpt>
      <trkpt lat="48.37202" lon="5.12775">
        <ele>228.82</ele>
        <time>2025-01-03T16:06:13.130Z</time>
      </trkpt>
      <trkpt lat="48.37177" lon="5.12759">
        <ele>229.42</ele>
        <time>2025-01-03T16:06:13.440Z</time>
      </trkpt>
      <trkpt lat="48.37152" lon="5.12744">
        <ele>230.09</ele>
        <time>2025-01-03T16:06:13.754Z</time>
      </trkpt>
      <trkpt lat="48.37126" lon="5.12733">
        <ele>230.74</ele>
        <time>2025-01-03T16:06:14.072Z</time>
      </trkpt>
      <trkpt lat="48.371" lon="5.12722">
        <ele>231.4</ele>
        <time>2025-01-03T16:06:14.395Z</time>
      </trkpt>
      <trkpt lat="48.37076" lon="5.12699">
        <ele>232.14</ele>
        <time>2025-01-03T16:06:14.722Z</time>
      </trkpt>
      <trkpt lat="48.37057" lon="5.12671">
        <ele>232.99</ele>
        <time>2025-01-03T16:06:15.054Z</time>
      </trkpt>
      <trkpt lat="48.37047" lon="5.12649">
        <ele>233.89</ele>
        <time>2025-01-03T16:06:15.388Z</time>
      </trkpt>
      <trkpt lat="48.37038" lon="5.12628">
        <ele>234.82</ele>
        <time>2025-01-03T16:06:15.725Z</time>
      </trkpt>
      <trkpt lat="48.37029" lon="5.12586">
        <ele>235.89</ele>
        <time>2025-01-03T16:06:16.067Z</time>
      </trkpt>
      <trkpt lat="48.37021" lon="5.12544">
        <ele>236.95</ele>
        <time>2025-01-03T16:06:16.413Z</time>
      </trkpt>
      <trkpt lat="48.37017" lon="5.12511">
        <ele>237.94</ele>
        <time>2025-01-03T16:06:16.763Z</time>
      </trkpt>
      <trkpt lat="48.37013" lon="5.12478">
        <ele>239.02</ele>
        <time>2025-01-03T16:06:17.117Z</time>
      </trkpt>
      <trkpt lat="48.3701" lon="5.12446">
        <ele>240.02</ele>
        <time>2025-01-03T16:06:17.474Z</time>
      </trkpt>
      <trkpt lat="48.3701" lon="5.12401">
        <ele>241.16</ele>
        <time>2025-01-03T16:06:17.836Z</time>
      </trkpt>
      <trkpt lat="48.3701" lon="5.12356">
        <ele>242.29</ele>
        <time>2025-01-03T16:06:18.203Z</time>
      </trkpt>
      <trkpt lat="48.37015" lon="5.12322">
        <ele>243.33</ele>
        <time>2025-01-03T16:06:18.573Z</time>
      </trkpt>
      <trkpt lat="48.3702" lon="5.12288">
        <ele>244.38</ele>
        <time>2025-01-03T16:06:18.947Z</time>
      </trkpt>
      <trkpt lat="48.37025" lon="5.12255">
        <ele>245.44</ele>
        <time>2025-01-03T16:06:19.325Z</time>
      </trkpt>
      <trkpt lat="48.37034" lon="5.12218">
        <ele>246.58</ele>
        <time>2025-01-03T16:06:19.707Z</time>
      </trkpt>
      <trkpt lat="48.37043" lon="5.12182">
        <ele>247.63</ele>
        <time>2025-01-03T16:06:20.093Z</time>
      </trkpt>
      <trkpt lat="48.37052" lon="5.12145">
        <ele>248.61</ele>
        <time>2025-01-03T16:06:20.483Z</time>
      </trkpt>
      <trkpt lat="48.37061" lon="5.12108">
        <ele>249.57</ele>
        <time>2025-01-03T16:06:20.877Z</time>
      </trkpt>
      <trkpt lat="48.3707" lon="5.12072">
        <ele>250.68</ele>
        <time>2025-01-03T16:06:21.275Z</time>
      </trkpt>
      <trkpt lat="48.37083" lon="5.12034">
        <ele>251.76</ele>
        <time>2025-01-03T16:06:21.678Z</time>
      </trkpt>
      <trkpt lat="48.37097" lon="5.11996">
        <ele>252.81</ele>
        <time>2025-01-03T16:06:22.086Z</time>
      </trkpt>
      <trkpt lat="48.37111" lon="5.11958">
        <ele>253.82</ele>
        <time>2025-01-03T16:06:22.498Z</time>
      </trkpt>
      <trkpt lat="48.37124" lon="5.1192">
        <ele>255.06</ele>
        <time>2025-01-03T16:06:22.915Z</time>
      </trkpt>
      <trkpt lat="48.37138" lon="5.11882">
        <ele>256.3</ele>
        <time>2025-01-03T16:06:23.336Z</time>
      </trkpt>
      <trkpt lat="48.37151" lon="5.11844">
        <ele>257.69</ele>
        <time>2025-01-03T16:06:23.762Z</time>
      </trkpt>
      <trkpt lat="48.37164" lon="5.11806">
        <ele>259.03</ele>
        <time>2025-01-03T16:06:24.193Z</time>
      </trkpt>
      <trkpt lat="48.37179" lon="5.1177">
        <ele>260.39</ele>
        <time>2025-01-03T16:06:24.628Z</time>
      </trkpt>
      <trkpt lat="48.37194" lon="5.11733">
        <ele>261.74</ele>
        <time>2025-01-03T16:06:25.068Z</time>
      </trkpt>
      <trkpt lat="48.3721" lon="5.11697">
        <ele>263.17</ele>
        <time>2025-01-03T16:06:25.512Z</time>
      </trkpt>
      <trkpt lat="48.37225" lon="5.1166">
        <ele>264.62</ele>
        <time>2025-01-03T16:06:25.961Z</time>
      </trkpt>
      <trkpt lat="48.3724" lon="5.11624">
        <ele>266.25</ele>
        <time>2025-01-03T16:06:26.414Z</time>
      </trkpt>
      <trkpt lat="48.37257" lon="5.11594">
        <ele>267.73</ele>
        <time>2025-01-03T16:06:26.872Z</time>
      </trkpt>
      <trkpt lat="48.37274" lon="5.11564">
        <ele>269.05</ele>
        <time>2025-01-03T16:06:27.334Z</time>
      </trkpt>
      <trkpt lat="48.37291" lon="5.11534">
        <ele>270.24</ele>
        <time>2025-01-03T16:06:27.800Z</time>
      </trkpt>
      <trkpt lat="48.3731" lon="5.11502">
        <ele>271.4</ele>
        <time>2025-01-03T16:06:28.271Z</time>
      </trkpt>
      <trkpt lat="48.37329" lon="5.1147">
        <ele>272.46</ele>
        <time>2025-01-03T16:06:28.746Z</time>
      </trkpt>
      <trkpt lat="48.37348" lon="5.11438">
        <ele>273.48</ele>
        <time>2025-01-03T16:06:29.226Z</time>
      </trkpt>
      <trkpt lat="48.37367" lon="5.11406">
        <ele>274.44</ele>
        <time>2025-01-03T16:06:29.710Z</time>
      </trkpt>
      <trkpt lat="48.37387" lon="5.11374">
        <ele>275.36</ele>
        <time>2025-01-03T16:06:30.199Z</time>
      </trkpt>
      <trkpt lat="48.37406" lon="5.11342">
        <ele>275.96</ele>
        <time>2025-01-03T16:06:30.693Z</time>
      </trkpt>
      <trkpt lat="48.37425" lon="5.1131">
        <ele>276.45</ele>
        <time>2025-01-03T16:06:31.191Z</time>
      </trkpt>
      <trkpt lat="48.37444" lon="5.11278">
        <ele>276.84</ele>
        <time>2025-01-03T16:06:31.694Z</time>
      </trkpt>
      <trkpt lat="48.37463" lon="5.11246">
        <ele>277.28</ele>
        <time>2025-01-03T16:06:32.201Z</time>
      </trkpt>
      <trkpt lat="48.37482" lon="5.11214">
        <ele>277.63</ele>
        <time>2025-01-03T16:06:32.713Z</time>
      </trkpt>
      <trkpt lat="48.37495" lon="5.11175">
        <ele>277.9</ele>
        <time>2025-01-03T16:06:33.230Z</time>
      </trkpt>
      <trkpt lat="48.37509" lon="5.11137">
        <ele>278.24</ele>
        <time>2025-01-03T16:06:33.751Z</time>
      </trkpt>
      <trkpt lat="48.37522" lon="5.11098">
        <ele>278.51</ele>
        <time>2025-01-03T16:06:34.277Z</time>
      </trkpt>
      <trkpt lat="48.37536" lon="5.1106">
        <ele>278.77</ele>
        <time>2025-01-03T16:06:34.808Z</time>
      </trkpt>
      <trkpt lat="48.37542" lon="5.11034">
        <ele>279</ele>
        <time>2025-01-03T16:06:35.341Z</time>
      </trkpt>
      <trkpt lat="48.37548" lon="5.11008">
        <ele>279.25</ele>
        <time>2025-01-03T16:06:35.877Z</time>
      </trkpt>
      <trkpt lat="48.37551" lon="5.10983">
        <ele>279.56</ele>
        <time>2025-01-03T16:06:36.416Z</time>
      </trkpt>
      <trkpt lat="48.37553" lon="5.10959">
        <ele>279.88</ele>
        <time>2025-01-03T16:06:36.958Z</time>
      </trkpt>
      <trkpt lat="48.37555" lon="5.10916">
        <ele>280.23</ele>
        <time>2025-01-03T16:06:37.504Z</time>
      </trkpt>
      <trkpt lat="48.37558" lon="5.10874">
        <ele>280.67</ele>
        <time>2025-01-03T16:06:38.055Z</time>
      </trkpt>
      <trkpt lat="48.37561" lon="5.10831">
        <ele>281.24</ele>
        <time>2025-01-03T16:06:38.610Z</time>
      </trkpt>
      <trkpt lat="48.37564" lon="5.10789">
        <ele>281.69</ele>
        <time>2025-01-03T16:06:39.170Z</time>
      </trkpt>
      <trkpt lat="48.37572" lon="5.10746">
        <ele>282.29</ele>
        <time>2025-01-03T16:06:39.735Z</time>
      </trkpt>
      <trkpt lat="48.37582" lon="5.10719">
        <ele>282.85</ele>
        <time>2025-01-03T16:06:40.303Z</time>
      </trkpt>
      <trkpt lat="48.37591" lon="5.10693">
        <ele>283.37</ele>
        <time>2025-01-03T16:06:40.874Z</time>
      </trkpt>
      <trkpt lat="48.37605" lon="5.10662">
        <ele>283.71</ele>
        <time>2025-01-03T16:06:41.449Z</time>
      </trkpt>
      <trkpt lat="48.37619" lon="5.10631">
        <ele>284.14</ele>
        <time>2025-01-03T16:06:42.028Z</time>
      </trkpt>
      <trkpt lat="48.37632" lon="5.106">
        <ele>284.5</ele>
        <time>2025-01-03T16:06:42.611Z</time>
      </trkpt>
      <trkpt lat="48.37649" lon="5.10572">
        <ele>284.91</ele>
        <time>2025-01-03T16:06:43.198Z</time>
      </trkpt>
      <trkpt lat="48.37665" lon="5.10544">
        <ele>285.31</ele>
        <time>2025-01-03T16:06:43.789Z</time>
      </trkpt>
      <trkpt lat="48.37682" lon="5.10517">
        <ele>285.74</ele>
        <time>2025-01-03T16:06:44.384Z</time>
      </trkpt>
      <trkpt lat="48.37697" lon="5.10485">
        <ele>286.25</ele>
        <time>2025-01-03T16:06:44.983Z</time>
      </trkpt>
      <trkpt lat="48.37713" lon="5.10454">
        <ele>286.84</ele>
        <time>2025-01-03T16:06:45.586Z</time>
      </trkpt>
      <trkpt lat="48.37728" lon="5.10423">
        <ele>287.51</ele>
        <time>2025-01-03T16:06:46.193Z</time>
      </trkpt>
      <trkpt lat="48.37744" lon="5.10392">
        <ele>288.22</ele>
        <time>2025-01-03T16:06:46.805Z</time>
      </trkpt>
      <trkpt lat="48.37749" lon="5.10369">
        <ele>288.97</ele>
        <time>2025-01-03T16:06:47.419Z</time>
      </trkpt>
      <trkpt lat="48.37754" lon="5.10345">
        <ele>289.76</ele>
        <time>2025-01-03T16:06:48.036Z</time>
      </trkpt>
      <trkpt lat="48.37757" lon="5.10317">
        <ele>290.58</ele>
        <time>2025-01-03T16:06:48.656Z</time>
      </trkpt>
      <trkpt lat="48.37759" lon="5.10289">
        <ele>291.41</ele>
        <time>2025-01-03T16:06:49.279Z</time>
      </trkpt>
      <trkpt lat="48.37757" lon="5.10242">
        <ele>292.22</ele>
        <time>2025-01-03T16:06:49.907Z</time>
      </trkpt>
      <trkpt lat="48.37754" lon="5.10196">
        <ele>293.12</ele>
        <time>2025-01-03T16:06:50.540Z</time>
      </trkpt>
      <trkpt lat="48.37752" lon="5.10149">
        <ele>294.05</ele>
        <time>2025-01-03T16:06:51.178Z</time>
      </trkpt>
      <trkpt lat="48.3775" lon="5.10103">
        <ele>295</ele>
        <time>2025-01-03T16:06:51.821Z</time>
      </trkpt>
      <trkpt lat="48.37737" lon="5.10062">
        <ele>296.11</ele>
        <time>2025-01-03T16:06:52.469Z</time>
      </trkpt>
      <trkpt lat="48.37724" lon="5.10021">
        <ele>297.35</ele>
        <time>2025-01-03T16:06:53.121Z</time>
      </trkpt>
      <trkpt lat="48.37716" lon="5.09991">
        <ele>298.54</ele>
        <time>2025-01-03T16:06:53.777Z</time>
      </trkpt>
      <trkpt lat="48.37711" lon="5.09945">
        <ele>299.65</ele>
        <time>2025-01-03T16:06:54.438Z</time>
      </trkpt>
      <trkpt lat="48.37706" lon="5.09899">
        <ele>300.87</ele>
        <time>2025-01-03T16:06:55.104Z</time>
      </trkpt>
      <trkpt lat="48.37701" lon="5.09854">
        <ele>302.11</ele>
        <time>2025-01-03T16:06:55.775Z</time>
      </trkpt>
      <trkpt lat="48.37697" lon="5.09822">
        <ele>303.31</ele>
        <time>2025-01-03T16:06:56.449Z</time>
      </trkpt>
      <trkpt lat="48.37692" lon="5.09791">
        <ele>304.45</ele>
        <time>2025-01-03T16:06:57.127Z</time>
      </trkpt>
      <trkpt lat="48.3769" lon="5.09753">
        <ele>305.67</ele>
        <time>2025-01-03T16:06:57.809Z</time>
      </trkpt>
      <trkpt lat="48.3769" lon="5.09748">
        <ele>306.84</ele>
        <time>2025-01-03T16:06:58.491Z</time>
      </trkpt>
      <trkpt lat="48.3769" lon="5.09748">
        <ele>307.98</ele>
        <time>2025-01-03T16:06:59.173Z</time>
      </trkpt>
      <trkpt lat="48.37693" lon="5.09724">
        <ele>309.19</ele>
        <time>2025-01-03T16:06:59.858Z</time>
      </trkpt>
      <trkpt lat="48.37697" lon="5.09699">
        <ele>310.41</ele>
        <time>2025-01-03T16:07:00.545Z</time>
      </trkpt>
      <trkpt lat="48.37705" lon="5.09656">
        <ele>311.63</ele>
        <time>2025-01-03T16:07:01.237Z</time>
      </trkpt>
      <trkpt lat="48.37714" lon="5.09613">
        <ele>312.9</ele>
        <time>2025-01-03T16:07:01.934Z</time>
      </trkpt>
      <trkpt lat="48.37722" lon="5.0957">
        <ele>314.01</ele>
        <time>2025-01-03T16:07:02.636Z</time>
      </trkpt>
      <trkpt lat="48.37731" lon="5.09527">
        <ele>314.96</ele>
        <time>2025-01-03T16:07:03.343Z</time>
      </trkpt>
      <trkpt lat="48.3774" lon="5.09484">
        <ele>315.9</ele>
        <time>2025-01-03T16:07:04.054Z</time>
      </trkpt>
      <trkpt lat="48.37748" lon="5.09441">
        <ele>316.8</ele>
        <time>2025-01-03T16:07:04.770Z</time>
      </trkpt>
      <trkpt lat="48.37757" lon="5.09398">
        <ele>317.72</ele>
        <time>2025-01-03T16:07:05.491Z</time>
      </trkpt>
      <trkpt lat="48.37765" lon="5.09356">
        <ele>318.55</ele>
        <time>2025-01-03T16:07:06.217Z</time>
      </trkpt>
      <trkpt lat="48.37767" lon="5.09315">
        <ele>319.29</ele>
        <time>2025-01-03T16:07:06.947Z</time>
      </trkpt>
      <trkpt lat="48.37766" lon="5.0929">
        <ele>320.03</ele>
        <time>2025-01-03T16:07:07.680Z</time>
      </trkpt>
      <trkpt lat="48.37765" lon="5.09266">
        <ele>320.67</ele>
        <time>2025-01-03T16:07:08.415Z</time>
      </trkpt>
      <trkpt lat="48.37759" lon="5.09228">
        <ele>321.34</ele>
        <time>2025-01-03T16:07:09.154Z</time>
      </trkpt>
      <trkpt lat="48.37754" lon="5.09191">
        <ele>321.95</ele>
        <time>2025-01-03T16:07:09.898Z</time>
      </trkpt>
      <trkpt lat="48.37748" lon="5.09154">
        <ele>322.43</ele>
        <time>2025-01-03T16:07:10.646Z</time>
      </trkpt>
      <trkpt lat="48.3775" lon="5.09109">
        <ele>322.81</ele>
        <time>2025-01-03T16:07:11.398Z</time>
      </trkpt>
      <trkpt lat="48.37759" lon="5.09073">
        <ele>323.17</ele>
        <time>2025-01-03T16:07:12.155Z</time>
      </trkpt>
      <trkpt lat="48.37771" lon="5.09035">
        <ele>323.46</ele>
        <time>2025-01-03T16:07:12.916Z</time>
      </trkpt>
      <trkpt lat="48.37783" lon="5.08997">
        <ele>323.57</ele>
        <time>2025-01-03T16:07:13.681Z</time>
      </trkpt>
      <trkpt lat="48.37795" lon="5.0896">
        <ele>323.44</ele>
        <time>2025-01-03T16:07:14.451Z</time>
      </trkpt>
      <trkpt lat="48.37808" lon="5.08922">
        <ele>323.16</ele>
        <time>2025-01-03T16:07:15.225Z</time>
      </trkpt>
      <trkpt lat="48.3782" lon="5.08884">
        <ele>322.82</ele>
        <time>2025-01-03T16:07:16.004Z</time>
      </trkpt>
      <trkpt lat="48.37832" lon="5.08847">
        <ele>322.42</ele>
        <time>2025-01-03T16:07:16.787Z</time>
      </trkpt>
      <trkpt lat="48.37849" lon="5.08809">
        <ele>322.04</ele>
        <time>2025-01-03T16:07:17.575Z</time>
      </trkpt>
      <trkpt lat="48.37865" lon="5.08786">
        <ele>321.63</ele>
        <time>2025-01-03T16:07:18.367Z</time>
      </trkpt>
      <trkpt lat="48.37882" lon="5.08763">
        <ele>321.16</ele>
        <time>2025-01-03T16:07:19.162Z</time>
      </trkpt>
      <trkpt lat="48.37898" lon="5.0874">
        <ele>320.79</ele>
        <time>2025-01-03T16:07:19.961Z</time>
      </trkpt>
      <trkpt lat="48.37912" lon="5.08724">
        <ele>320.38</ele>
        <time>2025-01-03T16:07:20.763Z</time>
      </trkpt>
      <trkpt lat="48.37926" lon="5.08708">
        <ele>320.04</ele>
        <time>2025-01-03T16:07:21.568Z</time>
      </trkpt>
      <trkpt lat="48.37944" lon="5.0868">
        <ele>319.74</ele>
        <time>2025-01-03T16:07:22.377Z</time>
      </trkpt>
      <trkpt lat="48.37963" lon="5.08652">
        <ele>319.35</ele>
        <time>2025-01-03T16:07:23.190Z</time>
      </trkpt>
      <trkpt lat="48.37967" lon="5.08622">
        <ele>318.99</ele>
        <time>2025-01-03T16:07:24.006Z</time>
      </trkpt>
      <trkpt lat="48.37959" lon="5.08592">
        <ele>318.66</ele>
        <time>2025-01-03T16:07:24.826Z</time>
      </trkpt>
      <trkpt lat="48.37952" lon="5.08562">
        <ele>318.39</ele>
        <time>2025-01-03T16:07:25.649Z</time>
      </trkpt>
      <trkpt lat="48.37947" lon="5.08523">
        <ele>318.24</ele>
        <time>2025-01-03T16:07:26.476Z</time>
      </trkpt>
      <trkpt lat="48.37941" lon="5.08485">
        <ele>318.12</ele>
        <time>2025-01-03T16:07:27.307Z</time>
      </trkpt>
      <trkpt lat="48.37941" lon="5.08476">
        <ele>318.02</ele>
        <time>2025-01-03T16:07:28.139Z</time>
      </trkpt>
      <trkpt lat="48.37968" lon="5.0846">
        <ele>317.92</ele>
        <time>2025-01-03T16:07:28.976Z</time>
      </trkpt>
      <trkpt lat="48.37996" lon="5.08443">
        <ele>317.96</ele>
        <time>2025-01-03T16:07:29.818Z</time>
      </trkpt>
      <trkpt lat="48.38023" lon="5.08427">
        <ele>318.08</ele>
        <time>2025-01-03T16:07:30.664Z</time>
      </trkpt>
      <trkpt lat="48.38027" lon="5.08422">
        <ele>318.1</ele>
        <time>2025-01-03T16:07:31.511Z</time>
      </trkpt>
      <trkpt lat="48.38038" lon="5.08379">
        <ele>318.13</ele>
        <time>2025-01-03T16:07:32.363Z</time>
      </trkpt>
      <trkpt lat="48.38055" lon="5.0837">
        <ele>318.13</ele>
        <time>2025-01-03T16:07:33.218Z</time>
      </trkpt>
      <trkpt lat="48.38072" lon="5.0836">
        <ele>318.1</ele>
        <time>2025-01-03T16:07:34.076Z</time>
      </trkpt>
      <trkpt lat="48.38058" lon="5.08319">
        <ele>318.05</ele>
        <time>2025-01-03T16:07:34.939Z</time>
      </trkpt>
      <trkpt lat="48.38045" lon="5.08278">
        <ele>317.98</ele>
        <time>2025-01-03T16:07:35.807Z</time>
      </trkpt>
      <trkpt lat="48.38031" lon="5.08238">
        <ele>317.89</ele>
        <time>2025-01-03T16:07:36.680Z</time>
      </trkpt>
      <trkpt lat="48.38018" lon="5.08197">
        <ele>317.82</ele>
        <time>2025-01-03T16:07:37.557Z</time>
      </trkpt>
      <trkpt lat="48.38005" lon="5.08156">
        <ele>317.74</ele>
        <time>2025-01-03T16:07:38.439Z</time>
      </trkpt>
      <trkpt lat="48.37993" lon="5.08115">
        <ele>317.65</ele>
        <time>2025-01-03T16:07:39.326Z</time>
      </trkpt>
      <trkpt lat="48.3798" lon="5.08075">
        <ele>317.55</ele>
        <time>2025-01-03T16:07:40.218Z</time>
      </trkpt>
      <trkpt lat="48.37976" lon="5.08068">
        <ele>317.4</ele>
        <time>2025-01-03T16:07:41.111Z</time>
      </trkpt>
      <trkpt lat="48.37968" lon="5.08043">
        <ele>317.28</ele>
        <time>2025-01-03T16:07:42.007Z</time>
      </trkpt>
      <trkpt lat="48.3796" lon="5.08017">
        <ele>317.05</ele>
        <time>2025-01-03T16:07:42.906Z</time>
      </trkpt>
      <trkpt lat="48.37949" lon="5.07981">
        <ele>316.7</ele>
        <time>2025-01-03T16:07:43.809Z</time>
      </trkpt>
      <trkpt lat="48.37937" lon="5.07946">
        <ele>316.35</ele>
        <time>2025-01-03T16:07:44.716Z</time>
      </trkpt>
      <trkpt lat="48.37925" lon="5.0791">
        <ele>316.01</ele>
        <time>2025-01-03T16:07:45.628Z</time>
      </trkpt>
      <trkpt lat="48.37913" lon="5.07875">
        <ele>315.57</ele>
        <time>2025-01-03T16:07:46.544Z</time>
      </trkpt>
      <trkpt lat="48.37905" lon="5.0783">
        <ele>315.11</ele>
        <time>2025-01-03T16:07:47.465Z</time>
      </trkpt>
      <trkpt lat="48.37901" lon="5.07796">
        <ele>314.62</ele>
        <time>2025-01-03T16:07:48.389Z</time>
      </trkpt>
      <trkpt lat="48.37898" lon="5.07761">
        <ele>314.15</ele>
        <time>2025-01-03T16:07:49.317Z</time>
      </trkpt>
      <trkpt lat="48.37891" lon="5.07717">
        <ele>313.66</ele>
        <time>2025-01-03T16:07:50.250Z</time>
      </trkpt>
      <trkpt lat="48.37883" lon="5.07674">
        <ele>313.16</ele>
        <time>2025-01-03T16:07:51.188Z</time>
      </trkpt>
      <trkpt lat="48.37871" lon="5.07632">
        <ele>312.6</ele>
        <time>2025-01-03T16:07:52.131Z</time>
      </trkpt>
      <trkpt lat="48.3786" lon="5.07591">
        <ele>311.95</ele>
        <time>2025-01-03T16:07:53.078Z</time>
      </trkpt>
      <trkpt lat="48.37848" lon="5.0755">
        <ele>311.31</ele>
        <time>2025-01-03T16:07:54.030Z</time>
      </trkpt>
      <trkpt lat="48.37836" lon="5.07509">
        <ele>310.73</ele>
        <time>2025-01-03T16:07:54.987Z</time>
      </trkpt>
      <trkpt lat="48.37824" lon="5.07467">
        <ele>310.29</ele>
        <time>2025-01-03T16:07:55.949Z</time>
      </trkpt>
      <trkpt lat="48.37812" lon="5.07427">
        <ele>309.86</ele>
        <time>2025-01-03T16:07:56.915Z</time>
      </trkpt>
      <trkpt lat="48.37798" lon="5.07388">
        <ele>309.41</ele>
        <time>2025-01-03T16:07:57.886Z</time>
      </trkpt>
      <trkpt lat="48.37783" lon="5.0735">
        <ele>308.89</ele>
        <time>2025-01-03T16:07:58.862Z</time>
      </trkpt>
      <trkpt lat="48.37769" lon="5.07311">
        <ele>308.34</ele>
        <time>2025-01-03T16:07:59.843Z</time>
      </trkpt>
      <trkpt lat="48.37754" lon="5.07273">
        <ele>307.81</ele>
        <time>2025-01-03T16:08:00.828Z</time>
      </trkpt>
      <trkpt lat="48.3774" lon="5.07234">
        <ele>307.27</ele>
        <time>2025-01-03T16:08:01.818Z</time>
      </trkpt>
      <trkpt lat="48.37725" lon="5.07196">
        <ele>306.83</ele>
        <time>2025-01-03T16:08:02.813Z</time>
      </trkpt>
      <trkpt lat="48.37711" lon="5.07157">
        <ele>306.43</ele>
        <time>2025-01-03T16:08:03.813Z</time>
      </trkpt>
      <trkpt lat="48.37696" lon="5.07119">
        <ele>306.08</ele>
        <time>2025-01-03T16:08:04.817Z</time>
      </trkpt>
      <trkpt lat="48.37682" lon="5.0708">
        <ele>305.73</ele>
        <time>2025-01-03T16:08:05.826Z</time>
      </trkpt>
      <trkpt lat="48.37667" lon="5.07042">
        <ele>305.42</ele>
        <time>2025-01-03T16:08:06.840Z</time>
      </trkpt>
      <trkpt lat="48.37653" lon="5.07003">
        <ele>305.11</ele>
        <time>2025-01-03T16:08:07.858Z</time>
      </trkpt>
      <trkpt lat="48.37639" lon="5.06965">
        <ele>304.81</ele>
        <time>2025-01-03T16:08:08.881Z</time>
      </trkpt>
      <trkpt lat="48.37628" lon="5.06941">
        <ele>304.55</ele>
        <time>2025-01-03T16:08:09.907Z</time>
      </trkpt>
      <trkpt lat="48.37617" lon="5.06916">
        <ele>304.31</ele>
        <time>2025-01-03T16:08:10.936Z</time>
      </trkpt>
      <trkpt lat="48.376" lon="5.06883">
        <ele>304.12</ele>
        <time>2025-01-03T16:08:11.970Z</time>
      </trkpt>
      <trkpt lat="48.37584" lon="5.06851">
        <ele>303.84</ele>
        <time>2025-01-03T16:08:13.008Z</time>
      </trkpt>
      <trkpt lat="48.37567" lon="5.06818">
        <ele>303.59</ele>
        <time>2025-01-03T16:08:14.051Z</time>
      </trkpt>
      <trkpt lat="48.3755" lon="5.06785">
        <ele>303.41</ele>
        <time>2025-01-03T16:08:15.098Z</time>
      </trkpt>
      <trkpt lat="48.37533" lon="5.06753">
        <ele>303.21</ele>
        <time>2025-01-03T16:08:16.149Z</time>
      </trkpt>
      <trkpt lat="48.37518" lon="5.06729">
        <ele>302.99</ele>
        <time>2025-01-03T16:08:17.204Z</time>
      </trkpt>
      <trkpt lat="48.37503" lon="5.06714">
        <ele>302.74</ele>
        <time>2025-01-03T16:08:18.262Z</time>
      </trkpt>
      <trkpt lat="48.37481" lon="5.06701">
        <ele>302.46</ele>
        <time>2025-01-03T16:08:19.324Z</time>
      </trkpt>
      <trkpt lat="48.37458" lon="5.06689">
        <ele>302.17</ele>
        <time>2025-01-03T16:08:20.389Z</time>
      </trkpt>
      <trkpt lat="48.37435" lon="5.06676">
        <ele>301.87</ele>
        <time>2025-01-03T16:08:21.458Z</time>
      </trkpt>
      <trkpt lat="48.37418" lon="5.06671">
        <ele>301.55</ele>
        <time>2025-01-03T16:08:22.530Z</time>
      </trkpt>
      <trkpt lat="48.374" lon="5.06667">
        <ele>301.26</ele>
        <time>2025-01-03T16:08:23.605Z</time>
      </trkpt>
      <trkpt lat="48.3737" lon="5.06667">
        <ele>300.98</ele>
        <time>2025-01-03T16:08:24.685Z</time>
      </trkpt>
      <trkpt lat="48.3734" lon="5.06667">
        <ele>300.62</ele>
        <time>2025-01-03T16:08:25.770Z</time>
      </trkpt>
      <trkpt lat="48.37315" lon="5.06654">
        <ele>300.16</ele>
        <time>2025-01-03T16:08:26.859Z</time>
      </trkpt>
      <trkpt lat="48.37292" lon="5.06634">
        <ele>299.66</ele>
        <time>2025-01-03T16:08:27.952Z</time>
      </trkpt>
      <trkpt lat="48.3727" lon="5.06613">
        <ele>299.14</ele>
        <time>2025-01-03T16:08:29.049Z</time>
      </trkpt>
      <trkpt lat="48.37248" lon="5.06592">
        <ele>298.57</ele>
        <time>2025-01-03T16:08:30.150Z</time>
      </trkpt>
      <trkpt lat="48.37225" lon="5.06574">
        <ele>297.9</ele>
        <time>2025-01-03T16:08:31.256Z</time>
      </trkpt>
      <trkpt lat="48.37201" lon="5.06557">
        <ele>297.11</ele>
        <time>2025-01-03T16:08:32.366Z</time>
      </trkpt>
      <trkpt lat="48.37202" lon="5.06556">
        <ele>296.4</ele>
        <time>2025-01-03T16:08:33.476Z</time>
      </trkpt>
      <trkpt lat="48.37188" lon="5.06543">
        <ele>295.58</ele>
        <time>2025-01-03T16:08:34.588Z</time>
      </trkpt>
      <trkpt lat="48.37177" lon="5.06525">
        <ele>294.78</ele>
        <time>2025-01-03T16:08:35.703Z</time>
      </trkpt>
      <trkpt lat="48.37166" lon="5.06506">
        <ele>293.95</ele>
        <time>2025-01-03T16:08:36.821Z</time>
      </trkpt>
      <trkpt lat="48.37146" lon="5.0647">
        <ele>293.1</ele>
        <time>2025-01-03T16:08:37.944Z</time>
      </trkpt>
      <trkpt lat="48.37126" lon="5.06434">
        <ele>292.16</ele>
        <time>2025-01-03T16:08:39.072Z</time>
      </trkpt>
      <trkpt lat="48.37105" lon="5.064">
        <ele>291.11</ele>
        <time>2025-01-03T16:08:40.205Z</time>
      </trkpt>
      <trkpt lat="48.37084" lon="5.06366">
        <ele>290.08</ele>
        <time>2025-01-03T16:08:41.343Z</time>
      </trkpt>
      <trkpt lat="48.37077" lon="5.06358">
        <ele>289.14</ele>
        <time>2025-01-03T16:08:42.482Z</time>
      </trkpt>
      <trkpt lat="48.37062" lon="5.06338">
        <ele>288.13</ele>
        <time>2025-01-03T16:08:43.624Z</time>
      </trkpt>
      <trkpt lat="48.37046" lon="5.06318">
        <ele>287.11</ele>
        <time>2025-01-03T16:08:44.770Z</time>
      </trkpt>
      <trkpt lat="48.37034" lon="5.06303">
        <ele>286.13</ele>
        <time>2025-01-03T16:08:45.918Z</time>
      </trkpt>
      <trkpt lat="48.37025" lon="5.06286">
        <ele>285.22</ele>
        <time>2025-01-03T16:08:47.068Z</time>
      </trkpt>
      <trkpt lat="48.37019" lon="5.06263">
        <ele>284.4</ele>
        <time>2025-01-03T16:08:48.221Z</time>
      </trkpt>
      <trkpt lat="48.37015" lon="5.06239">
        <ele>283.61</ele>
        <time>2025-01-03T16:08:49.377Z</time>
      </trkpt>
      <trkpt lat="48.37016" lon="5.06215">
        <ele>282.9</ele>
        <time>2025-01-03T16:08:50.535Z</time>
      </trkpt>
      <trkpt lat="48.37016" lon="5.0619">
        <ele>282.31</ele>
        <time>2025-01-03T16:08:51.696Z</time>
      </trkpt>
      <trkpt lat="48.37019" lon="5.06147">
        <ele>281.78</ele>
        <time>2025-01-03T16:08:52.862Z</time>
      </trkpt>
      <trkpt lat="48.37021" lon="5.06103">
        <ele>281.16</ele>
        <time>2025-01-03T16:08:54.032Z</time>
      </trkpt>
      <trkpt lat="48.37022" lon="5.06079">
        <ele>280.58</ele>
        <time>2025-01-03T16:08:55.205Z</time>
      </trkpt>
      <trkpt lat="48.37024" lon="5.06039">
        <ele>279.99</ele>
        <time>2025-01-03T16:08:56.382Z</time>
      </trkpt>
      <trkpt lat="48.37026" lon="5.05999">
        <ele>279.47</ele>
        <time>2025-01-03T16:08:57.563Z</time>
      </trkpt>
      <trkpt lat="48.37025" lon="5.05968">
        <ele>278.92</ele>
        <time>2025-01-03T16:08:58.748Z</time>
      </trkpt>
      <trkpt lat="48.37024" lon="5.05938">
        <ele>278.31</ele>
        <time>2025-01-03T16:08:59.936Z</time>
      </trkpt>
      <trkpt lat="48.3702" lon="5.05895">
        <ele>277.75</ele>
        <time>2025-01-03T16:09:01.129Z</time>
      </trkpt>
      <trkpt lat="48.37017" lon="5.05851">
        <ele>277.15</ele>
        <time>2025-01-03T16:09:02.326Z</time>
      </trkpt>
      <trkpt lat="48.37014" lon="5.05816">
        <ele>276.58</ele>
        <time>2025-01-03T16:09:03.527Z</time>
      </trkpt>
      <trkpt lat="48.37011" lon="5.0578">
        <ele>275.89</ele>
        <time>2025-01-03T16:09:04.732Z</time>
      </trkpt>
      <trkpt lat="48.3701" lon="5.05748">
        <ele>275.13</ele>
        <time>2025-01-03T16:09:05.940Z</time>
      </trkpt>
      <trkpt lat="48.37009" lon="5.05716">
        <ele>274.46</ele>
        <time>2025-01-03T16:09:07.152Z</time>
      </trkpt>
      <trkpt lat="48.37014" lon="5.05671">
        <ele>273.63</ele>
        <time>2025-01-03T16:09:08.369Z</time>
      </trkpt>
      <trkpt lat="48.37018" lon="5.05627">
        <ele>272.71</ele>
        <time>2025-01-03T16:09:09.590Z</time>
      </trkpt>
      <trkpt lat="48.37022" lon="5.05583">
        <ele>271.86</ele>
        <time>2025-01-03T16:09:10.816Z</time>
      </trkpt>
      <trkpt lat="48.37026" lon="5.05539">
        <ele>271</ele>
        <time>2025-01-03T16:09:12.047Z</time>
      </trkpt>
      <trkpt lat="48.37027" lon="5.05529">
        <ele>270.22</ele>
        <time>2025-01-03T16:09:13.279Z</time>
      </trkpt>
      <trkpt lat="48.37026" lon="5.05518">
        <ele>269.45</ele>
        <time>2025-01-03T16:09:14.512Z</time>
      </trkpt>
      <trkpt lat="48.37024" lon="5.05497">
        <ele>268.62</ele>
        <time>2025-01-03T16:09:15.747Z</time>
      </trkpt>
      <trkpt lat="48.37024" lon="5.05487">
        <ele>267.88</ele>
        <time>2025-01-03T16:09:16.983Z</time>
      </trkpt>
      <trkpt lat="48.37016" lon="5.05458">
        <ele>267.16</ele>
        <time>2025-01-03T16:09:18.223Z</time>
      </trkpt>
      <trkpt lat="48.37012" lon="5.0545">
        <ele>266.53</ele>
        <time>2025-01-03T16:09:19.464Z</time>
      </trkpt>
      <trkpt lat="48.37006" lon="5.05442">
        <ele>265.97</ele>
        <time>2025-01-03T16:09:20.706Z</time>
      </trkpt>
      <trkpt lat="48.36987" lon="5.05423">
        <ele>265.4</ele>
        <time>2025-01-03T16:09:21.952Z</time>
      </trkpt>
      <trkpt lat="48.36962" lon="5.05401">
        <ele>264.83</ele>
        <time>2025-01-03T16:09:23.202Z</time>
      </trkpt>
      <trkpt lat="48.36936" lon="5.0538">
        <ele>264.34</ele>
        <time>2025-01-03T16:09:24.457Z</time>
      </trkpt>
      <trkpt lat="48.3691" lon="5.05365">
        <ele>264.08</ele>
        <time>2025-01-03T16:09:25.717Z</time>
      </trkpt>
      <trkpt lat="48.36885" lon="5.05349">
        <ele>263.92</ele>
        <time>2025-01-03T16:09:26.981Z</time>
      </trkpt>
      <trkpt lat="48.36861" lon="5.05332">
        <ele>263.73</ele>
        <time>2025-01-03T16:09:28.249Z</time>
      </trkpt>
      <trkpt lat="48.36837" lon="5.05315">
        <ele>263.69</ele>
        <time>2025-01-03T16:09:29.522Z</time>
      </trkpt>
      <trkpt lat="48.3683" lon="5.05309">
        <ele>263.58</ele>
        <time>2025-01-03T16:09:30.796Z</time>
      </trkpt>
      <trkpt lat="48.36806" lon="5.05282">
        <ele>263.57</ele>
        <time>2025-01-03T16:09:32.075Z</time>
      </trkpt>
      <trkpt lat="48.36792" lon="5.05256">
        <ele>263.43</ele>
        <time>2025-01-03T16:09:33.357Z</time>
      </trkpt>
      <trkpt lat="48.36778" lon="5.05229">
        <ele>263.3</ele>
        <time>2025-01-03T16:09:34.643Z</time>
      </trkpt>
      <trkpt lat="48.36764" lon="5.05196">
        <ele>263.12</ele>
        <time>2025-01-03T16:09:35.933Z</time>
      </trkpt>
      <trkpt lat="48.36749" lon="5.05163">
        <ele>263.02</ele>
        <time>2025-01-03T16:09:37.227Z</time>
      </trkpt>
      <trkpt lat="48.36733" lon="5.05125">
        <ele>262.98</ele>
        <time>2025-01-03T16:09:38.526Z</time>
      </trkpt>
      <trkpt lat="48.36716" lon="5.05087">
        <ele>262.76</ele>
        <time>2025-01-03T16:09:39.830Z</time>
      </trkpt>
      <trkpt lat="48.36701" lon="5.05052">
        <ele>262.5</ele>
        <time>2025-01-03T16:09:41.138Z</time>
      </trkpt>
      <trkpt lat="48.36686" lon="5.05018">
        <ele>262.12</ele>
        <time>2025-01-03T16:09:42.451Z</time>
      </trkpt>
      <trkpt lat="48.36672" lon="5.04988">
        <ele>261.86</ele>
        <time>2025-01-03T16:09:43.767Z</time>
      </trkpt>
      <trkpt lat="48.36658" lon="5.04959">
        <ele>261.56</ele>
        <time>2025-01-03T16:09:45.087Z</time>
      </trkpt>
      <trkpt lat="48.36653" lon="5.0495">
        <ele>261.2</ele>
        <time>2025-01-03T16:09:46.409Z</time>
      </trkpt>
      <trkpt lat="48.36636" lon="5.04929">
        <ele>260.87</ele>
        <time>2025-01-03T16:09:47.734Z</time>
      </trkpt>
      <trkpt lat="48.36618" lon="5.04908">
        <ele>260.37</ele>
        <time>2025-01-03T16:09:49.063Z</time>
      </trkpt>
      <trkpt lat="48.36602" lon="5.04896">
        <ele>259.85</ele>
        <time>2025-01-03T16:09:50.395Z</time>
      </trkpt>
      <trkpt lat="48.36585" lon="5.04883">
        <ele>259.27</ele>
        <time>2025-01-03T16:09:51.730Z</time>
      </trkpt>
      <trkpt lat="48.36564" lon="5.04872">
        <ele>258.65</ele>
        <time>2025-01-03T16:09:53.068Z</time>
      </trkpt>
      <trkpt lat="48.36543" lon="5.04861">
        <ele>257.94</ele>
        <time>2025-01-03T16:09:54.410Z</time>
      </trkpt>
      <trkpt lat="48.36524" lon="5.04853">
        <ele>257.16</ele>
        <time>2025-01-03T16:09:55.755Z</time>
      </trkpt>
      <trkpt lat="48.36504" lon="5.04845">
        <ele>256.49</ele>
        <time>2025-01-03T16:09:57.103Z</time>
      </trkpt>
      <trkpt lat="48.36488" lon="5.04841">
        <ele>255.81</ele>
        <time>2025-01-03T16:09:58.454Z</time>
      </trkpt>
      <trkpt lat="48.36472" lon="5.04837">
        <ele>255.1</ele>
        <time>2025-01-03T16:09:59.808Z</time>
      </trkpt>
      <trkpt lat="48.36454" lon="5.04833">
        <ele>254.34</ele>
        <time>2025-01-03T16:10:01.165Z</time>
      </trkpt>
      <trkpt lat="48.36435" lon="5.04828">
        <ele>253.55</ele>
        <time>2025-01-03T16:10:02.524Z</time>
      </trkpt>
      <trkpt lat="48.36409" lon="5.04822">
        <ele>252.67</ele>
        <time>2025-01-03T16:10:03.888Z</time>
      </trkpt>
      <trkpt lat="48.36383" lon="5.04816">
        <ele>251.94</ele>
        <time>2025-01-03T16:10:05.256Z</time>
      </trkpt>
      <trkpt lat="48.36363" lon="5.04807">
        <ele>251.19</ele>
        <time>2025-01-03T16:10:06.627Z</time>
      </trkpt>
      <trkpt lat="48.36344" lon="5.04799">
        <ele>250.49</ele>
        <time>2025-01-03T16:10:08.001Z</time>
      </trkpt>
      <trkpt lat="48.36331" lon="5.04786">
        <ele>249.82</ele>
        <time>2025-01-03T16:10:09.378Z</time>
      </trkpt>
      <trkpt lat="48.36321" lon="5.04768">
        <ele>249.18</ele>
        <time>2025-01-03T16:10:10.757Z</time>
      </trkpt>
      <trkpt lat="48.36302" lon="5.04733">
        <ele>248.39</ele>
        <time>2025-01-03T16:10:12.141Z</time>
      </trkpt>
      <trkpt lat="48.36293" lon="5.04703">
        <ele>247.65</ele>
        <time>2025-01-03T16:10:13.529Z</time>
      </trkpt>
      <trkpt lat="48.36285" lon="5.04673">
        <ele>247.06</ele>
        <time>2025-01-03T16:10:14.920Z</time>
      </trkpt>
      <trkpt lat="48.36276" lon="5.04639">
        <ele>246.58</ele>
        <time>2025-01-03T16:10:16.315Z</time>
      </trkpt>
      <trkpt lat="48.36268" lon="5.04606">
        <ele>246.15</ele>
        <time>2025-01-03T16:10:17.714Z</time>
      </trkpt>
      <trkpt lat="48.3626" lon="5.04574">
        <ele>245.83</ele>
        <time>2025-01-03T16:10:19.117Z</time>
      </trkpt>
      <trkpt lat="48.36253" lon="5.04542">
        <ele>245.51</ele>
        <time>2025-01-03T16:10:20.523Z</time>
      </trkpt>
      <trkpt lat="48.36246" lon="5.04516">
        <ele>245.17</ele>
        <time>2025-01-03T16:10:21.932Z</time>
      </trkpt>
      <trkpt lat="48.3624" lon="5.0449">
        <ele>244.96</ele>
        <time>2025-01-03T16:10:23.344Z</time>
      </trkpt>
      <trkpt lat="48.36237" lon="5.04462">
        <ele>244.9</ele>
        <time>2025-01-03T16:10:24.759Z</time>
      </trkpt>
      <trkpt lat="48.36236" lon="5.04454">
        <ele>244.85</ele>
        <time>2025-01-03T16:10:26.175Z</time>
      </trkpt>
      <trkpt lat="48.36235" lon="5.04433">
        <ele>244.86</ele>
        <time>2025-01-03T16:10:27.593Z</time>
      </trkpt>
      <trkpt lat="48.36234" lon="5.04414">
        <ele>244.96</ele>
        <time>2025-01-03T16:10:29.013Z</time>
      </trkpt>
      <trkpt lat="48.36234" lon="5.04401">
        <ele>245.14</ele>
        <time>2025-01-03T16:10:30.435Z</time>
      </trkpt>
      <trkpt lat="48.36228" lon="5.04393">
        <ele>245.31</ele>
        <time>2025-01-03T16:10:31.858Z</time>
      </trkpt>
      <trkpt lat="48.36225" lon="5.04396">
        <ele>245.54</ele>
        <time>2025-01-03T16:10:33.282Z</time>
      </trkpt>
      <trkpt lat="48.3622" lon="5.044">
        <ele>245.81</ele>
        <time>2025-01-03T16:10:34.706Z</time>
      </trkpt>
      <trkpt lat="48.36213" lon="5.04407">
        <ele>246.14</ele>
        <time>2025-01-03T16:10:36.132Z</time>
      </trkpt>
      <trkpt lat="48.36209" lon="5.04412">
        <ele>246.52</ele>
        <time>2025-01-03T16:10:37.559Z</time>
      </trkpt>
      <trkpt lat="48.36206" lon="5.04414">
        <ele>246.92</ele>
        <time>2025-01-03T16:10:38.986Z</time>
      </trkpt>
      <trkpt lat="48.36197" lon="5.04424">
        <ele>247.36</ele>
        <time>2025-01-03T16:10:40.415Z</time>
      </trkpt>
      <trkpt lat="48.36184" lon="5.04436">
        <ele>247.84</ele>
        <time>2025-01-03T16:10:41.846Z</time>
      </trkpt>
      <trkpt lat="48.36164" lon="5.04458">
        <ele>248.33</ele>
        <time>2025-01-03T16:10:43.281Z</time>
      </trkpt>
      <trkpt lat="48.36154" lon="5.04481">
        <ele>248.84</ele>
        <time>2025-01-03T16:10:44.719Z</time>
      </trkpt>
      <trkpt lat="48.36147" lon="5.04513">
        <ele>249.29</ele>
        <time>2025-01-03T16:10:46.161Z</time>
      </trkpt>
      <trkpt lat="48.36142" lon="5.04538">
        <ele>249.73</ele>
        <time>2025-01-03T16:10:47.606Z</time>
      </trkpt>
      <trkpt lat="48.36142" lon="5.04541">
        <ele>250.06</ele>
        <time>2025-01-03T16:10:49.051Z</time>
      </trkpt>
      <trkpt lat="48.36149" lon="5.04541">
        <ele>250.37</ele>
        <time>2025-01-03T16:10:50.497Z</time>
      </trkpt>
      <trkpt lat="48.36145" lon="5.04534">
        <ele>250.57</ele>
        <time>2025-01-03T16:10:51.944Z</time>
      </trkpt>
      <trkpt lat="48.36143" lon="5.0453">
        <ele>250.75</ele>
        <time>2025-01-03T16:10:53.392Z</time>
      </trkpt>
      <trkpt lat="48.36144" lon="5.04527">
        <ele>250.89</ele>
        <time>2025-01-03T16:10:54.840Z</time>
      </trkpt>
      <trkpt lat="48.36145" lon="5.04522">
        <ele>250.98</ele>
        <time>2025-01-03T16:10:56.289Z</time>
      </trkpt>
      <trkpt lat="48.3615" lon="5.04499">
        <ele>250.97</ele>
        <time>2025-01-03T16:10:57.740Z</time>
      </trkpt>
      <trkpt lat="48.36158" lon="5.04477">
        <ele>250.93</ele>
        <time>2025-01-03T16:10:59.194Z</time>
      </trkpt>
      <trkpt lat="48.36166" lon="5.04454">
        <ele>250.84</ele>
        <time>2025-01-03T16:11:00.651Z</time>
      </trkpt>
      <trkpt lat="48.36171" lon="5.04448">
        <ele>250.8</ele>
        <time>2025-01-03T16:11:02.109Z</time>
      </trkpt>
      <trkpt lat="48.3619" lon="5.0443">
        <ele>250.64</ele>
        <time>2025-01-03T16:11:03.570Z</time>
      </trkpt>
      <trkpt lat="48.36215" lon="5.04406">
        <ele>250.47</ele>
        <time>2025-01-03T16:11:05.036Z</time>
      </trkpt>
      <trkpt lat="48.36222" lon="5.04399">
        <ele>250.38</ele>
        <time>2025-01-03T16:11:06.503Z</time>
      </trkpt>
      <trkpt lat="48.36238" lon="5.04367">
        <ele>250.35</ele>
        <time>2025-01-03T16:11:07.975Z</time>
      </trkpt>
      <trkpt lat="48.3624" lon="5.04342">
        <ele>250.32</ele>
        <time>2025-01-03T16:11:09.449Z</time>
      </trkpt>
      <trkpt lat="48.36243" lon="5.04318">
        <ele>250.26</ele>
        <time>2025-01-03T16:11:10.926Z</time>
      </trkpt>
      <trkpt lat="48.36244" lon="5.04289">
        <ele>250.18</ele>
        <time>2025-01-03T16:11:12.406Z</time>
      </trkpt>
      <trkpt lat="48.36245" lon="5.04269">
        <ele>250.03</ele>
        <time>2025-01-03T16:11:13.888Z</time>
      </trkpt>
      <trkpt lat="48.36245" lon="5.04269">
        <ele>249.86</ele>
        <time>2025-01-03T16:11:15.370Z</time>
      </trkpt>
      <trkpt lat="48.36245" lon="5.04268">
        <ele>249.66</ele>
        <time>2025-01-03T16:11:16.852Z</time>
      </trkpt>
      <trkpt lat="48.36245" lon="5.04261">
        <ele>249.44</ele>
        <time>2025-01-03T16:11:18.335Z</time>
      </trkpt>
      <trkpt lat="48.36246" lon="5.04255">
        <ele>249.21</ele>
        <time>2025-01-03T16:11:19.818Z</time>
      </trkpt>
      <trkpt lat="48.36243" lon="5.04225">
        <ele>248.95</ele>
        <time>2025-01-03T16:11:21.305Z</time>
      </trkpt>
      <trkpt lat="48.36241" lon="5.04208">
        <ele>248.69</ele>
        <time>2025-01-03T16:11:22.794Z</time>
      </trkpt>
      <trkpt lat="48.3624" lon="5.04206">
        <ele>248.38</ele>
        <time>2025-01-03T16:11:24.283Z</time>
      </trkpt>
      <trkpt lat="48.36225" lon="5.04194">
        <ele>247.96</ele>
        <time>2025-01-03T16:11:25.775Z</time>
      </trkpt>
      <trkpt lat="48.36238" lon="5.04188">
        <ele>247.73</ele>
        <time>2025-01-03T16:11:27.269Z</time>
      </trkpt>
      <trkpt lat="48.36238" lon="5.04187">
        <ele>247.38</ele>
        <time>2025-01-03T16:11:28.763Z</time>
      </trkpt>
      <trkpt lat="48.36237" lon="5.04184">
        <ele>247.02</ele>
        <time>2025-01-03T16:11:30.257Z</time>
      </trkpt>
      <trkpt lat="48.36237" lon="5.04182">
        <ele>246.66</ele>
        <time>2025-01-03T16:11:31.752Z</time>
      </trkpt>
      <trkpt lat="48.36235" lon="5.04167">
        <ele>246.25</ele>
        <time>2025-01-03T16:11:33.248Z</time>
      </trkpt>
      <trkpt lat="48.36229" lon="5.04126">
        <ele>245.78</ele>
        <time>2025-01-03T16:11:34.749Z</time>
      </trkpt>
      <trkpt lat="48.3623" lon="5.04119">
        <ele>245.44</ele>
        <time>2025-01-03T16:11:36.250Z</time>
      </trkpt>
      <trkpt lat="48.36232" lon="5.04091">
        <ele>245.07</ele>
        <time>2025-01-03T16:11:37.754Z</time>
      </trkpt>
      <trkpt lat="48.36235" lon="5.04077">
        <ele>244.77</ele>
        <time>2025-01-03T16:11:39.260Z</time>
      </trkpt>
      <trkpt lat="48.36244" lon="5.04047">
        <ele>244.49</ele>
        <time>2025-01-03T16:11:40.770Z</time>
      </trkpt>
      <trkpt lat="48.36251" lon="5.04024">
        <ele>244.27</ele>
        <time>2025-01-03T16:11:42.282Z</time>
      </trkpt>
      <trkpt lat="48.36258" lon="5.04001">
        <ele>244.12</ele>
        <time>2025-01-03T16:11:43.797Z</time>
      </trkpt>
      <trkpt lat="48.36267" lon="5.0399">
        <ele>244.06</ele>
        <time>2025-01-03T16:11:45.314Z</time>
      </trkpt>
      <trkpt lat="48.36276" lon="5.03985">
        <ele>244.12</ele>
        <time>2025-01-03T16:11:46.832Z</time>
      </trkpt>
      <trkpt lat="48.3628" lon="5.03982">
        <ele>244.25</ele>
        <time>2025-01-03T16:11:48.351Z</time>
      </trkpt>
      <trkpt lat="48.36295" lon="5.03974">
        <ele>244.49</ele>
        <time>2025-01-03T16:11:49.872Z</time>
      </trkpt>
      <trkpt lat="48.36308" lon="5.03972">
        <ele>244.82</ele>
        <time>2025-01-03T16:11:51.396Z</time>
      </trkpt>
      <trkpt lat="48.36329" lon="5.03968">
        <ele>245.21</ele>
        <time>2025-01-03T16:11:52.923Z</time>
      </trkpt>
      <trkpt lat="48.36349" lon="5.03965">
        <ele>245.72</ele>
        <time>2025-01-03T16:11:54.453Z</time>
      </trkpt>
      <trkpt lat="48.36367" lon="5.03962">
        <ele>246.32</ele>
        <time>2025-01-03T16:11:55.986Z</time>
      </trkpt>
      <trkpt lat="48.36385" lon="5.03959">
        <ele>247.02</ele>
        <time>2025-01-03T16:11:57.522Z</time>
      </trkpt>
      <trkpt lat="48.36413" lon="5.03954">
        <ele>247.7</ele>
        <time>2025-01-03T16:11:59.063Z</time>
      </trkpt>
      <trkpt lat="48.36429" lon="5.03953">
        <ele>248.42</ele>
        <time>2025-01-03T16:12:00.606Z</time>
      </trkpt>
      <trkpt lat="48.36433" lon="5.03953">
        <ele>249.24</ele>
        <time>2025-01-03T16:12:02.150Z</time>
      </trkpt>
      <trkpt lat="48.36464" lon="5.03952">
        <ele>250.23</ele>
        <time>2025-01-03T16:12:03.699Z</time>
      </trkpt>
      <trkpt lat="48.3648" lon="5.03952">
        <ele>251.26</ele>
        <time>2025-01-03T16:12:05.250Z</time>
      </trkpt>
      <trkpt lat="48.36496" lon="5.03951">
        <ele>252.32</ele>
        <time>2025-01-03T16:12:06.804Z</time>
      </trkpt>
      <trkpt lat="48.36527" lon="5.03951">
        <ele>253.49</ele>
        <time>2025-01-03T16:12:08.363Z</time>
      </trkpt>
      <trkpt lat="48.36549" lon="5.03948">
        <ele>254.43</ele>
        <time>2025-01-03T16:12:09.925Z</time>
      </trkpt>
      <trkpt lat="48.3657" lon="5.03946">
        <ele>255.35</ele>
        <time>2025-01-03T16:12:11.491Z</time>
      </trkpt>
      <trkpt lat="48.36575" lon="5.03945">
        <ele>256.13</ele>
        <time>2025-01-03T16:12:13.058Z</time>
      </trkpt>
      <trkpt lat="48.36596" lon="5.03942">
        <ele>256.9</ele>
        <time>2025-01-03T16:12:14.628Z</time>
      </trkpt>
      <trkpt lat="48.36606" lon="5.0394">
        <ele>257.63</ele>
        <time>2025-01-03T16:12:16.199Z</time>
      </trkpt>
      <trkpt lat="48.36636" lon="5.03935">
        <ele>258.35</ele>
        <time>2025-01-03T16:12:17.775Z</time>
      </trkpt>
      <trkpt lat="48.36667" lon="5.03929">
        <ele>258.78</ele>
        <time>2025-01-03T16:12:19.356Z</time>
      </trkpt>
      <trkpt lat="48.36688" lon="5.03924">
        <ele>259.01</ele>
        <time>2025-01-03T16:12:20.941Z</time>
      </trkpt>
      <trkpt lat="48.36694" lon="5.03922">
        <ele>259.28</ele>
        <time>2025-01-03T16:12:22.527Z</time>
      </trkpt>
      <trkpt lat="48.36722" lon="5.03915">
        <ele>259.39</ele>
        <time>2025-01-03T16:12:24.117Z</time>
      </trkpt>
      <trkpt lat="48.36728" lon="5.03914">
        <ele>259.53</ele>
        <time>2025-01-03T16:12:25.708Z</time>
      </trkpt>
      <trkpt lat="48.36745" lon="5.0391">
        <ele>259.51</ele>
        <time>2025-01-03T16:12:27.302Z</time>
      </trkpt>
      <trkpt lat="48.36762" lon="5.03905">
        <ele>259.57</ele>
        <time>2025-01-03T16:12:28.899Z</time>
      </trkpt>
      <trkpt lat="48.36779" lon="5.03899">
        <ele>259.48</ele>
        <time>2025-01-03T16:12:30.499Z</time>
      </trkpt>
      <trkpt lat="48.36797" lon="5.03892">
        <ele>259.2</ele>
        <time>2025-01-03T16:12:32.102Z</time>
      </trkpt>
      <trkpt lat="48.36813" lon="5.03885">
        <ele>258.8</ele>
        <time>2025-01-03T16:12:33.707Z</time>
      </trkpt>
      <trkpt lat="48.36829" lon="5.03878">
        <ele>258.24</ele>
        <time>2025-01-03T16:12:35.315Z</time>
      </trkpt>
      <trkpt lat="48.36858" lon="5.03865">
        <ele>257.62</ele>
        <time>2025-01-03T16:12:36.928Z</time>
      </trkpt>
      <trkpt lat="48.36881" lon="5.03851">
        <ele>256.97</ele>
        <time>2025-01-03T16:12:38.545Z</time>
      </trkpt>
      <trkpt lat="48.36893" lon="5.03844">
        <ele>256.26</ele>
        <time>2025-01-03T16:12:40.164Z</time>
      </trkpt>
      <trkpt lat="48.36911" lon="5.03833">
        <ele>255.49</ele>
        <time>2025-01-03T16:12:41.786Z</time>
      </trkpt>
      <trkpt lat="48.36929" lon="5.03822">
        <ele>254.6</ele>
        <time>2025-01-03T16:12:43.411Z</time>
      </trkpt>
      <trkpt lat="48.36955" lon="5.038">
        <ele>253.64</ele>
        <time>2025-01-03T16:12:45.041Z</time>
      </trkpt>
      <trkpt lat="48.36981" lon="5.03778">
        <ele>252.62</ele>
        <time>2025-01-03T16:12:46.676Z</time>
      </trkpt>
      <trkpt lat="48.36987" lon="5.03773">
        <ele>251.68</ele>
        <time>2025-01-03T16:12:48.312Z</time>
      </trkpt>
      <trkpt lat="48.37007" lon="5.03751">
        <ele>250.72</ele>
        <time>2025-01-03T16:12:49.952Z</time>
      </trkpt>
      <trkpt lat="48.37028" lon="5.0373">
        <ele>249.79</ele>
        <time>2025-01-03T16:12:51.596Z</time>
      </trkpt>
      <trkpt lat="48.37044" lon="5.03708">
        <ele>248.82</ele>
        <time>2025-01-03T16:12:53.243Z</time>
      </trkpt>
      <trkpt lat="48.37059" lon="5.03686">
        <ele>247.83</ele>
        <time>2025-01-03T16:12:54.894Z</time>
      </trkpt>
      <trkpt lat="48.3708" lon="5.03657">
        <ele>246.89</ele>
        <time>2025-01-03T16:12:56.549Z</time>
      </trkpt>
      <trkpt lat="48.37101" lon="5.03628">
        <ele>246.1</ele>
        <time>2025-01-03T16:12:58.209Z</time>
      </trkpt>
      <trkpt lat="48.37107" lon="5.0362">
        <ele>245.33</ele>
        <time>2025-01-03T16:12:59.870Z</time>
      </trkpt>
      <trkpt lat="48.3712" lon="5.03596">
        <ele>244.49</ele>
        <time>2025-01-03T16:13:01.534Z</time>
      </trkpt>
      <trkpt lat="48.37134" lon="5.03571">
        <ele>243.72</ele>
        <time>2025-01-03T16:13:03.202Z</time>
      </trkpt>
      <trkpt lat="48.37147" lon="5.03547">
        <ele>243.18</ele>
        <time>2025-01-03T16:13:04.873Z</time>
      </trkpt>
      <trkpt lat="48.37161" lon="5.03512">
        <ele>242.62</ele>
        <time>2025-01-03T16:13:06.548Z</time>
      </trkpt>
      <trkpt lat="48.37176" lon="5.03477">
        <ele>242.16</ele>
        <time>2025-01-03T16:13:08.228Z</time>
      </trkpt>
      <trkpt lat="48.37184" lon="5.03444">
        <ele>241.75</ele>
        <time>2025-01-03T16:13:09.912Z</time>
      </trkpt>
      <trkpt lat="48.37192" lon="5.03411">
        <ele>241.4</ele>
        <time>2025-01-03T16:13:11.599Z</time>
      </trkpt>
      <trkpt lat="48.37201" lon="5.03379">
        <ele>241.21</ele>
        <time>2025-01-03T16:13:13.290Z</time>
      </trkpt>
      <trkpt lat="48.3721" lon="5.03346">
        <ele>241.06</ele>
        <time>2025-01-03T16:13:14.985Z</time>
      </trkpt>
      <trkpt lat="48.37224" lon="5.03318">
        <ele>241.01</ele>
        <time>2025-01-03T16:13:16.683Z</time>
      </trkpt>
      <trkpt lat="48.37238" lon="5.03291">
        <ele>241.11</ele>
        <time>2025-01-03T16:13:18.385Z</time>
      </trkpt>
      <trkpt lat="48.37255" lon="5.03257">
        <ele>241.35</ele>
        <time>2025-01-03T16:13:20.092Z</time>
      </trkpt>
      <trkpt lat="48.37272" lon="5.03224">
        <ele>241.54</ele>
        <time>2025-01-03T16:13:21.803Z</time>
      </trkpt>
      <trkpt lat="48.3729" lon="5.03193">
        <ele>241.69</ele>
        <time>2025-01-03T16:13:23.519Z</time>
      </trkpt>
      <trkpt lat="48.37308" lon="5.03162">
        <ele>241.83</ele>
        <time>2025-01-03T16:13:25.239Z</time>
      </trkpt>
      <trkpt lat="48.37325" lon="5.03139">
        <ele>242.05</ele>
        <time>2025-01-03T16:13:26.963Z</time>
      </trkpt>
      <trkpt lat="48.37343" lon="5.03117">
        <ele>242.27</ele>
        <time>2025-01-03T16:13:28.690Z</time>
      </trkpt>
      <trkpt lat="48.37364" lon="5.03091">
        <ele>242.64</ele>
        <time>2025-01-03T16:13:30.422Z</time>
      </trkpt>
      <trkpt lat="48.37386" lon="5.03064">
        <ele>242.9</ele>
        <time>2025-01-03T16:13:32.158Z</time>
      </trkpt>
      <trkpt lat="48.3739" lon="5.03059">
        <ele>243.06</ele>
        <time>2025-01-03T16:13:33.895Z</time>
      </trkpt>
      <trkpt lat="48.37403" lon="5.03043">
        <ele>243.12</ele>
        <time>2025-01-03T16:13:35.635Z</time>
      </trkpt>
      <trkpt lat="48.37416" lon="5.03026">
        <ele>243.11</ele>
        <time>2025-01-03T16:13:37.378Z</time>
      </trkpt>
      <trkpt lat="48.37438" lon="5.02999">
        <ele>243.16</ele>
        <time>2025-01-03T16:13:39.125Z</time>
      </trkpt>
      <trkpt lat="48.37448" lon="5.02979">
        <ele>243.05</ele>
        <time>2025-01-03T16:13:40.875Z</time>
      </trkpt>
      <trkpt lat="48.37458" lon="5.02959">
        <ele>242.89</ele>
        <time>2025-01-03T16:13:42.627Z</time>
      </trkpt>
      <trkpt lat="48.37469" lon="5.02931">
        <ele>242.67</ele>
        <time>2025-01-03T16:13:44.383Z</time>
      </trkpt>
      <trkpt lat="48.3748" lon="5.02902">
        <ele>242.27</ele>
        <time>2025-01-03T16:13:46.142Z</time>
      </trkpt>
      <trkpt lat="48.37494" lon="5.02867">
        <ele>241.8</ele>
        <time>2025-01-03T16:13:47.906Z</time>
      </trkpt>
      <trkpt lat="48.37507" lon="5.02832">
        <ele>241.31</ele>
        <time>2025-01-03T16:13:49.674Z</time>
      </trkpt>
      <trkpt lat="48.3752" lon="5.02797">
        <ele>240.73</ele>
        <time>2025-01-03T16:13:51.446Z</time>
      </trkpt>
      <trkpt lat="48.37534" lon="5.02762">
        <ele>240.09</ele>
        <time>2025-01-03T16:13:53.223Z</time>
      </trkpt>
      <trkpt lat="48.37546" lon="5.02723">
        <ele>239.46</ele>
        <time>2025-01-03T16:13:55.004Z</time>
      </trkpt>
      <trkpt lat="48.37559" lon="5.02685">
        <ele>238.82</ele>
        <time>2025-01-03T16:13:56.790Z</time>
      </trkpt>
      <trkpt lat="48.37564" lon="5.02646">
        <ele>238.27</ele>
        <time>2025-01-03T16:13:58.580Z</time>
      </trkpt>
      <trkpt lat="48.37568" lon="5.02607">
        <ele>237.77</ele>
        <time>2025-01-03T16:14:00.374Z</time>
      </trkpt>
      <trkpt lat="48.37573" lon="5.02571">
        <ele>237.25</ele>
        <time>2025-01-03T16:14:02.172Z</time>
      </trkpt>
      <trkpt lat="48.37578" lon="5.02535">
        <ele>236.65</ele>
        <time>2025-01-03T16:14:03.974Z</time>
      </trkpt>
      <trkpt lat="48.37576" lon="5.0251">
        <ele>236.07</ele>
        <time>2025-01-03T16:14:05.779Z</time>
      </trkpt>
      <trkpt lat="48.37574" lon="5.02485">
        <ele>235.5</ele>
        <time>2025-01-03T16:14:07.586Z</time>
      </trkpt>
      <trkpt lat="48.37569" lon="5.02443">
        <ele>234.95</ele>
        <time>2025-01-03T16:14:09.398Z</time>
      </trkpt>
      <trkpt lat="48.37564" lon="5.02402">
        <ele>234.39</ele>
        <time>2025-01-03T16:14:11.214Z</time>
      </trkpt>
      <trkpt lat="48.37563" lon="5.02392">
        <ele>233.89</ele>
        <time>2025-01-03T16:14:13.032Z</time>
      </trkpt>
      <trkpt lat="48.37558" lon="5.02347">
        <ele>233.4</ele>
        <time>2025-01-03T16:14:14.854Z</time>
      </trkpt>
      <trkpt lat="48.37553" lon="5.02302">
        <ele>233</ele>
        <time>2025-01-03T16:14:16.681Z</time>
      </trkpt>
      <trkpt lat="48.3755" lon="5.02279">
        <ele>232.67</ele>
        <time>2025-01-03T16:14:18.511Z</time>
      </trkpt>
      <trkpt lat="48.37546" lon="5.02238">
        <ele>232.36</ele>
        <time>2025-01-03T16:14:20.345Z</time>
      </trkpt>
      <trkpt lat="48.37541" lon="5.02198">
        <ele>232.15</ele>
        <time>2025-01-03T16:14:22.184Z</time>
      </trkpt>
      <trkpt lat="48.37541" lon="5.02161">
        <ele>232.01</ele>
        <time>2025-01-03T16:14:24.026Z</time>
      </trkpt>
      <trkpt lat="48.37543" lon="5.02137">
        <ele>231.98</ele>
        <time>2025-01-03T16:14:25.871Z</time>
      </trkpt>
      <trkpt lat="48.37545" lon="5.02113">
        <ele>232.06</ele>
        <time>2025-01-03T16:14:27.719Z</time>
      </trkpt>
      <trkpt lat="48.37548" lon="5.02101">
        <ele>232.22</ele>
        <time>2025-01-03T16:14:29.568Z</time>
      </trkpt>
      <trkpt lat="48.37556" lon="5.02059">
        <ele>232.4</ele>
        <time>2025-01-03T16:14:31.422Z</time>
      </trkpt>
      <trkpt lat="48.37565" lon="5.02018">
        <ele>232.69</ele>
        <time>2025-01-03T16:14:33.280Z</time>
      </trkpt>
      <trkpt lat="48.37569" lon="5.01995">
        <ele>233.12</ele>
        <time>2025-01-03T16:14:35.141Z</time>
      </trkpt>
      <trkpt lat="48.37579" lon="5.01954">
        <ele>233.65</ele>
        <time>2025-01-03T16:14:37.006Z</time>
      </trkpt>
      <trkpt lat="48.37588" lon="5.01914">
        <ele>234.17</ele>
        <time>2025-01-03T16:14:38.876Z</time>
      </trkpt>
      <trkpt lat="48.37594" lon="5.01892">
        <ele>234.78</ele>
        <time>2025-01-03T16:14:40.748Z</time>
      </trkpt>
      <trkpt lat="48.37604" lon="5.01854">
        <ele>235.41</ele>
        <time>2025-01-03T16:14:42.625Z</time>
      </trkpt>
      <trkpt lat="48.37614" lon="5.01816">
        <ele>236.25</ele>
        <time>2025-01-03T16:14:44.506Z</time>
      </trkpt>
      <trkpt lat="48.3762" lon="5.01793">
        <ele>237.12</ele>
        <time>2025-01-03T16:14:46.390Z</time>
      </trkpt>
      <trkpt lat="48.37625" lon="5.01758">
        <ele>238.06</ele>
        <time>2025-01-03T16:14:48.278Z</time>
      </trkpt>
      <trkpt lat="48.37631" lon="5.01722">
        <ele>238.95</ele>
        <time>2025-01-03T16:14:50.170Z</time>
      </trkpt>
      <trkpt lat="48.37633" lon="5.01676">
        <ele>239.71</ele>
        <time>2025-01-03T16:14:52.066Z</time>
      </trkpt>
      <trkpt lat="48.37635" lon="5.0163">
        <ele>240.36</ele>
        <time>2025-01-03T16:14:53.967Z</time>
      </trkpt>
      <trkpt lat="48.37636" lon="5.01591">
        <ele>241.04</ele>
        <time>2025-01-03T16:14:55.873Z</time>
      </trkpt>
      <trkpt lat="48.37636" lon="5.01551">
        <ele>241.61</ele>
        <time>2025-01-03T16:14:57.783Z</time>
      </trkpt>
      <trkpt lat="48.37636" lon="5.01516">
        <ele>242.11</ele>
        <time>2025-01-03T16:14:59.697Z</time>
      </trkpt>
      <trkpt lat="48.37636" lon="5.01482">
        <ele>242.48</ele>
        <time>2025-01-03T16:15:01.614Z</time>
      </trkpt>
      <trkpt lat="48.37636" lon="5.01463">
        <ele>242.85</ele>
        <time>2025-01-03T16:15:03.533Z</time>
      </trkpt>
      <trkpt lat="48.37636" lon="5.01433">
        <ele>243.17</ele>
        <time>2025-01-03T16:15:05.455Z</time>
      </trkpt>
      <trkpt lat="48.37633" lon="5.01397">
        <ele>243.34</ele>
        <time>2025-01-03T16:15:07.381Z</time>
      </trkpt>
      <trkpt lat="48.3763" lon="5.0136">
        <ele>243.4</ele>
        <time>2025-01-03T16:15:09.311Z</time>
      </trkpt>
      <trkpt lat="48.37624" lon="5.01324">
        <ele>243.25</ele>
        <time>2025-01-03T16:15:11.245Z</time>
      </trkpt>
      <trkpt lat="48.37618" lon="5.01287">
        <ele>243.02</ele>
        <time>2025-01-03T16:15:13.183Z</time>
      </trkpt>
      <trkpt lat="48.37613" lon="5.01255">
        <ele>242.8</ele>
        <time>2025-01-03T16:15:15.125Z</time>
      </trkpt>
      <trkpt lat="48.37608" lon="5.01223">
        <ele>242.49</ele>
        <time>2025-01-03T16:15:17.070Z</time>
      </trkpt>
      <trkpt lat="48.376" lon="5.01194">
        <ele>242.19</ele>
        <time>2025-01-03T16:15:19.019Z</time>
      </trkpt>
      <trkpt lat="48.37593" lon="5.01165">
        <ele>241.94</ele>
        <time>2025-01-03T16:15:20.971Z</time>
      </trkpt>
      <trkpt lat="48.37587" lon="5.01137">
        <ele>241.67</ele>
        <time>2025-01-03T16:15:22.926Z</time>
      </trkpt>
      <trkpt lat="48.3758" lon="5.0111">
        <ele>241.31</ele>
        <time>2025-01-03T16:15:24.884Z</time>
      </trkpt>
      <trkpt lat="48.37572" lon="5.01076">
        <ele>240.74</ele>
        <time>2025-01-03T16:15:26.846Z</time>
      </trkpt>
      <trkpt lat="48.37563" lon="5.01043">
        <ele>239.98</ele>
        <time>2025-01-03T16:15:28.812Z</time>
      </trkpt>
      <trkpt lat="48.37562" lon="5.01011">
        <ele>239.34</ele>
        <time>2025-01-03T16:15:30.781Z</time>
      </trkpt>
      <trkpt lat="48.37561" lon="5.0098">
        <ele>238.66</ele>
        <time>2025-01-03T16:15:32.753Z</time>
      </trkpt>
      <trkpt lat="48.3756" lon="5.00943">
        <ele>238.03</ele>
        <time>2025-01-03T16:15:34.729Z</time>
      </trkpt>
      <trkpt lat="48.3756" lon="5.00905">
        <ele>237.37</ele>
        <time>2025-01-03T16:15:36.709Z</time>
      </trkpt>
      <trkpt lat="48.37561" lon="5.00868">
        <ele>236.55</ele>
        <time>2025-01-03T16:15:38.693Z</time>
      </trkpt>
      <trkpt lat="48.37561" lon="5.00831">
        <ele>235.68</ele>
        <time>2025-01-03T16:15:40.681Z</time>
      </trkpt>
      <trkpt lat="48.37565" lon="5.008">
        <ele>234.94</ele>
        <time>2025-01-03T16:15:42.673Z</time>
      </trkpt>
      <trkpt lat="48.37569" lon="5.00769">
        <ele>234.23</ele>
        <time>2025-01-03T16:15:44.668Z</time>
      </trkpt>
      <trkpt lat="48.37571" lon="5.00752">
        <ele>233.52</ele>
        <time>2025-01-03T16:15:46.665Z</time>
      </trkpt>
      <trkpt lat="48.37575" lon="5.00715">
        <ele>232.78</ele>
        <time>2025-01-03T16:15:48.666Z</time>
      </trkpt>
      <trkpt lat="48.37577" lon="5.00684">
        <ele>232.03</ele>
        <time>2025-01-03T16:15:50.670Z</time>
      </trkpt>
      <trkpt lat="48.37579" lon="5.00653">
        <ele>231.3</ele>
        <time>2025-01-03T16:15:52.678Z</time>
      </trkpt>
      <trkpt lat="48.37582" lon="5.00619">
        <ele>230.61</ele>
        <time>2025-01-03T16:15:54.689Z</time>
      </trkpt>
      <trkpt lat="48.37585" lon="5.00586">
        <ele>229.94</ele>
        <time>2025-01-03T16:15:56.704Z</time>
      </trkpt>
      <trkpt lat="48.37592" lon="5.00556">
        <ele>229.32</ele>
        <time>2025-01-03T16:15:58.722Z</time>
      </trkpt>
      <trkpt lat="48.376" lon="5.00525">
        <ele>228.78</ele>
        <time>2025-01-03T16:16:00.744Z</time>
      </trkpt>
      <trkpt lat="48.37609" lon="5.00495">
        <ele>228.25</ele>
        <time>2025-01-03T16:16:02.769Z</time>
      </trkpt>
      <trkpt lat="48.37618" lon="5.00464">
        <ele>227.79</ele>
        <time>2025-01-03T16:16:04.798Z</time>
      </trkpt>
      <trkpt lat="48.37633" lon="5.00425">
        <ele>227.47</ele>
        <time>2025-01-03T16:16:06.832Z</time>
      </trkpt>
      <trkpt lat="48.3764" lon="5.00413">
        <ele>227.13</ele>
        <time>2025-01-03T16:16:08.867Z</time>
      </trkpt>
      <trkpt lat="48.37637" lon="5.00405">
        <ele>226.85</ele>
        <time>2025-01-03T16:16:10.903Z</time>
      </trkpt>
      <trkpt lat="48.37634" lon="5.00403">
        <ele>226.64</ele>
        <time>2025-01-03T16:16:12.940Z</time>
      </trkpt>
      <trkpt lat="48.37626" lon="5.00398">
        <ele>226.44</ele>
        <time>2025-01-03T16:16:14.978Z</time>
      </trkpt>
      <trkpt lat="48.37609" lon="5.0039">
        <ele>226.27</ele>
        <time>2025-01-03T16:16:17.019Z</time>
      </trkpt>
      <trkpt lat="48.37597" lon="5.00387">
        <ele>226.2</ele>
        <time>2025-01-03T16:16:19.062Z</time>
      </trkpt>
      <trkpt lat="48.37593" lon="5.00386">
        <ele>226.22</ele>
        <time>2025-01-03T16:16:21.106Z</time>
      </trkpt>
      <trkpt lat="48.37575" lon="5.00379">
        <ele>226.25</ele>
        <time>2025-01-03T16:16:23.153Z</time>
      </trkpt>
      <trkpt lat="48.37557" lon="5.00372">
        <ele>226.39</ele>
        <time>2025-01-03T16:16:25.203Z</time>
      </trkpt>
      <trkpt lat="48.37541" lon="5.00365">
        <ele>226.59</ele>
        <time>2025-01-03T16:16:27.255Z</time>
      </trkpt>
      <trkpt lat="48.37524" lon="5.00359">
        <ele>226.85</ele>
        <time>2025-01-03T16:16:29.310Z</time>
      </trkpt>
      <trkpt lat="48.37502" lon="5.00346">
        <ele>227.2</ele>
        <time>2025-01-03T16:16:31.369Z</time>
      </trkpt>
      <trkpt lat="48.37479" lon="5.0033">
        <ele>227.57</ele>
        <time>2025-01-03T16:16:33.432Z</time>
      </trkpt>
      <trkpt lat="48.37469" lon="5.00324">
        <ele>227.9</ele>
        <time>2025-01-03T16:16:35.497Z</time>
      </trkpt>
      <trkpt lat="48.37451" lon="5.00312">
        <ele>228.28</ele>
        <time>2025-01-03T16:16:37.565Z</time>
      </trkpt>
      <trkpt lat="48.37435" lon="5.00301">
        <ele>228.63</ele>
        <time>2025-01-03T16:16:39.636Z</time>
      </trkpt>
      <trkpt lat="48.37423" lon="5.00291">
        <ele>228.92</ele>
        <time>2025-01-03T16:16:41.709Z</time>
      </trkpt>
      <trkpt lat="48.37419" lon="5.00286">
        <ele>229.16</ele>
        <time>2025-01-03T16:16:43.783Z</time>
      </trkpt>
      <trkpt lat="48.37417" lon="5.00283">
        <ele>229.37</ele>
        <time>2025-01-03T16:16:45.857Z</time>
      </trkpt>
      <trkpt lat="48.37413" lon="5.00279">
        <ele>229.54</ele>
        <time>2025-01-03T16:16:47.932Z</time>
      </trkpt>
      <trkpt lat="48.37408" lon="5.00265">
        <ele>229.68</ele>
        <time>2025-01-03T16:16:50.009Z</time>
      </trkpt>
      <trkpt lat="48.37405" lon="5.00258">
        <ele>229.8</ele>
        <time>2025-01-03T16:16:52.087Z</time>
      </trkpt>
      <trkpt lat="48.37396" lon="5.00239">
        <ele>229.9</ele>
        <time>2025-01-03T16:16:54.167Z</time>
      </trkpt>
      <trkpt lat="48.3741" lon="5.00216">
        <ele>229.78</ele>
        <time>2025-01-03T16:16:56.250Z</time>
      </trkpt>
      <trkpt lat="48.3742" lon="5.00189">
        <ele>229.68</ele>
        <time>2025-01-03T16:16:58.337Z</time>
      </trkpt>
      <trkpt lat="48.37433" lon="5.00154">
        <ele>229.53</ele>
        <time>2025-01-03T16:17:00.428Z</time>
      </trkpt>
      <trkpt lat="48.37438" lon="5.00139">
        <ele>229.4</ele>
        <time>2025-01-03T16:17:02.521Z</time>
      </trkpt>
      <trkpt lat="48.37441" lon="5.00131">
        <ele>229.27</ele>
        <time>2025-01-03T16:17:04.615Z</time>
      </trkpt>
      <trkpt lat="48.37449" lon="5.0012">
        <ele>229.13</ele>
        <time>2025-01-03T16:17:06.710Z</time>
      </trkpt>
      <trkpt lat="48.37459" lon="5.00106">
        <ele>228.99</ele>
        <time>2025-01-03T16:17:08.808Z</time>
      </trkpt>
      <trkpt lat="48.37469" lon="5.00093">
        <ele>228.86</ele>
        <time>2025-01-03T16:17:10.908Z</time>
      </trkpt>
      <trkpt lat="48.37471" lon="5.00092">
        <ele>228.73</ele>
        <time>2025-01-03T16:17:13.008Z</time>
      </trkpt>
      <trkpt lat="48.37474" lon="5.00089">
        <ele>228.6</ele>
        <time>2025-01-03T16:17:15.109Z</time>
      </trkpt>
      <trkpt lat="48.37476" lon="5.00087">
        <ele>228.49</ele>
        <time>2025-01-03T16:17:17.210Z</time>
      </trkpt>
      <trkpt lat="48.37485" lon="5.0008">
        <ele>228.39</ele>
        <time>2025-01-03T16:17:19.313Z</time>
      </trkpt>
      <trkpt lat="48.37488" lon="5.00078">
        <ele>228.29</ele>
        <time>2025-01-03T16:17:21.416Z</time>
      </trkpt>
      <trkpt lat="48.3749" lon="5.00075">
        <ele>228.21</ele>
        <time>2025-01-03T16:17:23.520Z</time>
      </trkpt>
      <trkpt lat="48.37491" lon="5.00074">
        <ele>228.13</ele>
        <time>2025-01-03T16:17:25.624Z</time>
      </trkpt>
      <trkpt lat="48.37493" lon="5.00074">
        <ele>228.08</ele>
        <time>2025-01-03T16:17:27.728Z</time>
      </trkpt>
      <trkpt lat="48.37494" lon="5.00073">
        <ele>228.04</ele>
        <time>2025-01-03T16:17:29.832Z</time>
      </trkpt>
      <trkpt lat="48.37493" lon="5.00073">
        <ele>228.01</ele>
        <time>2025-01-03T16:17:31.936Z</time>
      </trkpt>
      <trkpt lat="48.37489" lon="5.00077">
        <ele>228</ele>
        <time>2025-01-03T16:17:34.041Z</time>
      </trkpt>
      <trkpt lat="48.37486" lon="5.00079">
        <ele>228.01</ele>
        <time>2025-01-03T16:17:36.147Z</time>
      </trkpt>
      <trkpt lat="48.37476" lon="5.00088">
        <ele>228.03</ele>
        <time>2025-01-03T16:17:38.254Z</time>
      </trkpt>
      <trkpt lat="48.37468" lon="5.00094">
        <ele>228.07</ele>
        <time>2025-01-03T16:17:40.363Z</time>
      </trkpt>
      <trkpt lat="48.37462" lon="5.001">
        <ele>228.14</ele>
        <time>2025-01-03T16:17:42.473Z</time>
      </trkpt>
      <trkpt lat="48.37454" lon="5.00112">
        <ele>228.23</ele>
        <time>2025-01-03T16:17:44.585Z</time>
      </trkpt>
      <trkpt lat="48.37454" lon="5.00112">
        <ele>228.32</ele>
        <time>2025-01-03T16:17:46.697Z</time>
      </trkpt>
      <trkpt lat="48.37447" lon="5.00122">
        <ele>228.44</ele>
        <time>2025-01-03T16:17:48.810Z</time>
      </trkpt>
      <trkpt lat="48.37447" lon="5.00123">
        <ele>228.55</ele>
        <time>2025-01-03T16:17:50.923Z</time>
      </trkpt>
      <trkpt lat="48.37445" lon="5.00126">
        <ele>228.68</ele>
        <time>2025-01-03T16:17:53.037Z</time>
      </trkpt>
      <trkpt lat="48.37444" lon="5.00127">
        <ele>228.81</ele>
        <time>2025-01-03T16:17:55.151Z</time>
      </trkpt>
      <trkpt lat="48.37441" lon="5.00131">
        <ele>229.27</ele>
        <time>2025-01-03T16:17:57.266Z</time>
      </trkpt>
      <trkpt lat="48.3744" lon="5.00135">
        <ele>229.07</ele>
        <time>2025-01-03T16:17:59.381Z</time>
      </trkpt>
      <trkpt lat="48.37438" lon="5.00139">
        <ele>229.19</ele>
        <time>2025-01-03T16:18:01.497Z</time>
      </trkpt>
      <trkpt lat="48.37432" lon="5.00157">
        <ele>229.35</ele>
        <time>2025-01-03T16:18:03.615Z</time>
      </trkpt>
      <trkpt lat="48.37423" lon="5.0018">
        <ele>229.5</ele>
        <time>2025-01-03T16:18:05.736Z</time>
      </trkpt>
      <trkpt lat="48.37414" lon="5.00206">
        <ele>229.58</ele>
        <time>2025-01-03T16:18:07.860Z</time>
      </trkpt>
      <trkpt lat="48.37407" lon="5.00228">
        <ele>229.73</ele>
        <time>2025-01-03T16:18:09.986Z</time>
      </trkpt>
      <trkpt lat="48.37405" lon="5.00254">
        <ele>229.72</ele>
        <time>2025-01-03T16:18:12.115Z</time>
      </trkpt>
      <trkpt lat="48.37409" lon="5.00267">
        <ele>229.66</ele>
        <time>2025-01-03T16:18:14.246Z</time>
      </trkpt>
      <trkpt lat="48.37415" lon="5.00281">
        <ele>229.58</ele>
        <time>2025-01-03T16:18:16.378Z</time>
      </trkpt>
      <trkpt lat="48.37419" lon="5.00285">
        <ele>229.47</ele>
        <time>2025-01-03T16:18:18.511Z</time>
      </trkpt>
      <trkpt lat="48.37426" lon="5.00293">
        <ele>229.33</ele>
        <time>2025-01-03T16:18:20.646Z</time>
      </trkpt>
      <trkpt lat="48.3743" lon="5.00297">
        <ele>229.17</ele>
        <time>2025-01-03T16:18:22.782Z</time>
      </trkpt>
      <trkpt lat="48.37437" lon="5.00302">
        <ele>228.97</ele>
        <time>2025-01-03T16:18:24.919Z</time>
      </trkpt>
      <trkpt lat="48.37459" lon="5.00317">
        <ele>228.69</ele>
        <time>2025-01-03T16:18:27.060Z</time>
      </trkpt>
      <trkpt lat="48.37483" lon="5.00333">
        <ele>228.39</ele>
        <time>2025-01-03T16:18:29.205Z</time>
      </trkpt>
      <trkpt lat="48.37506" lon="5.00348">
        <ele>228.1</ele>
        <time>2025-01-03T16:18:31.354Z</time>
      </trkpt>
      <trkpt lat="48.37532" lon="5.00362">
        <ele>227.84</ele>
        <time>2025-01-03T16:18:33.507Z</time>
      </trkpt>
      <trkpt lat="48.37548" lon="5.00368">
        <ele>227.65</ele>
        <time>2025-01-03T16:18:35.663Z</time>
      </trkpt>
      <trkpt lat="48.37563" lon="5.00374">
        <ele>227.52</ele>
        <time>2025-01-03T16:18:37.821Z</time>
      </trkpt>
      <trkpt lat="48.37585" lon="5.00382">
        <ele>227.45</ele>
        <time>2025-01-03T16:18:39.983Z</time>
      </trkpt>
      <trkpt lat="48.37606" lon="5.0039">
        <ele>227.46</ele>
        <time>2025-01-03T16:18:42.148Z</time>
      </trkpt>
      <trkpt lat="48.37626" lon="5.00398">
        <ele>227.53</ele>
        <time>2025-01-03T16:18:44.317Z</time>
      </trkpt>
      <trkpt lat="48.37649" lon="5.00403">
        <ele>227.62</ele>
        <time>2025-01-03T16:18:46.489Z</time>
      </trkpt>
      <trkpt lat="48.37652" lon="5.004">
        <ele>227.66</ele>
        <time>2025-01-03T16:18:48.662Z</time>
      </trkpt>
      <trkpt lat="48.37659" lon="5.00393">
        <ele>227.71</ele>
        <time>2025-01-03T16:18:50.836Z</time>
      </trkpt>
      <trkpt lat="48.37663" lon="5.00389">
        <ele>227.81</ele>
        <time>2025-01-03T16:18:53.011Z</time>
      </trkpt>
      <trkpt lat="48.37686" lon="5.00369">
        <ele>227.91</ele>
        <time>2025-01-03T16:18:55.190Z</time>
      </trkpt>
      <trkpt lat="48.37707" lon="5.00349">
        <ele>228.07</ele>
        <time>2025-01-03T16:18:57.373Z</time>
      </trkpt>
      <trkpt lat="48.37728" lon="5.0033">
        <ele>228.29</ele>
        <time>2025-01-03T16:18:59.560Z</time>
      </trkpt>
      <trkpt lat="48.37736" lon="5.00323">
        <ele>228.49</ele>
        <time>2025-01-03T16:19:01.749Z</time>
      </trkpt>
      <trkpt lat="48.37754" lon="5.0031">
        <ele>228.69</ele>
        <time>2025-01-03T16:19:03.941Z</time>
      </trkpt>
      <trkpt lat="48.37775" lon="5.00301">
        <ele>228.88</ele>
        <time>2025-01-03T16:19:06.137Z</time>
      </trkpt>
      <trkpt lat="48.37796" lon="5.00293">
        <ele>229.15</ele>
        <time>2025-01-03T16:19:08.336Z</time>
      </trkpt>
      <trkpt lat="48.37816" lon="5.00284">
        <ele>229.47</ele>
        <time>2025-01-03T16:19:10.538Z</time>
      </trkpt>
      <trkpt lat="48.37836" lon="5.00276">
        <ele>229.81</ele>
        <time>2025-01-03T16:19:12.744Z</time>
      </trkpt>
      <trkpt lat="48.3786" lon="5.00266">
        <ele>230.17</ele>
        <time>2025-01-03T16:19:14.954Z</time>
      </trkpt>
      <trkpt lat="48.37883" lon="5.00256">
        <ele>230.46</ele>
        <time>2025-01-03T16:19:17.168Z</time>
      </trkpt>
      <trkpt lat="48.37906" lon="5.00246">
        <ele>230.73</ele>
        <time>2025-01-03T16:19:19.385Z</time>
      </trkpt>
      <trkpt lat="48.37928" lon="5.00236">
        <ele>231.01</ele>
        <time>2025-01-03T16:19:21.606Z</time>
      </trkpt>
      <trkpt lat="48.37945" lon="5.00219">
        <ele>231.25</ele>
        <time>2025-01-03T16:19:23.830Z</time>
      </trkpt>
      <trkpt lat="48.37963" lon="5.00202">
        <ele>231.53</ele>
        <time>2025-01-03T16:19:26.058Z</time>
      </trkpt>
      <trkpt lat="48.37975" lon="5.00182">
        <ele>231.66</ele>
        <time>2025-01-03T16:19:28.289Z</time>
      </trkpt>
      <trkpt lat="48.37987" lon="5.00163">
        <ele>231.79</ele>
        <time>2025-01-03T16:19:30.522Z</time>
      </trkpt>
      <trkpt lat="48.38002" lon="5.00138">
        <ele>231.87</ele>
        <time>2025-01-03T16:19:32.759Z</time>
      </trkpt>
      <trkpt lat="48.38016" lon="5.00114">
        <ele>231.92</ele>
        <time>2025-01-03T16:19:34.999Z</time>
      </trkpt>
      <trkpt lat="48.38035" lon="5.00082">
        <ele>231.78</ele>
        <time>2025-01-03T16:19:37.244Z</time>
      </trkpt>
      <trkpt lat="48.38053" lon="5.0005">
        <ele>231.64</ele>
        <time>2025-01-03T16:19:39.493Z</time>
      </trkpt>
      <trkpt lat="48.38057" lon="5.00043">
        <ele>231.53</ele>
        <time>2025-01-03T16:19:41.743Z</time>
      </trkpt>
      <trkpt lat="48.38075" lon="5.00012">
        <ele>231.31</ele>
        <time>2025-01-03T16:19:43.998Z</time>
      </trkpt>
      <trkpt lat="48.38093" lon="4.99981">
        <ele>231.03</ele>
        <time>2025-01-03T16:19:46.257Z</time>
      </trkpt>
      <trkpt lat="48.38109" lon="4.99955">
        <ele>230.8</ele>
        <time>2025-01-03T16:19:48.520Z</time>
      </trkpt>
      <trkpt lat="48.38124" lon="4.99928">
        <ele>230.58</ele>
        <time>2025-01-03T16:19:50.787Z</time>
      </trkpt>
      <trkpt lat="48.38137" lon="4.99907">
        <ele>230.35</ele>
        <time>2025-01-03T16:19:53.057Z</time>
      </trkpt>
      <trkpt lat="48.38149" lon="4.99885">
        <ele>230.11</ele>
        <time>2025-01-03T16:19:55.330Z</time>
      </trkpt>
      <trkpt lat="48.38163" lon="4.99862">
        <ele>229.86</ele>
        <time>2025-01-03T16:19:57.606Z</time>
      </trkpt>
      <trkpt lat="48.38176" lon="4.99839">
        <ele>229.64</ele>
        <time>2025-01-03T16:19:59.885Z</time>
      </trkpt>
      <trkpt lat="48.38188" lon="4.99819">
        <ele>229.45</ele>
        <time>2025-01-03T16:20:02.167Z</time>
      </trkpt>
      <trkpt lat="48.382" lon="4.99798">
        <ele>229.29</ele>
        <time>2025-01-03T16:20:04.452Z</time>
      </trkpt>
      <trkpt lat="48.38215" lon="4.99771">
        <ele>229.08</ele>
        <time>2025-01-03T16:20:06.741Z</time>
      </trkpt>
      <trkpt lat="48.38231" lon="4.99745">
        <ele>228.93</ele>
        <time>2025-01-03T16:20:09.034Z</time>
      </trkpt>
      <trkpt lat="48.38246" lon="4.99718">
        <ele>228.79</ele>
        <time>2025-01-03T16:20:11.330Z</time>
      </trkpt>
      <trkpt lat="48.38254" lon="4.99704">
        <ele>228.64</ele>
        <time>2025-01-03T16:20:13.628Z</time>
      </trkpt>
      <trkpt lat="48.38269" lon="4.99678">
        <ele>228.47</ele>
        <time>2025-01-03T16:20:15.930Z</time>
      </trkpt>
      <trkpt lat="48.38276" lon="4.99666">
        <ele>228.35</ele>
        <time>2025-01-03T16:20:18.234Z</time>
      </trkpt>
      <trkpt lat="48.38286" lon="4.99632">
        <ele>228.23</ele>
        <time>2025-01-03T16:20:20.542Z</time>
      </trkpt>
      <trkpt lat="48.38288" lon="4.99625">
        <ele>228.08</ele>
        <time>2025-01-03T16:20:22.851Z</time>
      </trkpt>
      <trkpt lat="48.38293" lon="4.99608">
        <ele>227.92</ele>
        <time>2025-01-03T16:20:25.161Z</time>
      </trkpt>
      <trkpt lat="48.38307" lon="4.99578">
        <ele>227.77</ele>
        <time>2025-01-03T16:20:27.475Z</time>
      </trkpt>
      <trkpt lat="48.38311" lon="4.99567">
        <ele>227.59</ele>
        <time>2025-01-03T16:20:29.791Z</time>
      </trkpt>
      <trkpt lat="48.38321" lon="4.99551">
        <ele>227.39</ele>
        <time>2025-01-03T16:20:32.109Z</time>
      </trkpt>
      <trkpt lat="48.38333" lon="4.99535">
        <ele>227.19</ele>
        <time>2025-01-03T16:20:34.430Z</time>
      </trkpt>
      <trkpt lat="48.38345" lon="4.99519">
        <ele>226.99</ele>
        <time>2025-01-03T16:20:36.753Z</time>
      </trkpt>
      <trkpt lat="48.38368" lon="4.9949">
        <ele>226.72</ele>
        <time>2025-01-03T16:20:39.081Z</time>
      </trkpt>
      <trkpt lat="48.38375" lon="4.99478">
        <ele>226.41</ele>
        <time>2025-01-03T16:20:41.411Z</time>
      </trkpt>
      <trkpt lat="48.38394" lon="4.99445">
        <ele>226.06</ele>
        <time>2025-01-03T16:20:43.745Z</time>
      </trkpt>
      <trkpt lat="48.38409" lon="4.9942">
        <ele>225.72</ele>
        <time>2025-01-03T16:20:46.083Z</time>
      </trkpt>
      <trkpt lat="48.38411" lon="4.99416">
        <ele>225.33</ele>
        <time>2025-01-03T16:20:48.422Z</time>
      </trkpt>
      <trkpt lat="48.38404" lon="4.99408">
        <ele>224.85</ele>
        <time>2025-01-03T16:20:50.762Z</time>
      </trkpt>
      <trkpt lat="48.3838" lon="4.9939">
        <ele>224.2</ele>
        <time>2025-01-03T16:20:53.106Z</time>
      </trkpt>
      <trkpt lat="48.38363" lon="4.99371">
        <ele>223.6</ele>
        <time>2025-01-03T16:20:55.454Z</time>
      </trkpt>
      <trkpt lat="48.38357" lon="4.99367">
        <ele>223.12</ele>
        <time>2025-01-03T16:20:57.803Z</time>
      </trkpt>
      <trkpt lat="48.38354" lon="4.99364">
        <ele>222.65</ele>
        <time>2025-01-03T16:21:00.152Z</time>
      </trkpt>
      <trkpt lat="48.38353" lon="4.99363">
        <ele>222.21</ele>
        <time>2025-01-03T16:21:02.502Z</time>
      </trkpt>
      <trkpt lat="48.38344" lon="4.99353">
        <ele>221.74</ele>
        <time>2025-01-03T16:21:04.853Z</time>
      </trkpt>
      <trkpt lat="48.38324" lon="4.99332">
        <ele>221.29</ele>
        <time>2025-01-03T16:21:07.208Z</time>
      </trkpt>
      <trkpt lat="48.3831" lon="4.99317">
        <ele>220.91</ele>
        <time>2025-01-03T16:21:09.566Z</time>
      </trkpt>
      <trkpt lat="48.38297" lon="4.99303">
        <ele>220.55</ele>
        <time>2025-01-03T16:21:11.927Z</time>
      </trkpt>
      <trkpt lat="48.38278" lon="4.99288">
        <ele>220.22</ele>
        <time>2025-01-03T16:21:14.291Z</time>
      </trkpt>
      <trkpt lat="48.38254" lon="4.99271">
        <ele>219.92</ele>
        <time>2025-01-03T16:21:16.659Z</time>
      </trkpt>
      <trkpt lat="48.38234" lon="4.99256">
        <ele>219.68</ele>
        <time>2025-01-03T16:21:19.031Z</time>
      </trkpt>
      <trkpt lat="48.3822" lon="4.99245">
        <ele>219.47</ele>
        <time>2025-01-03T16:21:21.405Z</time>
      </trkpt>
      <trkpt lat="48.3821" lon="4.99239">
        <ele>219.31</ele>
        <time>2025-01-03T16:21:23.781Z</time>
      </trkpt>
      <trkpt lat="48.38205" lon="4.99252">
        <ele>219.13</ele>
        <time>2025-01-03T16:21:26.159Z</time>
      </trkpt>
      <trkpt lat="48.38205" lon="4.99252">
        <ele>219</ele>
        <time>2025-01-03T16:21:28.537Z</time>
      </trkpt>
      <trkpt lat="48.38214" lon="4.99242">
        <ele>218.91</ele>
        <time>2025-01-03T16:21:30.917Z</time>
      </trkpt>
      <trkpt lat="48.38221" lon="4.99246">
        <ele>218.84</ele>
        <time>2025-01-03T16:21:33.298Z</time>
      </trkpt>
      <trkpt lat="48.3823" lon="4.99262">
        <ele>218.8</ele>
        <time>2025-01-03T16:21:35.681Z</time>
      </trkpt>
      <trkpt lat="48.38223" lon="4.99277">
        <ele>218.82</ele>
        <time>2025-01-03T16:21:38.066Z</time>
      </trkpt>
      <trkpt lat="48.38206" lon="4.99312">
        <ele>218.85</ele>
        <time>2025-01-03T16:21:40.456Z</time>
      </trkpt>
      <trkpt lat="48.38199" lon="4.99333">
        <ele>218.96</ele>
        <time>2025-01-03T16:21:42.848Z</time>
      </trkpt>
      <trkpt lat="48.38196" lon="4.99345">
        <ele>219.08</ele>
        <time>2025-01-03T16:21:45.241Z</time>
      </trkpt>
      <trkpt lat="48.38196" lon="4.99351">
        <ele>219.26</ele>
        <time>2025-01-03T16:21:47.635Z</time>
      </trkpt>
      <trkpt lat="48.38196" lon="4.99376">
        <ele>219.54</ele>
        <time>2025-01-03T16:21:50.032Z</time>
      </trkpt>
      <trkpt lat="48.382" lon="4.99404">
        <ele>219.8</ele>
        <time>2025-01-03T16:21:52.432Z</time>
      </trkpt>
      <trkpt lat="48.38202" lon="4.99416">
        <ele>220.12</ele>
        <time>2025-01-03T16:21:54.833Z</time>
      </trkpt>
      <trkpt lat="48.38206" lon="4.99435">
        <ele>220.46</ele>
        <time>2025-01-03T16:21:57.236Z</time>
      </trkpt>
      <trkpt lat="48.38216" lon="4.99455">
        <ele>220.83</ele>
        <time>2025-01-03T16:21:59.642Z</time>
      </trkpt>
      <trkpt lat="48.38238" lon="4.99485">
        <ele>221.22</ele>
        <time>2025-01-03T16:22:02.053Z</time>
      </trkpt>
      <trkpt lat="48.38251" lon="4.99503">
        <ele>221.68</ele>
        <time>2025-01-03T16:22:04.466Z</time>
      </trkpt>
      <trkpt lat="48.38263" lon="4.9952">
        <ele>222.2</ele>
        <time>2025-01-03T16:22:06.882Z</time>
      </trkpt>
      <trkpt lat="48.38276" lon="4.99538">
        <ele>222.75</ele>
        <time>2025-01-03T16:22:09.301Z</time>
      </trkpt>
      <trkpt lat="48.38293" lon="4.99561">
        <ele>223.33</ele>
        <time>2025-01-03T16:22:11.724Z</time>
      </trkpt>
      <trkpt lat="48.38296" lon="4.99566">
        <ele>223.8</ele>
        <time>2025-01-03T16:22:14.147Z</time>
      </trkpt>
      <trkpt lat="48.38298" lon="4.99569">
        <ele>224.26</ele>
        <time>2025-01-03T16:22:16.571Z</time>
      </trkpt>
      <trkpt lat="48.38301" lon="4.99573">
        <ele>224.71</ele>
        <time>2025-01-03T16:22:18.995Z</time>
      </trkpt>
      <trkpt lat="48.38303" lon="4.99586">
        <ele>225.16</ele>
        <time>2025-01-03T16:22:21.421Z</time>
      </trkpt>
      <trkpt lat="48.383" lon="4.99592">
        <ele>225.56</ele>
        <time>2025-01-03T16:22:23.848Z</time>
      </trkpt>
      <trkpt lat="48.38298" lon="4.99596">
        <ele>225.94</ele>
        <time>2025-01-03T16:22:26.275Z</time>
      </trkpt>
      <trkpt lat="48.38296" lon="4.99602">
        <ele>226.3</ele>
        <time>2025-01-03T16:22:28.703Z</time>
      </trkpt>
      <trkpt lat="48.38289" lon="4.9962">
        <ele>226.63</ele>
        <time>2025-01-03T16:22:31.133Z</time>
      </trkpt>
      <trkpt lat="48.3828" lon="4.99657">
        <ele>226.97</ele>
        <time>2025-01-03T16:22:33.567Z</time>
      </trkpt>
      <trkpt lat="48.38274" lon="4.9967">
        <ele>227.25</ele>
        <time>2025-01-03T16:22:36.003Z</time>
      </trkpt>
      <trkpt lat="48.38268" lon="4.9968">
        <ele>227.54</ele>
        <time>2025-01-03T16:22:38.440Z</time>
      </trkpt>
      <trkpt lat="48.38256" lon="4.99702">
        <ele>227.86</ele>
        <time>2025-01-03T16:22:40.880Z</time>
      </trkpt>
      <trkpt lat="48.38243" lon="4.99724">
        <ele>228.15</ele>
        <time>2025-01-03T16:22:43.324Z</time>
      </trkpt>
      <trkpt lat="48.38232" lon="4.99743">
        <ele>228.41</ele>
        <time>2025-01-03T16:22:45.770Z</time>
      </trkpt>
      <trkpt lat="48.38221" lon="4.99762">
        <ele>228.69</ele>
        <time>2025-01-03T16:22:48.219Z</time>
      </trkpt>
      <trkpt lat="48.3821" lon="4.99781">
        <ele>228.92</ele>
        <time>2025-01-03T16:22:50.671Z</time>
      </trkpt>
      <trkpt lat="48.38199" lon="4.998">
        <ele>229.24</ele>
        <time>2025-01-03T16:22:53.125Z</time>
      </trkpt>
      <trkpt lat="48.38186" lon="4.99821">
        <ele>229.48</ele>
        <time>2025-01-03T16:22:55.582Z</time>
      </trkpt>
      <trkpt lat="48.38173" lon="4.99843">
        <ele>229.75</ele>
        <time>2025-01-03T16:22:58.042Z</time>
      </trkpt>
      <trkpt lat="48.3816" lon="4.99867">
        <ele>230.01</ele>
        <time>2025-01-03T16:23:00.506Z</time>
      </trkpt>
      <trkpt lat="48.38146" lon="4.9989">
        <ele>230.32</ele>
        <time>2025-01-03T16:23:02.973Z</time>
      </trkpt>
      <trkpt lat="48.38133" lon="4.99913">
        <ele>230.59</ele>
        <time>2025-01-03T16:23:05.443Z</time>
      </trkpt>
      <trkpt lat="48.3812" lon="4.99935">
        <ele>230.85</ele>
        <time>2025-01-03T16:23:07.916Z</time>
      </trkpt>
      <trkpt lat="48.38106" lon="4.99959">
        <ele>231.08</ele>
        <time>2025-01-03T16:23:10.393Z</time>
      </trkpt>
      <trkpt lat="48.38092" lon="4.99983">
        <ele>231.31</ele>
        <time>2025-01-03T16:23:12.873Z</time>
      </trkpt>
      <trkpt lat="48.3808" lon="5.00004">
        <ele>231.58</ele>
        <time>2025-01-03T16:23:15.356Z</time>
      </trkpt>
      <trkpt lat="48.38068" lon="5.00024">
        <ele>231.77</ele>
        <time>2025-01-03T16:23:17.842Z</time>
      </trkpt>
      <trkpt lat="48.38065" lon="5.0003">
        <ele>231.89</ele>
        <time>2025-01-03T16:23:20.329Z</time>
      </trkpt>
      <trkpt lat="48.38054" lon="5.00049">
        <ele>231.96</ele>
        <time>2025-01-03T16:23:22.819Z</time>
      </trkpt>
      <trkpt lat="48.38043" lon="5.00067">
        <ele>232.01</ele>
        <time>2025-01-03T16:23:25.311Z</time>
      </trkpt>
      <trkpt lat="48.38024" lon="5.001">
        <ele>232.1</ele>
        <time>2025-01-03T16:23:27.808Z</time>
      </trkpt>
      <trkpt lat="48.38005" lon="5.00132">
        <ele>232.01</ele>
        <time>2025-01-03T16:23:30.309Z</time>
      </trkpt>
      <trkpt lat="48.38002" lon="5.00139">
        <ele>231.88</ele>
        <time>2025-01-03T16:23:32.811Z</time>
      </trkpt>
      <trkpt lat="48.37988" lon="5.00163">
        <ele>231.69</ele>
        <time>2025-01-03T16:23:35.317Z</time>
      </trkpt>
      <trkpt lat="48.37973" lon="5.00186">
        <ele>231.43</ele>
        <time>2025-01-03T16:23:37.826Z</time>
      </trkpt>
      <trkpt lat="48.37959" lon="5.00205">
        <ele>231.18</ele>
        <time>2025-01-03T16:23:40.338Z</time>
      </trkpt>
      <trkpt lat="48.37944" lon="5.00224">
        <ele>230.82</ele>
        <time>2025-01-03T16:23:42.853Z</time>
      </trkpt>
      <trkpt lat="48.37924" lon="5.00236">
        <ele>230.49</ele>
        <time>2025-01-03T16:23:45.372Z</time>
      </trkpt>
      <trkpt lat="48.37904" lon="5.00248">
        <ele>230.14</ele>
        <time>2025-01-03T16:23:47.894Z</time>
      </trkpt>
      <trkpt lat="48.37876" lon="5.00259">
        <ele>229.81</ele>
        <time>2025-01-03T16:23:50.421Z</time>
      </trkpt>
      <trkpt lat="48.37848" lon="5.00271">
        <ele>229.43</ele>
        <time>2025-01-03T16:23:52.952Z</time>
      </trkpt>
      <trkpt lat="48.37836" lon="5.00276">
        <ele>229.09</ele>
        <time>2025-01-03T16:23:55.485Z</time>
      </trkpt>
      <trkpt lat="48.37809" lon="5.00288">
        <ele>228.73</ele>
        <time>2025-01-03T16:23:58.023Z</time>
      </trkpt>
      <trkpt lat="48.37781" lon="5.00299">
        <ele>228.44</ele>
        <time>2025-01-03T16:24:00.566Z</time>
      </trkpt>
      <trkpt lat="48.37762" lon="5.00307">
        <ele>228.28</ele>
        <time>2025-01-03T16:24:03.112Z</time>
      </trkpt>
      <trkpt lat="48.3774" lon="5.00323">
        <ele>228.14</ele>
        <time>2025-01-03T16:24:05.662Z</time>
      </trkpt>
      <trkpt lat="48.37718" lon="5.00339">
        <ele>228.01</ele>
        <time>2025-01-03T16:24:08.216Z</time>
      </trkpt>
      <trkpt lat="48.37694" lon="5.00361">
        <ele>227.91</ele>
        <time>2025-01-03T16:24:10.774Z</time>
      </trkpt>
      <trkpt lat="48.3767" lon="5.00383">
        <ele>227.88</ele>
        <time>2025-01-03T16:24:13.337Z</time>
      </trkpt>
      <trkpt lat="48.37654" lon="5.004">
        <ele>227.99</ele>
        <time>2025-01-03T16:24:15.903Z</time>
      </trkpt>
      <trkpt lat="48.37638" lon="5.00417">
        <ele>228.1</ele>
        <time>2025-01-03T16:24:18.472Z</time>
      </trkpt>
      <trkpt lat="48.37634" lon="5.00425">
        <ele>228.27</ele>
        <time>2025-01-03T16:24:21.042Z</time>
      </trkpt>
      <trkpt lat="48.37624" lon="5.00449">
        <ele>228.46</ele>
        <time>2025-01-03T16:24:23.615Z</time>
      </trkpt>
      <trkpt lat="48.37615" lon="5.00472">
        <ele>228.72</ele>
        <time>2025-01-03T16:24:26.191Z</time>
      </trkpt>
      <trkpt lat="48.37604" lon="5.00512">
        <ele>229.13</ele>
        <time>2025-01-03T16:24:28.771Z</time>
      </trkpt>
      <trkpt lat="48.37594" lon="5.00551">
        <ele>229.57</ele>
        <time>2025-01-03T16:24:31.356Z</time>
      </trkpt>
      <trkpt lat="48.37588" lon="5.00584">
        <ele>230.09</ele>
        <time>2025-01-03T16:24:33.945Z</time>
      </trkpt>
      <trkpt lat="48.37582" lon="5.00616">
        <ele>230.64</ele>
        <time>2025-01-03T16:24:36.537Z</time>
      </trkpt>
      <trkpt lat="48.37579" lon="5.00652">
        <ele>231.25</ele>
        <time>2025-01-03T16:24:39.133Z</time>
      </trkpt>
      <trkpt lat="48.37577" lon="5.00687">
        <ele>231.91</ele>
        <time>2025-01-03T16:24:41.733Z</time>
      </trkpt>
      <trkpt lat="48.37574" lon="5.00725">
        <ele>232.59</ele>
        <time>2025-01-03T16:24:44.337Z</time>
      </trkpt>
      <trkpt lat="48.3757" lon="5.00762">
        <ele>233.27</ele>
        <time>2025-01-03T16:24:46.945Z</time>
      </trkpt>
      <trkpt lat="48.37566" lon="5.0079">
        <ele>233.91</ele>
        <time>2025-01-03T16:24:49.556Z</time>
      </trkpt>
      <trkpt lat="48.37563" lon="5.00818">
        <ele>234.59</ele>
        <time>2025-01-03T16:24:52.170Z</time>
      </trkpt>
      <trkpt lat="48.37561" lon="5.00847">
        <ele>235.38</ele>
        <time>2025-01-03T16:24:54.787Z</time>
      </trkpt>
      <trkpt lat="48.3756" lon="5.00886">
        <ele>236.24</ele>
        <time>2025-01-03T16:24:57.408Z</time>
      </trkpt>
      <trkpt lat="48.3756" lon="5.00916">
        <ele>236.99</ele>
        <time>2025-01-03T16:25:00.032Z</time>
      </trkpt>
      <trkpt lat="48.3756" lon="5.00949">
        <ele>237.62</ele>
        <time>2025-01-03T16:25:02.660Z</time>
      </trkpt>
      <trkpt lat="48.37561" lon="5.00982">
        <ele>238.26</ele>
        <time>2025-01-03T16:25:05.291Z</time>
      </trkpt>
      <trkpt lat="48.37564" lon="5.01022">
        <ele>239</ele>
        <time>2025-01-03T16:25:07.927Z</time>
      </trkpt>
      <trkpt lat="48.37568" lon="5.01062">
        <ele>239.73</ele>
        <time>2025-01-03T16:25:10.567Z</time>
      </trkpt>
      <trkpt lat="48.37574" lon="5.01088">
        <ele>240.45</ele>
        <time>2025-01-03T16:25:13.210Z</time>
      </trkpt>
      <trkpt lat="48.37581" lon="5.01114">
        <ele>240.99</ele>
        <time>2025-01-03T16:25:15.856Z</time>
      </trkpt>
      <trkpt lat="48.37588" lon="5.01142">
        <ele>241.38</ele>
        <time>2025-01-03T16:25:18.505Z</time>
      </trkpt>
      <trkpt lat="48.37594" lon="5.0117">
        <ele>241.69</ele>
        <time>2025-01-03T16:25:21.157Z</time>
      </trkpt>
      <trkpt lat="48.37604" lon="5.01208">
        <ele>242.02</ele>
        <time>2025-01-03T16:25:23.814Z</time>
      </trkpt>
      <trkpt lat="48.37606" lon="5.01217">
        <ele>242.39</ele>
        <time>2025-01-03T16:25:26.472Z</time>
      </trkpt>
      <trkpt lat="48.37611" lon="5.01241">
        <ele>242.74</ele>
        <time>2025-01-03T16:25:29.132Z</time>
      </trkpt>
      <trkpt lat="48.37615" lon="5.01264">
        <ele>243.08</ele>
        <time>2025-01-03T16:25:31.795Z</time>
      </trkpt>
      <trkpt lat="48.37619" lon="5.0129">
        <ele>243.3</ele>
        <time>2025-01-03T16:25:34.461Z</time>
      </trkpt>
      <trkpt lat="48.37623" lon="5.01316">
        <ele>243.53</ele>
        <time>2025-01-03T16:25:37.130Z</time>
      </trkpt>
      <trkpt lat="48.37628" lon="5.01352">
        <ele>243.73</ele>
        <time>2025-01-03T16:25:39.802Z</time>
      </trkpt>
      <trkpt lat="48.37632" lon="5.01389">
        <ele>243.75</ele>
        <time>2025-01-03T16:25:42.478Z</time>
      </trkpt>
      <trkpt lat="48.37634" lon="5.01408">
        <ele>243.64</ele>
        <time>2025-01-03T16:25:45.157Z</time>
      </trkpt>
      <trkpt lat="48.37636" lon="5.01436">
        <ele>243.43</ele>
        <time>2025-01-03T16:25:47.839Z</time>
      </trkpt>
      <trkpt lat="48.37636" lon="5.01469">
        <ele>243.09</ele>
        <time>2025-01-03T16:25:50.524Z</time>
      </trkpt>
      <trkpt lat="48.37636" lon="5.01501">
        <ele>242.73</ele>
        <time>2025-01-03T16:25:53.213Z</time>
      </trkpt>
      <trkpt lat="48.37636" lon="5.01539">
        <ele>242.31</ele>
        <time>2025-01-03T16:25:55.906Z</time>
      </trkpt>
      <trkpt lat="48.37636" lon="5.01576">
        <ele>241.79</ele>
        <time>2025-01-03T16:25:58.602Z</time>
      </trkpt>
      <trkpt lat="48.37635" lon="5.01615">
        <ele>241.18</ele>
        <time>2025-01-03T16:26:01.303Z</time>
      </trkpt>
      <trkpt lat="48.37635" lon="5.01653">
        <ele>240.52</ele>
        <time>2025-01-03T16:26:04.008Z</time>
      </trkpt>
      <trkpt lat="48.37633" lon="5.01685">
        <ele>239.87</ele>
        <time>2025-01-03T16:26:06.716Z</time>
      </trkpt>
      <trkpt lat="48.37632" lon="5.01716">
        <ele>239.12</ele>
        <time>2025-01-03T16:26:09.427Z</time>
      </trkpt>
      <trkpt lat="48.37626" lon="5.01752">
        <ele>238.22</ele>
        <time>2025-01-03T16:26:12.142Z</time>
      </trkpt>
      <trkpt lat="48.37621" lon="5.01788">
        <ele>237.29</ele>
        <time>2025-01-03T16:26:14.861Z</time>
      </trkpt>
      <trkpt lat="48.37613" lon="5.01818">
        <ele>236.37</ele>
        <time>2025-01-03T16:26:17.584Z</time>
      </trkpt>
      <trkpt lat="48.37605" lon="5.01848">
        <ele>235.52</ele>
        <time>2025-01-03T16:26:20.310Z</time>
      </trkpt>
      <trkpt lat="48.37598" lon="5.01876">
        <ele>234.88</ele>
        <time>2025-01-03T16:26:23.039Z</time>
      </trkpt>
      <trkpt lat="48.37591" lon="5.01905">
        <ele>234.25</ele>
        <time>2025-01-03T16:26:25.772Z</time>
      </trkpt>
      <trkpt lat="48.37583" lon="5.01936">
        <ele>233.76</ele>
        <time>2025-01-03T16:26:28.508Z</time>
      </trkpt>
      <trkpt lat="48.37575" lon="5.01968">
        <ele>233.21</ele>
        <time>2025-01-03T16:26:31.248Z</time>
      </trkpt>
      <trkpt lat="48.37569" lon="5.01997">
        <ele>232.75</ele>
        <time>2025-01-03T16:26:33.991Z</time>
      </trkpt>
      <trkpt lat="48.37563" lon="5.02026">
        <ele>232.36</ele>
        <time>2025-01-03T16:26:36.737Z</time>
      </trkpt>
      <trkpt lat="48.37556" lon="5.02059">
        <ele>232.13</ele>
        <time>2025-01-03T16:26:39.487Z</time>
      </trkpt>
      <trkpt lat="48.3755" lon="5.02091">
        <ele>231.99</ele>
        <time>2025-01-03T16:26:42.241Z</time>
      </trkpt>
      <trkpt lat="48.37546" lon="5.02116">
        <ele>231.87</ele>
        <time>2025-01-03T16:26:44.997Z</time>
      </trkpt>
      <trkpt lat="48.37543" lon="5.0214">
        <ele>231.82</ele>
        <time>2025-01-03T16:26:47.756Z</time>
      </trkpt>
      <trkpt lat="48.37543" lon="5.02175">
        <ele>231.91</ele>
        <time>2025-01-03T16:26:50.519Z</time>
      </trkpt>
      <trkpt lat="48.37543" lon="5.02209">
        <ele>232.05</ele>
        <time>2025-01-03T16:26:53.285Z</time>
      </trkpt>
      <trkpt lat="48.37546" lon="5.02237">
        <ele>232.24</ele>
        <time>2025-01-03T16:26:56.054Z</time>
      </trkpt>
      <trkpt lat="48.37549" lon="5.02265">
        <ele>232.54</ele>
        <time>2025-01-03T16:26:58.826Z</time>
      </trkpt>
      <trkpt lat="48.37552" lon="5.0229">
        <ele>232.84</ele>
        <time>2025-01-03T16:27:01.601Z</time>
      </trkpt>
      <trkpt lat="48.37555" lon="5.02316">
        <ele>233.19</ele>
        <time>2025-01-03T16:27:04.379Z</time>
      </trkpt>
      <trkpt lat="48.37558" lon="5.02346">
        <ele>233.6</ele>
        <time>2025-01-03T16:27:07.160Z</time>
      </trkpt>
      <trkpt lat="48.37561" lon="5.02376">
        <ele>234.04</ele>
        <time>2025-01-03T16:27:09.944Z</time>
      </trkpt>
      <trkpt lat="48.37563" lon="5.02389">
        <ele>234.51</ele>
        <time>2025-01-03T16:27:12.730Z</time>
      </trkpt>
      <trkpt lat="48.37566" lon="5.02414">
        <ele>235.02</ele>
        <time>2025-01-03T16:27:15.518Z</time>
      </trkpt>
      <trkpt lat="48.37569" lon="5.02442">
        <ele>235.52</ele>
        <time>2025-01-03T16:27:18.309Z</time>
      </trkpt>
      <trkpt lat="48.37572" lon="5.02469">
        <ele>236.01</ele>
        <time>2025-01-03T16:27:21.103Z</time>
      </trkpt>
      <trkpt lat="48.37575" lon="5.02498">
        <ele>236.49</ele>
        <time>2025-01-03T16:27:23.901Z</time>
      </trkpt>
      <trkpt lat="48.37578" lon="5.02526">
        <ele>236.95</ele>
        <time>2025-01-03T16:27:26.702Z</time>
      </trkpt>
      <trkpt lat="48.37589" lon="5.02549">
        <ele>237.46</ele>
        <time>2025-01-03T16:27:29.506Z</time>
      </trkpt>
      <trkpt lat="48.37605" lon="5.02584">
        <ele>237.98</ele>
        <time>2025-01-03T16:27:32.314Z</time>
      </trkpt>
      <trkpt lat="48.37615" lon="5.02605">
        <ele>238.41</ele>
        <time>2025-01-03T16:27:35.125Z</time>
      </trkpt>
      <trkpt lat="48.37625" lon="5.02626">
        <ele>238.79</ele>
        <time>2025-01-03T16:27:37.939Z</time>
      </trkpt>
      <trkpt lat="48.37632" lon="5.02651">
        <ele>239.1</ele>
        <time>2025-01-03T16:27:40.756Z</time>
      </trkpt>
      <trkpt lat="48.37635" lon="5.02678">
        <ele>239.35</ele>
        <time>2025-01-03T16:27:43.575Z</time>
      </trkpt>
      <trkpt lat="48.37635" lon="5.02699">
        <ele>239.57</ele>
        <time>2025-01-03T16:27:46.397Z</time>
      </trkpt>
      <trkpt lat="48.37636" lon="5.0272">
        <ele>239.75</ele>
        <time>2025-01-03T16:27:49.221Z</time>
      </trkpt>
      <trkpt lat="48.37637" lon="5.02764">
        <ele>239.91</ele>
        <time>2025-01-03T16:27:52.050Z</time>
      </trkpt>
      <trkpt lat="48.37638" lon="5.02778">
        <ele>240.11</ele>
        <time>2025-01-03T16:27:54.880Z</time>
      </trkpt>
      <trkpt lat="48.37639" lon="5.02801">
        <ele>240.32</ele>
        <time>2025-01-03T16:27:57.713Z</time>
      </trkpt>
      <trkpt lat="48.37639" lon="5.02803">
        <ele>240.46</ele>
        <time>2025-01-03T16:28:00.546Z</time>
      </trkpt>
      <trkpt lat="48.37641" lon="5.02806">
        <ele>240.58</ele>
        <time>2025-01-03T16:28:03.379Z</time>
      </trkpt>
      <trkpt lat="48.37642" lon="5.02808">
        <ele>240.69</ele>
        <time>2025-01-03T16:28:06.213Z</time>
      </trkpt>
      <trkpt lat="48.37643" lon="5.0281">
        <ele>240.78</ele>
        <time>2025-01-03T16:28:09.047Z</time>
      </trkpt>
      <trkpt lat="48.37645" lon="5.02813">
        <ele>240.87</ele>
        <time>2025-01-03T16:28:11.881Z</time>
      </trkpt>
      <trkpt lat="48.37651" lon="5.02816">
        <ele>240.94</ele>
        <time>2025-01-03T16:28:14.716Z</time>
      </trkpt>
      <trkpt lat="48.37678" lon="5.02825">
        <ele>241.03</ele>
        <time>2025-01-03T16:28:17.556Z</time>
      </trkpt>
      <trkpt lat="48.37706" lon="5.02835">
        <ele>241.19</ele>
        <time>2025-01-03T16:28:20.400Z</time>
      </trkpt>
      <trkpt lat="48.37718" lon="5.02839">
        <ele>241.29</ele>
        <time>2025-01-03T16:28:23.246Z</time>
      </trkpt>
      <trkpt lat="48.37718" lon="5.0284">
        <ele>241.39</ele>
        <time>2025-01-03T16:28:26.092Z</time>
      </trkpt>
      <trkpt lat="48.37719" lon="5.0284">
        <ele>241.5</ele>
        <time>2025-01-03T16:28:28.938Z</time>
      </trkpt>
      <trkpt lat="48.3772" lon="5.0284">
        <ele>241.65</ele>
        <time>2025-01-03T16:28:31.785Z</time>
      </trkpt>
      <trkpt lat="48.37725" lon="5.02826">
        <ele>241.7</ele>
        <time>2025-01-03T16:28:34.633Z</time>
      </trkpt>
      <trkpt lat="48.37726" lon="5.02824">
        <ele>241.88</ele>
        <time>2025-01-03T16:28:37.482Z</time>
      </trkpt>
      <trkpt lat="48.37728" lon="5.02813">
        <ele>242.11</ele>
        <time>2025-01-03T16:28:40.332Z</time>
      </trkpt>
      <trkpt lat="48.37729" lon="5.02811">
        <ele>242.38</ele>
        <time>2025-01-03T16:28:43.182Z</time>
      </trkpt>
      <trkpt lat="48.37726" lon="5.02819">
        <ele>242.69</ele>
        <time>2025-01-03T16:28:46.033Z</time>
      </trkpt>
      <trkpt lat="48.37727" lon="5.02823">
        <ele>243.07</ele>
        <time>2025-01-03T16:28:48.885Z</time>
      </trkpt>
      <trkpt lat="48.37728" lon="5.02843">
        <ele>243.64</ele>
        <time>2025-01-03T16:28:51.739Z</time>
      </trkpt>
      <trkpt lat="48.3773" lon="5.02844">
        <ele>244.1</ele>
        <time>2025-01-03T16:28:54.593Z</time>
      </trkpt>
      <trkpt lat="48.3773" lon="5.02844">
        <ele>244.59</ele>
        <time>2025-01-03T16:28:57.447Z</time>
      </trkpt>
      <trkpt lat="48.37733" lon="5.02845">
        <ele>245.14</ele>
        <time>2025-01-03T16:29:00.301Z</time>
      </trkpt>
      <trkpt lat="48.37743" lon="5.02849">
        <ele>245.76</ele>
        <time>2025-01-03T16:29:03.157Z</time>
      </trkpt>
      <trkpt lat="48.3776" lon="5.02854">
        <ele>246.4</ele>
        <time>2025-01-03T16:29:06.016Z</time>
      </trkpt>
      <trkpt lat="48.37779" lon="5.02861">
        <ele>247.07</ele>
        <time>2025-01-03T16:29:08.878Z</time>
      </trkpt>
      <trkpt lat="48.37807" lon="5.02871">
        <ele>247.75</ele>
        <time>2025-01-03T16:29:11.745Z</time>
      </trkpt>
      <trkpt lat="48.37822" lon="5.0288">
        <ele>248.39</ele>
        <time>2025-01-03T16:29:14.614Z</time>
      </trkpt>
      <trkpt lat="48.3784" lon="5.02891">
        <ele>249.05</ele>
        <time>2025-01-03T16:29:17.486Z</time>
      </trkpt>
      <trkpt lat="48.37855" lon="5.02903">
        <ele>249.73</ele>
        <time>2025-01-03T16:29:20.361Z</time>
      </trkpt>
      <trkpt lat="48.37862" lon="5.02915">
        <ele>250.47</ele>
        <time>2025-01-03T16:29:23.238Z</time>
      </trkpt>
      <trkpt lat="48.37869" lon="5.02926">
        <ele>251.21</ele>
        <time>2025-01-03T16:29:26.116Z</time>
      </trkpt>
      <trkpt lat="48.37874" lon="5.02934">
        <ele>251.92</ele>
        <time>2025-01-03T16:29:28.996Z</time>
      </trkpt>
      <trkpt lat="48.37876" lon="5.02936">
        <ele>252.55</ele>
        <time>2025-01-03T16:29:31.876Z</time>
      </trkpt>
      <trkpt lat="48.37877" lon="5.02939">
        <ele>253.15</ele>
        <time>2025-01-03T16:29:34.756Z</time>
      </trkpt>
      <trkpt lat="48.37885" lon="5.02947">
        <ele>253.76</ele>
        <time>2025-01-03T16:29:37.638Z</time>
      </trkpt>
      <trkpt lat="48.37899" lon="5.02958">
        <ele>254.37</ele>
        <time>2025-01-03T16:29:40.522Z</time>
      </trkpt>
      <trkpt lat="48.37918" lon="5.02974">
        <ele>254.98</ele>
        <time>2025-01-03T16:29:43.410Z</time>
      </trkpt>
      <trkpt lat="48.37937" lon="5.02989">
        <ele>255.42</ele>
        <time>2025-01-03T16:29:46.301Z</time>
      </trkpt>
      <trkpt lat="48.37963" lon="5.03008">
        <ele>255.62</ele>
        <time>2025-01-03T16:29:49.197Z</time>
      </trkpt>
      <trkpt lat="48.37979" lon="5.03018">
        <ele>255.72</ele>
        <time>2025-01-03T16:29:52.096Z</time>
      </trkpt>
      <trkpt lat="48.37995" lon="5.03027">
        <ele>255.75</ele>
        <time>2025-01-03T16:29:54.997Z</time>
      </trkpt>
      <trkpt lat="48.38013" lon="5.03039">
        <ele>255.73</ele>
        <time>2025-01-03T16:29:57.902Z</time>
      </trkpt>
      <trkpt lat="48.38031" lon="5.0305">
        <ele>255.7</ele>
        <time>2025-01-03T16:30:00.810Z</time>
      </trkpt>
      <trkpt lat="48.38058" lon="5.03066">
        <ele>255.7</ele>
        <time>2025-01-03T16:30:03.722Z</time>
      </trkpt>
      <trkpt lat="48.38073" lon="5.03071">
        <ele>255.56</ele>
        <time>2025-01-03T16:30:06.637Z</time>
      </trkpt>
      <trkpt lat="48.38089" lon="5.03076">
        <ele>255.38</ele>
        <time>2025-01-03T16:30:09.554Z</time>
      </trkpt>
      <trkpt lat="48.38109" lon="5.03081">
        <ele>255.15</ele>
        <time>2025-01-03T16:30:12.475Z</time>
      </trkpt>
      <trkpt lat="48.38136" lon="5.03087">
        <ele>254.99</ele>
        <time>2025-01-03T16:30:15.400Z</time>
      </trkpt>
      <trkpt lat="48.38149" lon="5.03089">
        <ele>254.71</ele>
        <time>2025-01-03T16:30:18.327Z</time>
      </trkpt>
      <trkpt lat="48.38159" lon="5.0309">
        <ele>254.42</ele>
        <time>2025-01-03T16:30:21.256Z</time>
      </trkpt>
      <trkpt lat="48.38164" lon="5.03091">
        <ele>254.13</ele>
        <time>2025-01-03T16:30:24.186Z</time>
      </trkpt>
      <trkpt lat="48.38189" lon="5.03094">
        <ele>253.74</ele>
        <time>2025-01-03T16:30:27.120Z</time>
      </trkpt>
      <trkpt lat="48.38218" lon="5.03097">
        <ele>253.28</ele>
        <time>2025-01-03T16:30:30.058Z</time>
      </trkpt>
      <trkpt lat="48.38242" lon="5.03103">
        <ele>252.96</ele>
        <time>2025-01-03T16:30:33.000Z</time>
      </trkpt>
      <trkpt lat="48.38249" lon="5.03106">
        <ele>252.76</ele>
        <time>2025-01-03T16:30:35.943Z</time>
      </trkpt>
      <trkpt lat="48.38252" lon="5.03113">
        <ele>252.63</ele>
        <time>2025-01-03T16:30:38.887Z</time>
      </trkpt>
      <trkpt lat="48.38259" lon="5.03126">
        <ele>252.57</ele>
        <time>2025-01-03T16:30:41.833Z</time>
      </trkpt>
      <trkpt lat="48.38262" lon="5.03134">
        <ele>252.6</ele>
        <time>2025-01-03T16:30:44.780Z</time>
      </trkpt>
      <trkpt lat="48.38263" lon="5.03141">
        <ele>252.68</ele>
        <time>2025-01-03T16:30:47.728Z</time>
      </trkpt>
      <trkpt lat="48.38263" lon="5.03176">
        <ele>252.88</ele>
        <time>2025-01-03T16:30:50.679Z</time>
      </trkpt>
      <trkpt lat="48.38262" lon="5.03209">
        <ele>253.14</ele>
        <time>2025-01-03T16:30:53.634Z</time>
      </trkpt>
      <trkpt lat="48.38262" lon="5.03242">
        <ele>253.41</ele>
        <time>2025-01-03T16:30:56.592Z</time>
      </trkpt>
      <trkpt lat="48.38262" lon="5.03251">
        <ele>253.63</ele>
        <time>2025-01-03T16:30:59.551Z</time>
      </trkpt>
      <trkpt lat="48.38261" lon="5.03276">
        <ele>253.87</ele>
        <time>2025-01-03T16:31:02.513Z</time>
      </trkpt>
      <trkpt lat="48.38261" lon="5.03301">
        <ele>254.14</ele>
        <time>2025-01-03T16:31:05.478Z</time>
      </trkpt>
      <trkpt lat="48.38267" lon="5.03328">
        <ele>254.49</ele>
        <time>2025-01-03T16:31:08.446Z</time>
      </trkpt>
      <trkpt lat="48.38273" lon="5.03355">
        <ele>254.87</ele>
        <time>2025-01-03T16:31:11.417Z</time>
      </trkpt>
      <trkpt lat="48.3828" lon="5.03386">
        <ele>255.3</ele>
        <time>2025-01-03T16:31:14.391Z</time>
      </trkpt>
      <trkpt lat="48.38287" lon="5.03417">
        <ele>255.73</ele>
        <time>2025-01-03T16:31:17.369Z</time>
      </trkpt>
      <trkpt lat="48.38294" lon="5.0345">
        <ele>256.11</ele>
        <time>2025-01-03T16:31:20.350Z</time>
      </trkpt>
      <trkpt lat="48.38301" lon="5.03483">
        <ele>256.55</ele>
        <time>2025-01-03T16:31:23.335Z</time>
      </trkpt>
      <trkpt lat="48.38307" lon="5.03509">
        <ele>257.04</ele>
        <time>2025-01-03T16:31:26.323Z</time>
      </trkpt>
      <trkpt lat="48.38313" lon="5.03534">
        <ele>257.56</ele>
        <time>2025-01-03T16:31:29.314Z</time>
      </trkpt>
      <trkpt lat="48.38318" lon="5.03564">
        <ele>258.07</ele>
        <time>2025-01-03T16:31:32.308Z</time>
      </trkpt>
      <trkpt lat="48.38322" lon="5.03594">
        <ele>258.58</ele>
        <time>2025-01-03T16:31:35.305Z</time>
      </trkpt>
      <trkpt lat="48.38323" lon="5.03625">
        <ele>259.03</ele>
        <time>2025-01-03T16:31:38.306Z</time>
      </trkpt>
      <trkpt lat="48.38323" lon="5.03655">
        <ele>259.46</ele>
        <time>2025-01-03T16:31:41.310Z</time>
      </trkpt>
      <trkpt lat="48.38322" lon="5.03677">
        <ele>259.86</ele>
        <time>2025-01-03T16:31:44.316Z</time>
      </trkpt>
      <trkpt lat="48.38321" lon="5.037">
        <ele>260.3</ele>
        <time>2025-01-03T16:31:47.325Z</time>
      </trkpt>
      <trkpt lat="48.38319" lon="5.03732">
        <ele>260.78</ele>
        <time>2025-01-03T16:31:50.337Z</time>
      </trkpt>
      <trkpt lat="48.38318" lon="5.03764">
        <ele>261.18</ele>
        <time>2025-01-03T16:31:53.353Z</time>
      </trkpt>
      <trkpt lat="48.38316" lon="5.03793">
        <ele>261.49</ele>
        <time>2025-01-03T16:31:56.372Z</time>
      </trkpt>
      <trkpt lat="48.38315" lon="5.03822">
        <ele>261.79</ele>
        <time>2025-01-03T16:31:59.394Z</time>
      </trkpt>
      <trkpt lat="48.38315" lon="5.0383">
        <ele>262.09</ele>
        <time>2025-01-03T16:32:02.417Z</time>
      </trkpt>
      <trkpt lat="48.38315" lon="5.03845">
        <ele>262.34</ele>
        <time>2025-01-03T16:32:05.441Z</time>
      </trkpt>
      <trkpt lat="48.38316" lon="5.03867">
        <ele>262.55</ele>
        <time>2025-01-03T16:32:08.468Z</time>
      </trkpt>
      <trkpt lat="48.38316" lon="5.03875">
        <ele>262.77</ele>
        <time>2025-01-03T16:32:11.495Z</time>
      </trkpt>
      <trkpt lat="48.38321" lon="5.03904">
        <ele>263</ele>
        <time>2025-01-03T16:32:14.526Z</time>
      </trkpt>
      <trkpt lat="48.38326" lon="5.03927">
        <ele>263.06</ele>
        <time>2025-01-03T16:32:17.559Z</time>
      </trkpt>
      <trkpt lat="48.38333" lon="5.03949">
        <ele>263.18</ele>
        <time>2025-01-03T16:32:20.595Z</time>
      </trkpt>
      <trkpt lat="48.38341" lon="5.0397">
        <ele>263.36</ele>
        <time>2025-01-03T16:32:23.633Z</time>
      </trkpt>
      <trkpt lat="48.38353" lon="5.03992">
        <ele>263.64</ele>
        <time>2025-01-03T16:32:26.674Z</time>
      </trkpt>
      <trkpt lat="48.38364" lon="5.04014">
        <ele>263.98</ele>
        <time>2025-01-03T16:32:29.718Z</time>
      </trkpt>
      <trkpt lat="48.3838" lon="5.04035">
        <ele>264.29</ele>
        <time>2025-01-03T16:32:32.766Z</time>
      </trkpt>
      <trkpt lat="48.38396" lon="5.04057">
        <ele>264.61</ele>
        <time>2025-01-03T16:32:35.817Z</time>
      </trkpt>
      <trkpt lat="48.38412" lon="5.04072">
        <ele>264.99</ele>
        <time>2025-01-03T16:32:38.871Z</time>
      </trkpt>
      <trkpt lat="48.38428" lon="5.04086">
        <ele>265.36</ele>
        <time>2025-01-03T16:32:41.928Z</time>
      </trkpt>
      <trkpt lat="48.38457" lon="5.04102">
        <ele>265.79</ele>
        <time>2025-01-03T16:32:44.990Z</time>
      </trkpt>
      <trkpt lat="48.38462" lon="5.04103">
        <ele>266.26</ele>
        <time>2025-01-03T16:32:48.053Z</time>
      </trkpt>
      <trkpt lat="48.38482" lon="5.04106">
        <ele>266.84</ele>
        <time>2025-01-03T16:32:51.119Z</time>
      </trkpt>
      <trkpt lat="48.38512" lon="5.041">
        <ele>267.48</ele>
        <time>2025-01-03T16:32:54.190Z</time>
      </trkpt>
      <trkpt lat="48.38529" lon="5.04091">
        <ele>268.14</ele>
        <time>2025-01-03T16:32:57.264Z</time>
      </trkpt>
      <trkpt lat="48.38546" lon="5.04083">
        <ele>268.82</ele>
        <time>2025-01-03T16:33:00.341Z</time>
      </trkpt>
      <trkpt lat="48.38567" lon="5.04079">
        <ele>269.5</ele>
        <time>2025-01-03T16:33:03.421Z</time>
      </trkpt>
      <trkpt lat="48.38572" lon="5.04079">
        <ele>270.18</ele>
        <time>2025-01-03T16:33:06.502Z</time>
      </trkpt>
      <trkpt lat="48.38589" lon="5.04085">
        <ele>270.91</ele>
        <time>2025-01-03T16:33:09.586Z</time>
      </trkpt>
      <trkpt lat="48.38605" lon="5.04091">
        <ele>271.65</ele>
        <time>2025-01-03T16:33:12.673Z</time>
      </trkpt>
      <trkpt lat="48.38622" lon="5.04101">
        <ele>272.43</ele>
        <time>2025-01-03T16:33:15.762Z</time>
      </trkpt>
      <trkpt lat="48.38638" lon="5.04111">
        <ele>273.27</ele>
        <time>2025-01-03T16:33:18.854Z</time>
      </trkpt>
      <trkpt lat="48.38659" lon="5.04125">
        <ele>274.15</ele>
        <time>2025-01-03T16:33:21.950Z</time>
      </trkpt>
      <trkpt lat="48.3868" lon="5.04139">
        <ele>274.96</ele>
        <time>2025-01-03T16:33:25.050Z</time>
      </trkpt>
      <trkpt lat="48.387" lon="5.04153">
        <ele>275.71</ele>
        <time>2025-01-03T16:33:28.153Z</time>
      </trkpt>
      <trkpt lat="48.38721" lon="5.04167">
        <ele>276.43</ele>
        <time>2025-01-03T16:33:31.260Z</time>
      </trkpt>
      <trkpt lat="48.38739" lon="5.04183">
        <ele>277.17</ele>
        <time>2025-01-03T16:33:34.370Z</time>
      </trkpt>
      <trkpt lat="48.38739" lon="5.04183">
        <ele>277.92</ele>
        <time>2025-01-03T16:33:37.480Z</time>
      </trkpt>
      <trkpt lat="48.38758" lon="5.04198">
        <ele>278.71</ele>
        <time>2025-01-03T16:33:40.593Z</time>
      </trkpt>
      <trkpt lat="48.38773" lon="5.04216">
        <ele>279.5</ele>
        <time>2025-01-03T16:33:43.710Z</time>
      </trkpt>
      <trkpt lat="48.38788" lon="5.04233">
        <ele>280.29</ele>
        <time>2025-01-03T16:33:46.830Z</time>
      </trkpt>
      <trkpt lat="48.38811" lon="5.04259">
        <ele>281.15</ele>
        <time>2025-01-03T16:33:49.954Z</time>
      </trkpt>
      <trkpt lat="48.38825" lon="5.04274">
        <ele>281.87</ele>
        <time>2025-01-03T16:33:53.081Z</time>
      </trkpt>
      <trkpt lat="48.38838" lon="5.04289">
        <ele>282.57</ele>
        <time>2025-01-03T16:33:56.211Z</time>
      </trkpt>
      <trkpt lat="48.38851" lon="5.04304">
        <ele>283.3</ele>
        <time>2025-01-03T16:33:59.343Z</time>
      </trkpt>
      <trkpt lat="48.38861" lon="5.04316">
        <ele>284</ele>
        <time>2025-01-03T16:34:02.477Z</time>
      </trkpt>
      <trkpt lat="48.38874" lon="5.04332">
        <ele>284.72</ele>
        <time>2025-01-03T16:34:05.614Z</time>
      </trkpt>
      <trkpt lat="48.38887" lon="5.04349">
        <ele>285.44</ele>
        <time>2025-01-03T16:34:08.754Z</time>
      </trkpt>
      <trkpt lat="48.38901" lon="5.04371">
        <ele>286.16</ele>
        <time>2025-01-03T16:34:11.897Z</time>
      </trkpt>
      <trkpt lat="48.38916" lon="5.04393">
        <ele>286.82</ele>
        <time>2025-01-03T16:34:15.043Z</time>
      </trkpt>
      <trkpt lat="48.38923" lon="5.0441">
        <ele>287.45</ele>
        <time>2025-01-03T16:34:18.191Z</time>
      </trkpt>
      <trkpt lat="48.38927" lon="5.04421">
        <ele>288.07</ele>
        <time>2025-01-03T16:34:21.341Z</time>
      </trkpt>
      <trkpt lat="48.38929" lon="5.04427">
        <ele>288.64</ele>
        <time>2025-01-03T16:34:24.491Z</time>
      </trkpt>
      <trkpt lat="48.38932" lon="5.04438">
        <ele>289.21</ele>
        <time>2025-01-03T16:34:27.643Z</time>
      </trkpt>
      <trkpt lat="48.38937" lon="5.0446">
        <ele>289.71</ele>
        <time>2025-01-03T16:34:30.797Z</time>
      </trkpt>
      <trkpt lat="48.38943" lon="5.04495">
        <ele>289.95</ele>
        <time>2025-01-03T16:34:33.955Z</time>
      </trkpt>
      <trkpt lat="48.3895" lon="5.04538">
        <ele>290.52</ele>
        <time>2025-01-03T16:34:37.118Z</time>
      </trkpt>
      <trkpt lat="48.38952" lon="5.04544">
        <ele>291.05</ele>
        <time>2025-01-03T16:34:40.282Z</time>
      </trkpt>
      <trkpt lat="48.38959" lon="5.04575">
        <ele>291.65</ele>
        <time>2025-01-03T16:34:43.449Z</time>
      </trkpt>
      <trkpt lat="48.38964" lon="5.04586">
        <ele>292.24</ele>
        <time>2025-01-03T16:34:46.617Z</time>
      </trkpt>
      <trkpt lat="48.38977" lon="5.0461">
        <ele>292.91</ele>
        <time>2025-01-03T16:34:49.789Z</time>
      </trkpt>
      <trkpt lat="48.38987" lon="5.04629">
        <ele>293.61</ele>
        <time>2025-01-03T16:34:52.963Z</time>
      </trkpt>
      <trkpt lat="48.38997" lon="5.04648">
        <ele>294.35</ele>
        <time>2025-01-03T16:34:56.140Z</time>
      </trkpt>
      <trkpt lat="48.39002" lon="5.04658">
        <ele>295.08</ele>
        <time>2025-01-03T16:34:59.318Z</time>
      </trkpt>
      <trkpt lat="48.39013" lon="5.04677">
        <ele>295.84</ele>
        <time>2025-01-03T16:35:02.499Z</time>
      </trkpt>
      <trkpt lat="48.39031" lon="5.04711">
        <ele>296.64</ele>
        <time>2025-01-03T16:35:05.684Z</time>
      </trkpt>
      <trkpt lat="48.39046" lon="5.0474">
        <ele>297.53</ele>
        <time>2025-01-03T16:35:08.873Z</time>
      </trkpt>
      <trkpt lat="48.39065" lon="5.04774">
        <ele>298.52</ele>
        <time>2025-01-03T16:35:12.067Z</time>
      </trkpt>
      <trkpt lat="48.39076" lon="5.04796">
        <ele>299.53</ele>
        <time>2025-01-03T16:35:15.264Z</time>
      </trkpt>
      <trkpt lat="48.39087" lon="5.04817">
        <ele>300.56</ele>
        <time>2025-01-03T16:35:18.464Z</time>
      </trkpt>
      <trkpt lat="48.39099" lon="5.0485">
        <ele>301.58</ele>
        <time>2025-01-03T16:35:21.668Z</time>
      </trkpt>
      <trkpt lat="48.39106" lon="5.04873">
        <ele>302.57</ele>
        <time>2025-01-03T16:35:24.875Z</time>
      </trkpt>
      <trkpt lat="48.39113" lon="5.04895">
        <ele>303.68</ele>
        <time>2025-01-03T16:35:28.084Z</time>
      </trkpt>
      <trkpt lat="48.39121" lon="5.04917">
        <ele>304.81</ele>
        <time>2025-01-03T16:35:31.296Z</time>
      </trkpt>
      <trkpt lat="48.39129" lon="5.04938">
        <ele>305.94</ele>
        <time>2025-01-03T16:35:34.511Z</time>
      </trkpt>
      <trkpt lat="48.39142" lon="5.04969">
        <ele>307.03</ele>
        <time>2025-01-03T16:35:37.729Z</time>
      </trkpt>
      <trkpt lat="48.39154" lon="5.05">
        <ele>308.13</ele>
        <time>2025-01-03T16:35:40.951Z</time>
      </trkpt>
      <trkpt lat="48.39168" lon="5.05035">
        <ele>309.19</ele>
        <time>2025-01-03T16:35:44.178Z</time>
      </trkpt>
      <trkpt lat="48.39182" lon="5.05069">
        <ele>310.27</ele>
        <time>2025-01-03T16:35:47.409Z</time>
      </trkpt>
      <trkpt lat="48.392" lon="5.05106">
        <ele>311.32</ele>
        <time>2025-01-03T16:35:50.645Z</time>
      </trkpt>
      <trkpt lat="48.39217" lon="5.05138">
        <ele>312.36</ele>
        <time>2025-01-03T16:35:53.885Z</time>
      </trkpt>
      <trkpt lat="48.3923" lon="5.05164">
        <ele>313.41</ele>
        <time>2025-01-03T16:35:57.129Z</time>
      </trkpt>
      <trkpt lat="48.39244" lon="5.05193">
        <ele>314.43</ele>
        <time>2025-01-03T16:36:00.376Z</time>
      </trkpt>
      <trkpt lat="48.39258" lon="5.0522">
        <ele>315.46</ele>
        <time>2025-01-03T16:36:03.627Z</time>
      </trkpt>
      <trkpt lat="48.39272" lon="5.05247">
        <ele>316.45</ele>
        <time>2025-01-03T16:36:06.882Z</time>
      </trkpt>
      <trkpt lat="48.39283" lon="5.0527">
        <ele>317.38</ele>
        <time>2025-01-03T16:36:10.140Z</time>
      </trkpt>
      <trkpt lat="48.39298" lon="5.05298">
        <ele>318.24</ele>
        <time>2025-01-03T16:36:13.402Z</time>
      </trkpt>
      <trkpt lat="48.39312" lon="5.05326">
        <ele>319.04</ele>
        <time>2025-01-03T16:36:16.667Z</time>
      </trkpt>
      <trkpt lat="48.39326" lon="5.05354">
        <ele>319.82</ele>
        <time>2025-01-03T16:36:19.936Z</time>
      </trkpt>
      <trkpt lat="48.3934" lon="5.05382">
        <ele>320.55</ele>
        <time>2025-01-03T16:36:23.209Z</time>
      </trkpt>
      <trkpt lat="48.39352" lon="5.05405">
        <ele>321.24</ele>
        <time>2025-01-03T16:36:26.485Z</time>
      </trkpt>
      <trkpt lat="48.39363" lon="5.05421">
        <ele>321.85</ele>
        <time>2025-01-03T16:36:29.763Z</time>
      </trkpt>
      <trkpt lat="48.39376" lon="5.05432">
        <ele>322.37</ele>
        <time>2025-01-03T16:36:33.044Z</time>
      </trkpt>
      <trkpt lat="48.39392" lon="5.05447">
        <ele>322.79</ele>
        <time>2025-01-03T16:36:36.328Z</time>
      </trkpt>
      <trkpt lat="48.39413" lon="5.05465">
        <ele>323.13</ele>
        <time>2025-01-03T16:36:39.616Z</time>
      </trkpt>
      <trkpt lat="48.39433" lon="5.05482">
        <ele>323.51</ele>
        <time>2025-01-03T16:36:42.907Z</time>
      </trkpt>
      <trkpt lat="48.39453" lon="5.055">
        <ele>323.79</ele>
        <time>2025-01-03T16:36:46.202Z</time>
      </trkpt>
      <trkpt lat="48.3947" lon="5.05514">
        <ele>323.96</ele>
        <time>2025-01-03T16:36:49.500Z</time>
      </trkpt>
      <trkpt lat="48.39483" lon="5.05532">
        <ele>323.98</ele>
        <time>2025-01-03T16:36:52.801Z</time>
      </trkpt>
      <trkpt lat="48.39496" lon="5.05549">
        <ele>323.94</ele>
        <time>2025-01-03T16:36:56.105Z</time>
      </trkpt>
      <trkpt lat="48.39517" lon="5.05582">
        <ele>323.77</ele>
        <time>2025-01-03T16:36:59.414Z</time>
      </trkpt>
      <trkpt lat="48.39535" lon="5.05609">
        <ele>323.63</ele>
        <time>2025-01-03T16:37:02.727Z</time>
      </trkpt>
      <trkpt lat="48.39555" lon="5.0564">
        <ele>323.58</ele>
        <time>2025-01-03T16:37:06.044Z</time>
      </trkpt>
      <trkpt lat="48.39572" lon="5.05663">
        <ele>323.54</ele>
        <time>2025-01-03T16:37:09.365Z</time>
      </trkpt>
      <trkpt lat="48.39592" lon="5.05684">
        <ele>323.48</ele>
        <time>2025-01-03T16:37:12.690Z</time>
      </trkpt>
      <trkpt lat="48.39618" lon="5.05709">
        <ele>323.5</ele>
        <time>2025-01-03T16:37:16.020Z</time>
      </trkpt>
      <trkpt lat="48.39634" lon="5.0572">
        <ele>323.49</ele>
        <time>2025-01-03T16:37:19.353Z</time>
      </trkpt>
      <trkpt lat="48.39649" lon="5.05732">
        <ele>323.47</ele>
        <time>2025-01-03T16:37:22.688Z</time>
      </trkpt>
      <trkpt lat="48.39673" lon="5.05753">
        <ele>323.44</ele>
        <time>2025-01-03T16:37:26.028Z</time>
      </trkpt>
      <trkpt lat="48.39686" lon="5.05792">
        <ele>323.39</ele>
        <time>2025-01-03T16:37:29.372Z</time>
      </trkpt>
      <trkpt lat="48.39693" lon="5.05821">
        <ele>323.43</ele>
        <time>2025-01-03T16:37:32.720Z</time>
      </trkpt>
      <trkpt lat="48.39695" lon="5.05832">
        <ele>323.51</ele>
        <time>2025-01-03T16:37:36.069Z</time>
      </trkpt>
      <trkpt lat="48.39705" lon="5.05872">
        <ele>323.68</ele>
        <time>2025-01-03T16:37:39.422Z</time>
      </trkpt>
      <trkpt lat="48.39713" lon="5.05905">
        <ele>323.86</ele>
        <time>2025-01-03T16:37:42.779Z</time>
      </trkpt>
      <trkpt lat="48.39722" lon="5.05944">
        <ele>324</ele>
        <time>2025-01-03T16:37:46.141Z</time>
      </trkpt>
      <trkpt lat="48.39727" lon="5.05967">
        <ele>324.17</ele>
        <time>2025-01-03T16:37:49.505Z</time>
      </trkpt>
      <trkpt lat="48.39733" lon="5.0599">
        <ele>324.38</ele>
        <time>2025-01-03T16:37:52.872Z</time>
      </trkpt>
      <trkpt lat="48.39741" lon="5.06026">
        <ele>324.65</ele>
        <time>2025-01-03T16:37:56.243Z</time>
      </trkpt>
      <trkpt lat="48.39751" lon="5.06064">
        <ele>324.9</ele>
        <time>2025-01-03T16:37:59.618Z</time>
      </trkpt>
      <trkpt lat="48.39762" lon="5.06103">
        <ele>325.22</ele>
        <time>2025-01-03T16:38:02.998Z</time>
      </trkpt>
      <trkpt lat="48.39767" lon="5.0612">
        <ele>325.53</ele>
        <time>2025-01-03T16:38:06.380Z</time>
      </trkpt>
      <trkpt lat="48.39773" lon="5.06138">
        <ele>325.9</ele>
        <time>2025-01-03T16:38:09.764Z</time>
      </trkpt>
      <trkpt lat="48.39782" lon="5.06175">
        <ele>326.36</ele>
        <time>2025-01-03T16:38:13.152Z</time>
      </trkpt>
      <trkpt lat="48.39786" lon="5.06199">
        <ele>326.82</ele>
        <time>2025-01-03T16:38:16.543Z</time>
      </trkpt>
      <trkpt lat="48.3979" lon="5.06223">
        <ele>327.32</ele>
        <time>2025-01-03T16:38:19.936Z</time>
      </trkpt>
      <trkpt lat="48.39798" lon="5.06248">
        <ele>327.83</ele>
        <time>2025-01-03T16:38:23.332Z</time>
      </trkpt>
      <trkpt lat="48.39803" lon="5.06261">
        <ele>328.32</ele>
        <time>2025-01-03T16:38:26.730Z</time>
      </trkpt>
      <trkpt lat="48.39815" lon="5.06293">
        <ele>328.89</ele>
        <time>2025-01-03T16:38:30.132Z</time>
      </trkpt>
      <trkpt lat="48.39819" lon="5.06306">
        <ele>329.41</ele>
        <time>2025-01-03T16:38:33.535Z</time>
      </trkpt>
      <trkpt lat="48.39821" lon="5.06313">
        <ele>329.96</ele>
        <time>2025-01-03T16:38:36.939Z</time>
      </trkpt>
      <trkpt lat="48.39827" lon="5.0634">
        <ele>330.52</ele>
        <time>2025-01-03T16:38:40.346Z</time>
      </trkpt>
      <trkpt lat="48.39834" lon="5.06373">
        <ele>331.16</ele>
        <time>2025-01-03T16:38:43.757Z</time>
      </trkpt>
      <trkpt lat="48.39835" lon="5.0638">
        <ele>331.77</ele>
        <time>2025-01-03T16:38:47.169Z</time>
      </trkpt>
      <trkpt lat="48.39843" lon="5.06418">
        <ele>332.42</ele>
        <time>2025-01-03T16:38:50.585Z</time>
      </trkpt>
      <trkpt lat="48.39844" lon="5.06425">
        <ele>333.07</ele>
        <time>2025-01-03T16:38:54.002Z</time>
      </trkpt>
      <trkpt lat="48.39848" lon="5.06457">
        <ele>333.78</ele>
        <time>2025-01-03T16:38:57.422Z</time>
      </trkpt>
      <trkpt lat="48.39849" lon="5.0647">
        <ele>334.47</ele>
        <time>2025-01-03T16:39:00.843Z</time>
      </trkpt>
      <trkpt lat="48.39841" lon="5.06507">
        <ele>335.21</ele>
        <time>2025-01-03T16:39:04.269Z</time>
      </trkpt>
      <trkpt lat="48.39836" lon="5.0654">
        <ele>335.97</ele>
        <time>2025-01-03T16:39:07.698Z</time>
      </trkpt>
      <trkpt lat="48.39837" lon="5.06553">
        <ele>336.68</ele>
        <time>2025-01-03T16:39:11.129Z</time>
      </trkpt>
      <trkpt lat="48.39837" lon="5.06567">
        <ele>337.39</ele>
        <time>2025-01-03T16:39:14.561Z</time>
      </trkpt>
      <trkpt lat="48.39841" lon="5.06597">
        <ele>338.11</ele>
        <time>2025-01-03T16:39:17.996Z</time>
      </trkpt>
      <trkpt lat="48.3985" lon="5.06628">
        <ele>338.95</ele>
        <time>2025-01-03T16:39:21.435Z</time>
      </trkpt>
      <trkpt lat="48.39865" lon="5.06655">
        <ele>339.81</ele>
        <time>2025-01-03T16:39:24.878Z</time>
      </trkpt>
      <trkpt lat="48.39882" lon="5.06685">
        <ele>340.58</ele>
        <time>2025-01-03T16:39:28.325Z</time>
      </trkpt>
      <trkpt lat="48.399" lon="5.06717">
        <ele>341.26</ele>
        <time>2025-01-03T16:39:31.776Z</time>
      </trkpt>
      <trkpt lat="48.39913" lon="5.06752">
        <ele>341.91</ele>
        <time>2025-01-03T16:39:35.232Z</time>
      </trkpt>
      <trkpt lat="48.39923" lon="5.06783">
        <ele>342.6</ele>
        <time>2025-01-03T16:39:38.691Z</time>
      </trkpt>
      <trkpt lat="48.39929" lon="5.06818">
        <ele>343.31</ele>
        <time>2025-01-03T16:39:42.154Z</time>
      </trkpt>
      <trkpt lat="48.39934" lon="5.06849">
        <ele>344</ele>
        <time>2025-01-03T16:39:45.621Z</time>
      </trkpt>
      <trkpt lat="48.39935" lon="5.06862">
        <ele>344.61</ele>
        <time>2025-01-03T16:39:49.089Z</time>
      </trkpt>
      <trkpt lat="48.39937" lon="5.06906">
        <ele>345.21</ele>
        <time>2025-01-03T16:39:52.562Z</time>
      </trkpt>
      <trkpt lat="48.39936" lon="5.06911">
        <ele>345.79</ele>
        <time>2025-01-03T16:39:56.035Z</time>
      </trkpt>
      <trkpt lat="48.39931" lon="5.06956">
        <ele>346.37</ele>
        <time>2025-01-03T16:39:59.513Z</time>
      </trkpt>
      <trkpt lat="48.39928" lon="5.06982">
        <ele>346.93</ele>
        <time>2025-01-03T16:40:02.994Z</time>
      </trkpt>
      <trkpt lat="48.39924" lon="5.07008">
        <ele>347.43</ele>
        <time>2025-01-03T16:40:06.478Z</time>
      </trkpt>
      <trkpt lat="48.39919" lon="5.07052">
        <ele>347.95</ele>
        <time>2025-01-03T16:40:09.966Z</time>
      </trkpt>
      <trkpt lat="48.39913" lon="5.07096">
        <ele>348.38</ele>
        <time>2025-01-03T16:40:13.459Z</time>
      </trkpt>
      <trkpt lat="48.39907" lon="5.07121">
        <ele>348.77</ele>
        <time>2025-01-03T16:40:16.955Z</time>
      </trkpt>
      <trkpt lat="48.39901" lon="5.07146">
        <ele>349.14</ele>
        <time>2025-01-03T16:40:20.454Z</time>
      </trkpt>
      <trkpt lat="48.39893" lon="5.07173">
        <ele>349.53</ele>
        <time>2025-01-03T16:40:23.956Z</time>
      </trkpt>
      <trkpt lat="48.39894" lon="5.072">
        <ele>349.9</ele>
        <time>2025-01-03T16:40:27.461Z</time>
      </trkpt>
      <trkpt lat="48.39894" lon="5.07207">
        <ele>350.18</ele>
        <time>2025-01-03T16:40:30.967Z</time>
      </trkpt>
      <trkpt lat="48.39895" lon="5.07213">
        <ele>350.42</ele>
        <time>2025-01-03T16:40:34.473Z</time>
      </trkpt>
      <trkpt lat="48.39898" lon="5.07227">
        <ele>350.65</ele>
        <time>2025-01-03T16:40:37.981Z</time>
      </trkpt>
      <trkpt lat="48.39904" lon="5.07236">
        <ele>350.82</ele>
        <time>2025-01-03T16:40:41.490Z</time>
      </trkpt>
      <trkpt lat="48.3991" lon="5.07245">
        <ele>350.93</ele>
        <time>2025-01-03T16:40:45.001Z</time>
      </trkpt>
      <trkpt lat="48.39925" lon="5.07259">
        <ele>351</ele>
        <time>2025-01-03T16:40:48.514Z</time>
      </trkpt>
      <trkpt lat="48.39951" lon="5.07284">
        <ele>351.07</ele>
        <time>2025-01-03T16:40:52.032Z</time>
      </trkpt>
      <trkpt lat="48.39965" lon="5.07298">
        <ele>351.08</ele>
        <time>2025-01-03T16:40:55.553Z</time>
      </trkpt>
      <trkpt lat="48.39978" lon="5.07312">
        <ele>351.01</ele>
        <time>2025-01-03T16:40:59.077Z</time>
      </trkpt>
      <trkpt lat="48.3999" lon="5.0733">
        <ele>350.89</ele>
        <time>2025-01-03T16:41:02.603Z</time>
      </trkpt>
      <trkpt lat="48.40002" lon="5.07349">
        <ele>350.74</ele>
        <time>2025-01-03T16:41:06.132Z</time>
      </trkpt>
      <trkpt lat="48.40018" lon="5.07374">
        <ele>350.58</ele>
        <time>2025-01-03T16:41:09.665Z</time>
      </trkpt>
      <trkpt lat="48.40034" lon="5.07399">
        <ele>350.35</ele>
        <time>2025-01-03T16:41:13.202Z</time>
      </trkpt>
      <trkpt lat="48.40046" lon="5.07416">
        <ele>350.07</ele>
        <time>2025-01-03T16:41:16.741Z</time>
      </trkpt>
      <trkpt lat="48.40057" lon="5.07434">
        <ele>349.79</ele>
        <time>2025-01-03T16:41:20.283Z</time>
      </trkpt>
      <trkpt lat="48.40067" lon="5.0745">
        <ele>349.54</ele>
        <time>2025-01-03T16:41:23.827Z</time>
      </trkpt>
      <trkpt lat="48.40081" lon="5.07461">
        <ele>349.28</ele>
        <time>2025-01-03T16:41:27.374Z</time>
      </trkpt>
      <trkpt lat="48.40099" lon="5.07474">
        <ele>348.99</ele>
        <time>2025-01-03T16:41:30.924Z</time>
      </trkpt>
      <trkpt lat="48.40117" lon="5.07488">
        <ele>348.64</ele>
        <time>2025-01-03T16:41:34.477Z</time>
      </trkpt>
      <trkpt lat="48.40134" lon="5.07501">
        <ele>348.25</ele>
        <time>2025-01-03T16:41:38.033Z</time>
      </trkpt>
      <trkpt lat="48.40152" lon="5.07515">
        <ele>347.85</ele>
        <time>2025-01-03T16:41:41.592Z</time>
      </trkpt>
      <trkpt lat="48.40171" lon="5.07527">
        <ele>347.42</ele>
        <time>2025-01-03T16:41:45.155Z</time>
      </trkpt>
      <trkpt lat="48.40191" lon="5.07539">
        <ele>347.01</ele>
        <time>2025-01-03T16:41:48.721Z</time>
      </trkpt>
      <trkpt lat="48.40207" lon="5.07549">
        <ele>346.63</ele>
        <time>2025-01-03T16:41:52.290Z</time>
      </trkpt>
      <trkpt lat="48.40223" lon="5.07558">
        <ele>346.26</ele>
        <time>2025-01-03T16:41:55.862Z</time>
      </trkpt>
      <trkpt lat="48.40239" lon="5.07568">
        <ele>345.89</ele>
        <time>2025-01-03T16:41:59.436Z</time>
      </trkpt>
      <trkpt lat="48.40255" lon="5.07578">
        <ele>345.55</ele>
        <time>2025-01-03T16:42:03.013Z</time>
      </trkpt>
      <trkpt lat="48.40259" lon="5.07582">
        <ele>345.23</ele>
        <time>2025-01-03T16:42:06.591Z</time>
      </trkpt>
      <trkpt lat="48.40267" lon="5.0759">
        <ele>344.92</ele>
        <time>2025-01-03T16:42:10.171Z</time>
      </trkpt>
      <trkpt lat="48.40275" lon="5.07601">
        <ele>344.63</ele>
        <time>2025-01-03T16:42:13.752Z</time>
      </trkpt>
      <trkpt lat="48.40283" lon="5.07612">
        <ele>344.36</ele>
        <time>2025-01-03T16:42:17.335Z</time>
      </trkpt>
      <trkpt lat="48.40295" lon="5.0763">
        <ele>344.12</ele>
        <time>2025-01-03T16:42:20.921Z</time>
      </trkpt>
      <trkpt lat="48.40308" lon="5.07649">
        <ele>343.89</ele>
        <time>2025-01-03T16:42:24.510Z</time>
      </trkpt>
      <trkpt lat="48.40324" lon="5.07671">
        <ele>343.66</ele>
        <time>2025-01-03T16:42:28.102Z</time>
      </trkpt>
      <trkpt lat="48.4034" lon="5.07693">
        <ele>343.48</ele>
        <time>2025-01-03T16:42:31.698Z</time>
      </trkpt>
      <trkpt lat="48.40355" lon="5.07713">
        <ele>343.35</ele>
        <time>2025-01-03T16:42:35.297Z</time>
      </trkpt>
      <trkpt lat="48.4037" lon="5.07733">
        <ele>343.24</ele>
        <time>2025-01-03T16:42:38.899Z</time>
      </trkpt>
      <trkpt lat="48.40387" lon="5.07755">
        <ele>343.13</ele>
        <time>2025-01-03T16:42:42.505Z</time>
      </trkpt>
      <trkpt lat="48.40401" lon="5.07782">
        <ele>343</ele>
        <time>2025-01-03T16:42:46.114Z</time>
      </trkpt>
      <trkpt lat="48.40407" lon="5.07794">
        <ele>342.94</ele>
        <time>2025-01-03T16:42:49.725Z</time>
      </trkpt>
      <trkpt lat="48.40419" lon="5.07817">
        <ele>342.9</ele>
        <time>2025-01-03T16:42:53.339Z</time>
      </trkpt>
      <trkpt lat="48.4043" lon="5.0784">
        <ele>342.86</ele>
        <time>2025-01-03T16:42:56.956Z</time>
      </trkpt>
      <trkpt lat="48.40442" lon="5.07858">
        <ele>342.86</ele>
        <time>2025-01-03T16:43:00.576Z</time>
      </trkpt>
      <trkpt lat="48.40455" lon="5.07876">
        <ele>342.93</ele>
        <time>2025-01-03T16:43:04.198Z</time>
      </trkpt>
      <trkpt lat="48.40476" lon="5.07908">
        <ele>342.97</ele>
        <time>2025-01-03T16:43:07.825Z</time>
      </trkpt>
      <trkpt lat="48.40498" lon="5.0794">
        <ele>343.14</ele>
        <time>2025-01-03T16:43:11.457Z</time>
      </trkpt>
      <trkpt lat="48.40511" lon="5.07961">
        <ele>343.34</ele>
        <time>2025-01-03T16:43:15.092Z</time>
      </trkpt>
      <trkpt lat="48.40524" lon="5.07981">
        <ele>343.55</ele>
        <time>2025-01-03T16:43:18.730Z</time>
      </trkpt>
      <trkpt lat="48.4053" lon="5.07993">
        <ele>343.77</ele>
        <time>2025-01-03T16:43:22.370Z</time>
      </trkpt>
      <trkpt lat="48.40538" lon="5.08012">
        <ele>344.02</ele>
        <time>2025-01-03T16:43:26.012Z</time>
      </trkpt>
      <trkpt lat="48.40545" lon="5.08036">
        <ele>344.26</ele>
        <time>2025-01-03T16:43:29.657Z</time>
      </trkpt>
      <trkpt lat="48.40552" lon="5.08061">
        <ele>344.51</ele>
        <time>2025-01-03T16:43:33.305Z</time>
      </trkpt>
      <trkpt lat="48.40559" lon="5.08072">
        <ele>344.75</ele>
        <time>2025-01-03T16:43:36.955Z</time>
      </trkpt>
      <trkpt lat="48.40568" lon="5.08083">
        <ele>345</ele>
        <time>2025-01-03T16:43:40.606Z</time>
      </trkpt>
      <trkpt lat="48.40593" lon="5.08103">
        <ele>345.28</ele>
        <time>2025-01-03T16:43:44.262Z</time>
      </trkpt>
      <trkpt lat="48.4061" lon="5.08114">
        <ele>345.5</ele>
        <time>2025-01-03T16:43:47.921Z</time>
      </trkpt>
      <trkpt lat="48.40627" lon="5.08125">
        <ele>345.66</ele>
        <time>2025-01-03T16:43:51.583Z</time>
      </trkpt>
      <trkpt lat="48.40641" lon="5.08133">
        <ele>345.74</ele>
        <time>2025-01-03T16:43:55.247Z</time>
      </trkpt>
      <trkpt lat="48.40649" lon="5.08137">
        <ele>345.76</ele>
        <time>2025-01-03T16:43:58.913Z</time>
      </trkpt>
      <trkpt lat="48.40672" lon="5.08151">
        <ele>345.76</ele>
        <time>2025-01-03T16:44:02.583Z</time>
      </trkpt>
      <trkpt lat="48.40695" lon="5.08162">
        <ele>345.69</ele>
        <time>2025-01-03T16:44:06.257Z</time>
      </trkpt>
      <trkpt lat="48.4071" lon="5.08164">
        <ele>345.49</ele>
        <time>2025-01-03T16:44:09.933Z</time>
      </trkpt>
      <trkpt lat="48.40729" lon="5.08163">
        <ele>345.23</ele>
        <time>2025-01-03T16:44:13.612Z</time>
      </trkpt>
      <trkpt lat="48.40746" lon="5.08162">
        <ele>344.92</ele>
        <time>2025-01-03T16:44:17.294Z</time>
      </trkpt>
      <trkpt lat="48.40762" lon="5.0816">
        <ele>344.59</ele>
        <time>2025-01-03T16:44:20.978Z</time>
      </trkpt>
      <trkpt lat="48.40781" lon="5.0816">
        <ele>344.26</ele>
        <time>2025-01-03T16:44:24.665Z</time>
      </trkpt>
      <trkpt lat="48.40799" lon="5.08159">
        <ele>343.91</ele>
        <time>2025-01-03T16:44:28.355Z</time>
      </trkpt>
      <trkpt lat="48.40826" lon="5.08164">
        <ele>343.62</ele>
        <time>2025-01-03T16:44:32.050Z</time>
      </trkpt>
      <trkpt lat="48.40853" lon="5.08169">
        <ele>343.36</ele>
        <time>2025-01-03T16:44:35.749Z</time>
      </trkpt>
      <trkpt lat="48.40867" lon="5.08182">
        <ele>343.09</ele>
        <time>2025-01-03T16:44:39.450Z</time>
      </trkpt>
      <trkpt lat="48.40873" lon="5.08189">
        <ele>342.85</ele>
        <time>2025-01-03T16:44:43.153Z</time>
      </trkpt>
      <trkpt lat="48.40881" lon="5.08207">
        <ele>342.64</ele>
        <time>2025-01-03T16:44:46.858Z</time>
      </trkpt>
      <trkpt lat="48.40887" lon="5.08225">
        <ele>342.45</ele>
        <time>2025-01-03T16:44:50.565Z</time>
      </trkpt>
      <trkpt lat="48.40897" lon="5.08245">
        <ele>342.28</ele>
        <time>2025-01-03T16:44:54.275Z</time>
      </trkpt>
      <trkpt lat="48.40906" lon="5.08265">
        <ele>342.18</ele>
        <time>2025-01-03T16:44:57.987Z</time>
      </trkpt>
      <trkpt lat="48.40909" lon="5.08271">
        <ele>342.06</ele>
        <time>2025-01-03T16:45:01.700Z</time>
      </trkpt>
      <trkpt lat="48.40919" lon="5.08292">
        <ele>342.01</ele>
        <time>2025-01-03T16:45:05.416Z</time>
      </trkpt>
      <trkpt lat="48.40937" lon="5.0832">
        <ele>341.94</ele>
        <time>2025-01-03T16:45:09.136Z</time>
      </trkpt>
      <trkpt lat="48.40944" lon="5.08343">
        <ele>341.88</ele>
        <time>2025-01-03T16:45:12.859Z</time>
      </trkpt>
      <trkpt lat="48.40945" lon="5.0835">
        <ele>341.85</ele>
        <time>2025-01-03T16:45:16.583Z</time>
      </trkpt>
      <trkpt lat="48.40948" lon="5.08378">
        <ele>341.83</ele>
        <time>2025-01-03T16:45:20.310Z</time>
      </trkpt>
      <trkpt lat="48.40955" lon="5.08412">
        <ele>341.78</ele>
        <time>2025-01-03T16:45:24.040Z</time>
      </trkpt>
      <trkpt lat="48.40957" lon="5.08418">
        <ele>341.82</ele>
        <time>2025-01-03T16:45:27.771Z</time>
      </trkpt>
      <trkpt lat="48.40971" lon="5.08457">
        <ele>341.89</ele>
        <time>2025-01-03T16:45:31.507Z</time>
      </trkpt>
      <trkpt lat="48.40979" lon="5.08478">
        <ele>342.03</ele>
        <time>2025-01-03T16:45:35.245Z</time>
      </trkpt>
      <trkpt lat="48.40986" lon="5.08499">
        <ele>342.21</ele>
        <time>2025-01-03T16:45:38.986Z</time>
      </trkpt>
      <trkpt lat="48.40991" lon="5.08511">
        <ele>342.41</ele>
        <time>2025-01-03T16:45:42.728Z</time>
      </trkpt>
      <trkpt lat="48.41" lon="5.08539">
        <ele>342.61</ele>
        <time>2025-01-03T16:45:46.474Z</time>
      </trkpt>
      <trkpt lat="48.41011" lon="5.08567">
        <ele>342.78</ele>
        <time>2025-01-03T16:45:50.223Z</time>
      </trkpt>
      <trkpt lat="48.41022" lon="5.08595">
        <ele>342.96</ele>
        <time>2025-01-03T16:45:53.976Z</time>
      </trkpt>
      <trkpt lat="48.41025" lon="5.08603">
        <ele>343.15</ele>
        <time>2025-01-03T16:45:57.730Z</time>
      </trkpt>
      <trkpt lat="48.41033" lon="5.08624">
        <ele>343.32</ele>
        <time>2025-01-03T16:46:01.486Z</time>
      </trkpt>
      <trkpt lat="48.41044" lon="5.08645">
        <ele>343.54</ele>
        <time>2025-01-03T16:46:05.245Z</time>
      </trkpt>
      <trkpt lat="48.41054" lon="5.08667">
        <ele>343.78</ele>
        <time>2025-01-03T16:46:09.007Z</time>
      </trkpt>
      <trkpt lat="48.41072" lon="5.08701">
        <ele>344.03</ele>
        <time>2025-01-03T16:46:12.774Z</time>
      </trkpt>
      <trkpt lat="48.41075" lon="5.08708">
        <ele>344.26</ele>
        <time>2025-01-03T16:46:16.542Z</time>
      </trkpt>
      <trkpt lat="48.41092" lon="5.08733">
        <ele>344.45</ele>
        <time>2025-01-03T16:46:20.313Z</time>
      </trkpt>
      <trkpt lat="48.41109" lon="5.08758">
        <ele>344.63</ele>
        <time>2025-01-03T16:46:24.088Z</time>
      </trkpt>
      <trkpt lat="48.41128" lon="5.08785">
        <ele>344.83</ele>
        <time>2025-01-03T16:46:27.867Z</time>
      </trkpt>
      <trkpt lat="48.41147" lon="5.08812">
        <ele>345.02</ele>
        <time>2025-01-03T16:46:31.650Z</time>
      </trkpt>
      <trkpt lat="48.41164" lon="5.08837">
        <ele>345.23</ele>
        <time>2025-01-03T16:46:35.437Z</time>
      </trkpt>
      <trkpt lat="48.41182" lon="5.08863">
        <ele>345.47</ele>
        <time>2025-01-03T16:46:39.228Z</time>
      </trkpt>
      <trkpt lat="48.41196" lon="5.08882">
        <ele>345.66</ele>
        <time>2025-01-03T16:46:43.022Z</time>
      </trkpt>
      <trkpt lat="48.4121" lon="5.08902">
        <ele>345.84</ele>
        <time>2025-01-03T16:46:46.819Z</time>
      </trkpt>
      <trkpt lat="48.41227" lon="5.08927">
        <ele>345.98</ele>
        <time>2025-01-03T16:46:50.620Z</time>
      </trkpt>
      <trkpt lat="48.41244" lon="5.08951">
        <ele>346.15</ele>
        <time>2025-01-03T16:46:54.425Z</time>
      </trkpt>
      <trkpt lat="48.41261" lon="5.08976">
        <ele>346.25</ele>
        <time>2025-01-03T16:46:58.234Z</time>
      </trkpt>
      <trkpt lat="48.41278" lon="5.09">
        <ele>346.31</ele>
        <time>2025-01-03T16:47:02.046Z</time>
      </trkpt>
      <trkpt lat="48.41294" lon="5.09021">
        <ele>346.36</ele>
        <time>2025-01-03T16:47:05.862Z</time>
      </trkpt>
      <trkpt lat="48.41309" lon="5.09043">
        <ele>346.41</ele>
        <time>2025-01-03T16:47:09.681Z</time>
      </trkpt>
      <trkpt lat="48.41324" lon="5.09064">
        <ele>346.41</ele>
        <time>2025-01-03T16:47:13.504Z</time>
      </trkpt>
      <trkpt lat="48.4134" lon="5.09086">
        <ele>346.38</ele>
        <time>2025-01-03T16:47:17.330Z</time>
      </trkpt>
      <trkpt lat="48.41357" lon="5.09109">
        <ele>346.33</ele>
        <time>2025-01-03T16:47:21.160Z</time>
      </trkpt>
      <trkpt lat="48.41374" lon="5.09133">
        <ele>346.26</ele>
        <time>2025-01-03T16:47:24.993Z</time>
      </trkpt>
      <trkpt lat="48.41391" lon="5.09156">
        <ele>346.18</ele>
        <time>2025-01-03T16:47:28.830Z</time>
      </trkpt>
      <trkpt lat="48.41407" lon="5.0918">
        <ele>346.06</ele>
        <time>2025-01-03T16:47:32.671Z</time>
      </trkpt>
      <trkpt lat="48.4142" lon="5.09197">
        <ele>345.86</ele>
        <time>2025-01-03T16:47:36.514Z</time>
      </trkpt>
      <trkpt lat="48.41432" lon="5.09214">
        <ele>345.6</ele>
        <time>2025-01-03T16:47:40.360Z</time>
      </trkpt>
      <trkpt lat="48.41452" lon="5.09242">
        <ele>345.35</ele>
        <time>2025-01-03T16:47:44.210Z</time>
      </trkpt>
      <trkpt lat="48.41472" lon="5.0927">
        <ele>345.17</ele>
        <time>2025-01-03T16:47:48.065Z</time>
      </trkpt>
      <trkpt lat="48.41485" lon="5.09287">
        <ele>344.89</ele>
        <time>2025-01-03T16:47:51.923Z</time>
      </trkpt>
      <trkpt lat="48.41497" lon="5.09304">
        <ele>344.59</ele>
        <time>2025-01-03T16:47:55.783Z</time>
      </trkpt>
      <trkpt lat="48.41509" lon="5.09321">
        <ele>344.22</ele>
        <time>2025-01-03T16:47:59.646Z</time>
      </trkpt>
      <trkpt lat="48.41522" lon="5.09339">
        <ele>343.8</ele>
        <time>2025-01-03T16:48:03.512Z</time>
      </trkpt>
      <trkpt lat="48.41544" lon="5.09368">
        <ele>343.23</ele>
        <time>2025-01-03T16:48:07.382Z</time>
      </trkpt>
      <trkpt lat="48.41567" lon="5.09397">
        <ele>342.64</ele>
        <time>2025-01-03T16:48:11.257Z</time>
      </trkpt>
      <trkpt lat="48.41587" lon="5.09424">
        <ele>342.1</ele>
        <time>2025-01-03T16:48:15.137Z</time>
      </trkpt>
      <trkpt lat="48.41608" lon="5.09451">
        <ele>341.5</ele>
        <time>2025-01-03T16:48:19.021Z</time>
      </trkpt>
      <trkpt lat="48.4162" lon="5.09466">
        <ele>340.86</ele>
        <time>2025-01-03T16:48:22.907Z</time>
      </trkpt>
      <trkpt lat="48.41637" lon="5.09488">
        <ele>340.16</ele>
        <time>2025-01-03T16:48:26.797Z</time>
      </trkpt>
      <trkpt lat="48.41654" lon="5.0951">
        <ele>339.55</ele>
        <time>2025-01-03T16:48:30.691Z</time>
      </trkpt>
      <trkpt lat="48.41674" lon="5.09535">
        <ele>338.92</ele>
        <time>2025-01-03T16:48:34.589Z</time>
      </trkpt>
      <trkpt lat="48.41694" lon="5.09561">
        <ele>338.32</ele>
        <time>2025-01-03T16:48:38.491Z</time>
      </trkpt>
      <trkpt lat="48.41711" lon="5.09583">
        <ele>337.73</ele>
        <time>2025-01-03T16:48:42.397Z</time>
      </trkpt>
      <trkpt lat="48.41728" lon="5.09605">
        <ele>337.24</ele>
        <time>2025-01-03T16:48:46.306Z</time>
      </trkpt>
      <trkpt lat="48.41745" lon="5.09627">
        <ele>336.86</ele>
        <time>2025-01-03T16:48:50.219Z</time>
      </trkpt>
      <trkpt lat="48.41763" lon="5.0965">
        <ele>336.48</ele>
        <time>2025-01-03T16:48:54.136Z</time>
      </trkpt>
      <trkpt lat="48.41782" lon="5.09675">
        <ele>336.13</ele>
        <time>2025-01-03T16:48:58.057Z</time>
      </trkpt>
      <trkpt lat="48.41802" lon="5.097">
        <ele>335.83</ele>
        <time>2025-01-03T16:49:01.982Z</time>
      </trkpt>
      <trkpt lat="48.41815" lon="5.09717">
        <ele>335.66</ele>
        <time>2025-01-03T16:49:05.910Z</time>
      </trkpt>
      <trkpt lat="48.41829" lon="5.09734">
        <ele>335.59</ele>
        <time>2025-01-03T16:49:09.840Z</time>
      </trkpt>
      <trkpt lat="48.41849" lon="5.0976">
        <ele>335.67</ele>
        <time>2025-01-03T16:49:13.775Z</time>
      </trkpt>
      <trkpt lat="48.41866" lon="5.09782">
        <ele>335.8</ele>
        <time>2025-01-03T16:49:17.713Z</time>
      </trkpt>
      <trkpt lat="48.41883" lon="5.09804">
        <ele>335.94</ele>
        <time>2025-01-03T16:49:21.655Z</time>
      </trkpt>
      <trkpt lat="48.41906" lon="5.09834">
        <ele>336.13</ele>
        <time>2025-01-03T16:49:25.602Z</time>
      </trkpt>
      <trkpt lat="48.41919" lon="5.0985">
        <ele>336.39</ele>
        <time>2025-01-03T16:49:29.551Z</time>
      </trkpt>
      <trkpt lat="48.41931" lon="5.09866">
        <ele>336.7</ele>
        <time>2025-01-03T16:49:33.503Z</time>
      </trkpt>
      <trkpt lat="48.41949" lon="5.09889">
        <ele>337.08</ele>
        <time>2025-01-03T16:49:37.459Z</time>
      </trkpt>
      <trkpt lat="48.41963" lon="5.09906">
        <ele>337.49</ele>
        <time>2025-01-03T16:49:41.418Z</time>
      </trkpt>
      <trkpt lat="48.41977" lon="5.09924">
        <ele>337.86</ele>
        <time>2025-01-03T16:49:45.380Z</time>
      </trkpt>
      <trkpt lat="48.42" lon="5.09956">
        <ele>338.24</ele>
        <time>2025-01-03T16:49:49.347Z</time>
      </trkpt>
      <trkpt lat="48.42015" lon="5.09977">
        <ele>338.63</ele>
        <time>2025-01-03T16:49:53.317Z</time>
      </trkpt>
      <trkpt lat="48.4203" lon="5.09998">
        <ele>339.04</ele>
        <time>2025-01-03T16:49:57.290Z</time>
      </trkpt>
      <trkpt lat="48.42042" lon="5.10014">
        <ele>339.45</ele>
        <time>2025-01-03T16:50:01.266Z</time>
      </trkpt>
      <trkpt lat="48.42053" lon="5.1003">
        <ele>339.88</ele>
        <time>2025-01-03T16:50:05.244Z</time>
      </trkpt>
      <trkpt lat="48.42073" lon="5.10058">
        <ele>340.25</ele>
        <time>2025-01-03T16:50:09.227Z</time>
      </trkpt>
      <trkpt lat="48.42089" lon="5.10079">
        <ele>340.55</ele>
        <time>2025-01-03T16:50:13.213Z</time>
      </trkpt>
      <trkpt lat="48.42104" lon="5.101">
        <ele>340.77</ele>
        <time>2025-01-03T16:50:17.202Z</time>
      </trkpt>
      <trkpt lat="48.42119" lon="5.10121">
        <ele>340.99</ele>
        <time>2025-01-03T16:50:21.195Z</time>
      </trkpt>
      <trkpt lat="48.42135" lon="5.10143">
        <ele>341.22</ele>
        <time>2025-01-03T16:50:25.191Z</time>
      </trkpt>
      <trkpt lat="48.42153" lon="5.10167">
        <ele>341.48</ele>
        <time>2025-01-03T16:50:29.191Z</time>
      </trkpt>
      <trkpt lat="48.4217" lon="5.10192">
        <ele>341.78</ele>
        <time>2025-01-03T16:50:33.195Z</time>
      </trkpt>
      <trkpt lat="48.42186" lon="5.10213">
        <ele>342.06</ele>
        <time>2025-01-03T16:50:37.202Z</time>
      </trkpt>
      <trkpt lat="48.42201" lon="5.10234">
        <ele>342.29</ele>
        <time>2025-01-03T16:50:41.212Z</time>
      </trkpt>
      <trkpt lat="48.42215" lon="5.10253">
        <ele>342.51</ele>
        <time>2025-01-03T16:50:45.225Z</time>
      </trkpt>
      <trkpt lat="48.42228" lon="5.10271">
        <ele>342.74</ele>
        <time>2025-01-03T16:50:49.241Z</time>
      </trkpt>
      <trkpt lat="48.42244" lon="5.10293">
        <ele>342.99</ele>
        <time>2025-01-03T16:50:53.261Z</time>
      </trkpt>
      <trkpt lat="48.42259" lon="5.10315">
        <ele>343.22</ele>
        <time>2025-01-03T16:50:57.284Z</time>
      </trkpt>
      <trkpt lat="48.42273" lon="5.10334">
        <ele>343.41</ele>
        <time>2025-01-03T16:51:01.310Z</time>
      </trkpt>
      <trkpt lat="48.42286" lon="5.10353">
        <ele>343.54</ele>
        <time>2025-01-03T16:51:05.339Z</time>
      </trkpt>
      <trkpt lat="48.42299" lon="5.10374">
        <ele>343.64</ele>
        <time>2025-01-03T16:51:09.371Z</time>
      </trkpt>
      <trkpt lat="48.42312" lon="5.10394">
        <ele>343.78</ele>
        <time>2025-01-03T16:51:13.406Z</time>
      </trkpt>
      <trkpt lat="48.4233" lon="5.10421">
        <ele>343.99</ele>
        <time>2025-01-03T16:51:17.445Z</time>
      </trkpt>
      <trkpt lat="48.42347" lon="5.10449">
        <ele>344</ele>
        <time>2025-01-03T16:51:21.488Z</time>
      </trkpt>
      <trkpt lat="48.4236" lon="5.10469">
        <ele>343.86</ele>
        <time>2025-01-03T16:51:25.534Z</time>
      </trkpt>
      <trkpt lat="48.42369" lon="5.10482">
        <ele>343.61</ele>
        <time>2025-01-03T16:51:29.582Z</time>
      </trkpt>
      <trkpt lat="48.42381" lon="5.10507">
        <ele>343.28</ele>
        <time>2025-01-03T16:51:33.633Z</time>
      </trkpt>
      <trkpt lat="48.42394" lon="5.10531">
        <ele>342.93</ele>
        <time>2025-01-03T16:51:37.688Z</time>
      </trkpt>
      <trkpt lat="48.42409" lon="5.10563">
        <ele>342.59</ele>
        <time>2025-01-03T16:51:41.747Z</time>
      </trkpt>
      <trkpt lat="48.42425" lon="5.10594">
        <ele>342.14</ele>
        <time>2025-01-03T16:51:45.810Z</time>
      </trkpt>
      <trkpt lat="48.42441" lon="5.10628">
        <ele>341.68</ele>
        <time>2025-01-03T16:51:49.877Z</time>
      </trkpt>
      <trkpt lat="48.42457" lon="5.10661">
        <ele>341.19</ele>
        <time>2025-01-03T16:51:53.949Z</time>
      </trkpt>
      <trkpt lat="48.42474" lon="5.10695">
        <ele>340.59</ele>
        <time>2025-01-03T16:51:58.025Z</time>
      </trkpt>
      <trkpt lat="48.4249" lon="5.10729">
        <ele>339.98</ele>
        <time>2025-01-03T16:52:02.106Z</time>
      </trkpt>
      <trkpt lat="48.42503" lon="5.10745">
        <ele>339.46</ele>
        <time>2025-01-03T16:52:06.189Z</time>
      </trkpt>
      <trkpt lat="48.42516" lon="5.10762">
        <ele>339.01</ele>
        <time>2025-01-03T16:52:10.275Z</time>
      </trkpt>
      <trkpt lat="48.42522" lon="5.10769">
        <ele>338.65</ele>
        <time>2025-01-03T16:52:14.363Z</time>
      </trkpt>
      <trkpt lat="48.42529" lon="5.10774">
        <ele>338.36</ele>
        <time>2025-01-03T16:52:18.452Z</time>
      </trkpt>
      <trkpt lat="48.42544" lon="5.10779">
        <ele>338.2</ele>
        <time>2025-01-03T16:52:22.543Z</time>
      </trkpt>
      <trkpt lat="48.42551" lon="5.10781">
        <ele>338.05</ele>
        <time>2025-01-03T16:52:26.635Z</time>
      </trkpt>
      <trkpt lat="48.42582" lon="5.10781">
        <ele>338</ele>
        <time>2025-01-03T16:52:30.732Z</time>
      </trkpt>
      <trkpt lat="48.42605" lon="5.10782">
        <ele>337.96</ele>
        <time>2025-01-03T16:52:34.833Z</time>
      </trkpt>
      <trkpt lat="48.42627" lon="5.10782">
        <ele>337.9</ele>
        <time>2025-01-03T16:52:38.937Z</time>
      </trkpt>
      <trkpt lat="48.42652" lon="5.10782">
        <ele>337.83</ele>
        <time>2025-01-03T16:52:43.045Z</time>
      </trkpt>
      <trkpt lat="48.42676" lon="5.10783">
        <ele>337.89</ele>
        <time>2025-01-03T16:52:47.157Z</time>
      </trkpt>
      <trkpt lat="48.42696" lon="5.10783">
        <ele>338.21</ele>
        <time>2025-01-03T16:52:51.273Z</time>
      </trkpt>
      <trkpt lat="48.42717" lon="5.10783">
        <ele>338.5</ele>
        <time>2025-01-03T16:52:55.392Z</time>
      </trkpt>
      <trkpt lat="48.42724" lon="5.10784">
        <ele>338.74</ele>
        <time>2025-01-03T16:52:59.512Z</time>
      </trkpt>
      <trkpt lat="48.42737" lon="5.10784">
        <ele>339</ele>
        <time>2025-01-03T16:53:03.634Z</time>
      </trkpt>
      <trkpt lat="48.42756" lon="5.10784">
        <ele>339.3</ele>
        <time>2025-01-03T16:53:07.759Z</time>
      </trkpt>
      <trkpt lat="48.42775" lon="5.10785">
        <ele>339.54</ele>
        <time>2025-01-03T16:53:11.887Z</time>
      </trkpt>
      <trkpt lat="48.428" lon="5.10785">
        <ele>339.84</ele>
        <time>2025-01-03T16:53:16.019Z</time>
      </trkpt>
      <trkpt lat="48.42812" lon="5.10785">
        <ele>340.03</ele>
        <time>2025-01-03T16:53:20.153Z</time>
      </trkpt>
      <trkpt lat="48.42836" lon="5.10786">
        <ele>340.17</ele>
        <time>2025-01-03T16:53:24.291Z</time>
      </trkpt>
      <trkpt lat="48.42848" lon="5.10786">
        <ele>340.19</ele>
        <time>2025-01-03T16:53:28.431Z</time>
      </trkpt>
      <trkpt lat="48.4287" lon="5.10786">
        <ele>340.15</ele>
        <time>2025-01-03T16:53:32.574Z</time>
      </trkpt>
      <trkpt lat="48.42891" lon="5.10787">
        <ele>340.04</ele>
        <time>2025-01-03T16:53:36.721Z</time>
      </trkpt>
      <trkpt lat="48.42912" lon="5.10787">
        <ele>339.9</ele>
        <time>2025-01-03T16:53:40.871Z</time>
      </trkpt>
      <trkpt lat="48.42932" lon="5.10787">
        <ele>339.55</ele>
        <time>2025-01-03T16:53:45.024Z</time>
      </trkpt>
      <trkpt lat="48.42953" lon="5.10788">
        <ele>339.14</ele>
        <time>2025-01-03T16:53:49.181Z</time>
      </trkpt>
      <trkpt lat="48.42974" lon="5.10788">
        <ele>338.64</ele>
        <time>2025-01-03T16:53:53.341Z</time>
      </trkpt>
      <trkpt lat="48.42992" lon="5.10788">
        <ele>338.01</ele>
        <time>2025-01-03T16:53:57.504Z</time>
      </trkpt>
      <trkpt lat="48.4301" lon="5.10789">
        <ele>337.26</ele>
        <time>2025-01-03T16:54:01.670Z</time>
      </trkpt>
      <trkpt lat="48.43026" lon="5.10789">
        <ele>336.42</ele>
        <time>2025-01-03T16:54:05.838Z</time>
      </trkpt>
      <trkpt lat="48.43043" lon="5.10789">
        <ele>335.48</ele>
        <time>2025-01-03T16:54:10.009Z</time>
      </trkpt>
      <trkpt lat="48.43062" lon="5.1079">
        <ele>334.47</ele>
        <time>2025-01-03T16:54:14.183Z</time>
      </trkpt>
      <trkpt lat="48.4308" lon="5.10791">
        <ele>333.43</ele>
        <time>2025-01-03T16:54:18.360Z</time>
      </trkpt>
      <trkpt lat="48.43085" lon="5.10791">
        <ele>332.35</ele>
        <time>2025-01-03T16:54:22.538Z</time>
      </trkpt>
      <trkpt lat="48.43095" lon="5.10799">
        <ele>331.17</ele>
        <time>2025-01-03T16:54:26.718Z</time>
      </trkpt>
      <trkpt lat="48.43104" lon="5.10807">
        <ele>329.9</ele>
        <time>2025-01-03T16:54:30.899Z</time>
      </trkpt>
      <trkpt lat="48.43118" lon="5.10833">
        <ele>328.48</ele>
        <time>2025-01-03T16:54:35.084Z</time>
      </trkpt>
      <trkpt lat="48.43132" lon="5.10856">
        <ele>326.97</ele>
        <time>2025-01-03T16:54:39.272Z</time>
      </trkpt>
      <trkpt lat="48.43147" lon="5.1088">
        <ele>325.35</ele>
        <time>2025-01-03T16:54:43.464Z</time>
      </trkpt>
      <trkpt lat="48.43161" lon="5.10901">
        <ele>323.65</ele>
        <time>2025-01-03T16:54:47.659Z</time>
      </trkpt>
      <trkpt lat="48.43175" lon="5.10923">
        <ele>321.92</ele>
        <time>2025-01-03T16:54:51.857Z</time>
      </trkpt>
      <trkpt lat="48.43197" lon="5.10956">
        <ele>320.11</ele>
        <time>2025-01-03T16:54:56.060Z</time>
      </trkpt>
      <trkpt lat="48.43218" lon="5.1099">
        <ele>318.2</ele>
        <time>2025-01-03T16:55:00.268Z</time>
      </trkpt>
      <trkpt lat="48.43237" lon="5.11023">
        <ele>316.32</ele>
        <time>2025-01-03T16:55:04.481Z</time>
      </trkpt>
      <trkpt lat="48.43255" lon="5.11056">
        <ele>314.45</ele>
        <time>2025-01-03T16:55:08.698Z</time>
      </trkpt>
      <trkpt lat="48.43262" lon="5.1107">
        <ele>312.6</ele>
        <time>2025-01-03T16:55:12.917Z</time>
      </trkpt>
      <trkpt lat="48.43279" lon="5.11106">
        <ele>310.65</ele>
        <time>2025-01-03T16:55:17.141Z</time>
      </trkpt>
      <trkpt lat="48.43296" lon="5.11142">
        <ele>308.66</ele>
        <time>2025-01-03T16:55:21.369Z</time>
      </trkpt>
      <trkpt lat="48.4331" lon="5.11179">
        <ele>306.71</ele>
        <time>2025-01-03T16:55:25.602Z</time>
      </trkpt>
      <trkpt lat="48.43324" lon="5.11216">
        <ele>304.78</ele>
        <time>2025-01-03T16:55:29.839Z</time>
      </trkpt>
      <trkpt lat="48.43332" lon="5.11248">
        <ele>302.95</ele>
        <time>2025-01-03T16:55:34.080Z</time>
      </trkpt>
      <trkpt lat="48.4334" lon="5.11287">
        <ele>301.17</ele>
        <time>2025-01-03T16:55:38.325Z</time>
      </trkpt>
      <trkpt lat="48.43348" lon="5.11326">
        <ele>299.4</ele>
        <time>2025-01-03T16:55:42.575Z</time>
      </trkpt>
      <trkpt lat="48.43354" lon="5.11366">
        <ele>297.68</ele>
        <time>2025-01-03T16:55:46.829Z</time>
      </trkpt>
      <trkpt lat="48.43361" lon="5.11406">
        <ele>296</ele>
        <time>2025-01-03T16:55:51.088Z</time>
      </trkpt>
      <trkpt lat="48.43364" lon="5.11439">
        <ele>294.39</ele>
        <time>2025-01-03T16:55:55.350Z</time>
      </trkpt>
      <trkpt lat="48.43369" lon="5.11471">
        <ele>292.9</ele>
        <time>2025-01-03T16:55:59.616Z</time>
      </trkpt>
      <trkpt lat="48.43373" lon="5.11503">
        <ele>291.54</ele>
        <time>2025-01-03T16:56:03.885Z</time>
      </trkpt>
      <trkpt lat="48.43378" lon="5.11518">
        <ele>290.22</ele>
        <time>2025-01-03T16:56:08.156Z</time>
      </trkpt>
      <trkpt lat="48.43389" lon="5.11549">
        <ele>288.94</ele>
        <time>2025-01-03T16:56:12.431Z</time>
      </trkpt>
      <trkpt lat="48.434" lon="5.11579">
        <ele>287.63</ele>
        <time>2025-01-03T16:56:16.709Z</time>
      </trkpt>
      <trkpt lat="48.43415" lon="5.11616">
        <ele>286.3</ele>
        <time>2025-01-03T16:56:20.992Z</time>
      </trkpt>
      <trkpt lat="48.4343" lon="5.11652">
        <ele>285</ele>
        <time>2025-01-03T16:56:25.280Z</time>
      </trkpt>
      <trkpt lat="48.43448" lon="5.11686">
        <ele>283.62</ele>
        <time>2025-01-03T16:56:29.572Z</time>
      </trkpt>
      <trkpt lat="48.43465" lon="5.11719">
        <ele>282.45</ele>
        <time>2025-01-03T16:56:33.869Z</time>
      </trkpt>
      <trkpt lat="48.43481" lon="5.11744">
        <ele>281.34</ele>
        <time>2025-01-03T16:56:38.169Z</time>
      </trkpt>
      <trkpt lat="48.435" lon="5.11776">
        <ele>279.99</ele>
        <time>2025-01-03T16:56:42.474Z</time>
      </trkpt>
      <trkpt lat="48.43519" lon="5.11808">
        <ele>278.69</ele>
        <time>2025-01-03T16:56:46.783Z</time>
      </trkpt>
      <trkpt lat="48.43531" lon="5.11828">
        <ele>277.45</ele>
        <time>2025-01-03T16:56:51.095Z</time>
      </trkpt>
      <trkpt lat="48.43543" lon="5.11848">
        <ele>276.23</ele>
        <time>2025-01-03T16:56:55.410Z</time>
      </trkpt>
      <trkpt lat="48.43553" lon="5.1187">
        <ele>274.91</ele>
        <time>2025-01-03T16:56:59.728Z</time>
      </trkpt>
      <trkpt lat="48.43563" lon="5.11892">
        <ele>273.61</ele>
        <time>2025-01-03T16:57:04.049Z</time>
      </trkpt>
      <trkpt lat="48.43567" lon="5.11909">
        <ele>272.22</ele>
        <time>2025-01-03T16:57:08.372Z</time>
      </trkpt>
      <trkpt lat="48.43577" lon="5.11952">
        <ele>270.69</ele>
        <time>2025-01-03T16:57:12.700Z</time>
      </trkpt>
      <trkpt lat="48.43587" lon="5.11995">
        <ele>269.17</ele>
        <time>2025-01-03T16:57:17.032Z</time>
      </trkpt>
      <trkpt lat="48.43597" lon="5.12036">
        <ele>267.61</ele>
        <time>2025-01-03T16:57:21.369Z</time>
      </trkpt>
      <trkpt lat="48.43606" lon="5.12077">
        <ele>266.21</ele>
        <time>2025-01-03T16:57:25.711Z</time>
      </trkpt>
      <trkpt lat="48.43614" lon="5.12111">
        <ele>264.61</ele>
        <time>2025-01-03T16:57:30.056Z</time>
      </trkpt>
      <trkpt lat="48.43622" lon="5.12141">
        <ele>262.97</ele>
        <time>2025-01-03T16:57:34.405Z</time>
      </trkpt>
      <trkpt lat="48.43631" lon="5.12172">
        <ele>261.25</ele>
        <time>2025-01-03T16:57:38.758Z</time>
      </trkpt>
      <trkpt lat="48.43644" lon="5.12197">
        <ele>259.73</ele>
        <time>2025-01-03T16:57:43.114Z</time>
      </trkpt>
      <trkpt lat="48.43657" lon="5.12223">
        <ele>258.2</ele>
        <time>2025-01-03T16:57:47.473Z</time>
      </trkpt>
      <trkpt lat="48.43669" lon="5.12251">
        <ele>256.62</ele>
        <time>2025-01-03T16:57:51.836Z</time>
      </trkpt>
      <trkpt lat="48.43682" lon="5.12279">
        <ele>255.03</ele>
        <time>2025-01-03T16:57:56.203Z</time>
      </trkpt>
      <trkpt lat="48.43693" lon="5.12308">
        <ele>253.43</ele>
        <time>2025-01-03T16:58:00.573Z</time>
      </trkpt>
      <trkpt lat="48.43704" lon="5.12337">
        <ele>251.88</ele>
        <time>2025-01-03T16:58:04.947Z</time>
      </trkpt>
      <trkpt lat="48.4371" lon="5.12351">
        <ele>250.39</ele>
        <time>2025-01-03T16:58:09.322Z</time>
      </trkpt>
      <trkpt lat="48.43725" lon="5.12378">
        <ele>248.87</ele>
        <time>2025-01-03T16:58:13.701Z</time>
      </trkpt>
      <trkpt lat="48.43739" lon="5.12405">
        <ele>247.24</ele>
        <time>2025-01-03T16:58:18.084Z</time>
      </trkpt>
      <trkpt lat="48.43758" lon="5.12437">
        <ele>245.63</ele>
        <time>2025-01-03T16:58:22.471Z</time>
      </trkpt>
      <trkpt lat="48.43777" lon="5.12469">
        <ele>244.12</ele>
        <time>2025-01-03T16:58:26.863Z</time>
      </trkpt>
      <trkpt lat="48.43784" lon="5.12482">
        <ele>242.63</ele>
        <time>2025-01-03T16:58:31.257Z</time>
      </trkpt>
      <trkpt lat="48.43797" lon="5.12511">
        <ele>241.07</ele>
        <time>2025-01-03T16:58:35.655Z</time>
      </trkpt>
      <trkpt lat="48.43809" lon="5.12541">
        <ele>239.62</ele>
        <time>2025-01-03T16:58:40.056Z</time>
      </trkpt>
      <trkpt lat="48.43819" lon="5.12582">
        <ele>238.12</ele>
        <time>2025-01-03T16:58:44.462Z</time>
      </trkpt>
      <trkpt lat="48.43828" lon="5.12623">
        <ele>236.73</ele>
        <time>2025-01-03T16:58:48.873Z</time>
      </trkpt>
      <trkpt lat="48.43835" lon="5.12666">
        <ele>235.43</ele>
        <time>2025-01-03T16:58:53.288Z</time>
      </trkpt>
      <trkpt lat="48.43841" lon="5.12709">
        <ele>234.08</ele>
        <time>2025-01-03T16:58:57.708Z</time>
      </trkpt>
      <trkpt lat="48.43843" lon="5.12726">
        <ele>232.72</ele>
        <time>2025-01-03T16:59:02.130Z</time>
      </trkpt>
      <trkpt lat="48.43849" lon="5.12769">
        <ele>231.35</ele>
        <time>2025-01-03T16:59:06.556Z</time>
      </trkpt>
      <trkpt lat="48.43854" lon="5.12813">
        <ele>230.02</ele>
        <time>2025-01-03T16:59:10.987Z</time>
      </trkpt>
      <trkpt lat="48.43858" lon="5.12838">
        <ele>228.6</ele>
        <time>2025-01-03T16:59:15.421Z</time>
      </trkpt>
      <trkpt lat="48.43861" lon="5.12863">
        <ele>227.23</ele>
        <time>2025-01-03T16:59:19.858Z</time>
      </trkpt>
      <trkpt lat="48.43868" lon="5.12903">
        <ele>225.8</ele>
        <time>2025-01-03T16:59:24.299Z</time>
      </trkpt>
      <trkpt lat="48.43875" lon="5.12942">
        <ele>224.5</ele>
        <time>2025-01-03T16:59:28.744Z</time>
      </trkpt>
      <trkpt lat="48.43887" lon="5.12971">
        <ele>223.41</ele>
        <time>2025-01-03T16:59:33.193Z</time>
      </trkpt>
      <trkpt lat="48.43898" lon="5.12999">
        <ele>222.45</ele>
        <time>2025-01-03T16:59:37.645Z</time>
      </trkpt>
      <trkpt lat="48.43912" lon="5.13031">
        <ele>221.44</ele>
        <time>2025-01-03T16:59:42.101Z</time>
      </trkpt>
      <trkpt lat="48.43925" lon="5.13063">
        <ele>220.43</ele>
        <time>2025-01-03T16:59:46.562Z</time>
      </trkpt>
      <trkpt lat="48.43935" lon="5.13087">
        <ele>219.36</ele>
        <time>2025-01-03T16:59:51.025Z</time>
      </trkpt>
      <trkpt lat="48.43944" lon="5.13109">
        <ele>218.31</ele>
        <time>2025-01-03T16:59:55.491Z</time>
      </trkpt>
      <trkpt lat="48.43953" lon="5.13131">
        <ele>217.39</ele>
        <time>2025-01-03T16:59:59.960Z</time>
      </trkpt>
      <trkpt lat="48.43963" lon="5.13155">
        <ele>216.45</ele>
        <time>2025-01-03T17:00:04.432Z</time>
      </trkpt>
      <trkpt lat="48.43972" lon="5.1318">
        <ele>215.56</ele>
        <time>2025-01-03T17:00:08.907Z</time>
      </trkpt>
      <trkpt lat="48.43975" lon="5.13191">
        <ele>214.72</ele>
        <time>2025-01-03T17:00:13.383Z</time>
      </trkpt>
      <trkpt lat="48.43974" lon="5.13195">
        <ele>213.88</ele>
        <time>2025-01-03T17:00:17.860Z</time>
      </trkpt>
      <trkpt lat="48.43975" lon="5.13191">
        <ele>213.15</ele>
        <time>2025-01-03T17:00:22.337Z</time>
      </trkpt>
      <trkpt lat="48.43972" lon="5.1318">
        <ele>212.43</ele>
        <time>2025-01-03T17:00:26.815Z</time>
      </trkpt>
      <trkpt lat="48.43965" lon="5.13183">
        <ele>211.58</ele>
        <time>2025-01-03T17:00:31.295Z</time>
      </trkpt>
      <trkpt lat="48.43964" lon="5.13187">
        <ele>210.84</ele>
        <time>2025-01-03T17:00:35.775Z</time>
      </trkpt>
      <trkpt lat="48.43965" lon="5.13195">
        <ele>210.12</ele>
        <time>2025-01-03T17:00:40.256Z</time>
      </trkpt>
      <trkpt lat="48.43966" lon="5.13225">
        <ele>209.34</ele>
        <time>2025-01-03T17:00:44.740Z</time>
      </trkpt>
      <trkpt lat="48.43958" lon="5.13242">
        <ele>208.57</ele>
        <time>2025-01-03T17:00:49.226Z</time>
      </trkpt>
      <trkpt lat="48.43949" lon="5.13254">
        <ele>207.86</ele>
        <time>2025-01-03T17:00:53.714Z</time>
      </trkpt>
      <trkpt lat="48.43947" lon="5.13274">
        <ele>207.26</ele>
        <time>2025-01-03T17:00:58.204Z</time>
      </trkpt>
      <trkpt lat="48.43947" lon="5.133">
        <ele>206.76</ele>
        <time>2025-01-03T17:01:02.697Z</time>
      </trkpt>
      <trkpt lat="48.43947" lon="5.13313">
        <ele>206.31</ele>
        <time>2025-01-03T17:01:07.192Z</time>
      </trkpt>
      <trkpt lat="48.43956" lon="5.13317">
        <ele>205.92</ele>
        <time>2025-01-03T17:01:11.688Z</time>
      </trkpt>
      <trkpt lat="48.43959" lon="5.13318">
        <ele>205.56</ele>
        <time>2025-01-03T17:01:16.185Z</time>
      </trkpt>
      <trkpt lat="48.4396" lon="5.13317">
        <ele>205.23</ele>
        <time>2025-01-03T17:01:20.682Z</time>
      </trkpt>
      <trkpt lat="48.43947" lon="5.13324">
        <ele>204.9</ele>
        <time>2025-01-03T17:01:25.181Z</time>
      </trkpt>
      <trkpt lat="48.43947" lon="5.13324">
        <ele>204.63</ele>
        <time>2025-01-03T17:01:29.680Z</time>
      </trkpt>
      <trkpt lat="48.43947" lon="5.13318">
        <ele>204.39</ele>
        <time>2025-01-03T17:01:34.180Z</time>
      </trkpt>
      <trkpt lat="48.43947" lon="5.13316">
        <ele>204.17</ele>
        <time>2025-01-03T17:01:38.680Z</time>
      </trkpt>
      <trkpt lat="48.43945" lon="5.13324">
        <ele>203.96</ele>
        <time>2025-01-03T17:01:43.181Z</time>
      </trkpt>
      <trkpt lat="48.43947" lon="5.13325">
        <ele>203.76</ele>
        <time>2025-01-03T17:01:47.682Z</time>
      </trkpt>
      <trkpt lat="48.43947" lon="5.13326">
        <ele>203.58</ele>
        <time>2025-01-03T17:01:52.183Z</time>
      </trkpt>
      <trkpt lat="48.43947" lon="5.1333">
        <ele>203.39</ele>
        <time>2025-01-03T17:01:56.685Z</time>
      </trkpt>
      <trkpt lat="48.43947" lon="5.13333">
        <ele>203.21</ele>
        <time>2025-01-03T17:02:01.187Z</time>
      </trkpt>
      <trkpt lat="48.43946" lon="5.13353">
        <ele>203.01</ele>
        <time>2025-01-03T17:02:05.691Z</time>
      </trkpt>
      <trkpt lat="48.43944" lon="5.13396">
        <ele>202.83</ele>
        <time>2025-01-03T17:02:10.200Z</time>
      </trkpt>
      <trkpt lat="48.43941" lon="5.13422">
        <ele>202.62</ele>
        <time>2025-01-03T17:02:14.711Z</time>
      </trkpt>
      <trkpt lat="48.43938" lon="5.13447">
        <ele>202.42</ele>
        <time>2025-01-03T17:02:19.225Z</time>
      </trkpt>
      <trkpt lat="48.43933" lon="5.13473">
        <ele>202.2</ele>
        <time>2025-01-03T17:02:23.742Z</time>
      </trkpt>
      <trkpt lat="48.43929" lon="5.135">
        <ele>201.94</ele>
        <time>2025-01-03T17:02:28.262Z</time>
      </trkpt>
      <trkpt lat="48.43926" lon="5.13514">
        <ele>201.68</ele>
        <time>2025-01-03T17:02:32.784Z</time>
      </trkpt>
      <trkpt lat="48.43927" lon="5.13509">
        <ele>201.47</ele>
        <time>2025-01-03T17:02:37.306Z</time>
      </trkpt>
      <trkpt lat="48.43926" lon="5.13519">
        <ele>201.2</ele>
        <time>2025-01-03T17:02:41.829Z</time>
      </trkpt>
      <trkpt lat="48.43906" lon="5.1351">
        <ele>200.96</ele>
        <time>2025-01-03T17:02:46.355Z</time>
      </trkpt>
      <trkpt lat="48.43926" lon="5.13519">
        <ele>201.2</ele>
        <time>2025-01-03T17:02:50.885Z</time>
      </trkpt>
      <trkpt lat="48.43925" lon="5.1353">
        <ele>200.37</ele>
        <time>2025-01-03T17:02:55.416Z</time>
      </trkpt>
      <trkpt lat="48.43939" lon="5.13543">
        <ele>200.06</ele>
        <time>2025-01-03T17:02:59.950Z</time>
      </trkpt>
      <trkpt lat="48.4394" lon="5.13546">
        <ele>199.76</ele>
        <time>2025-01-03T17:03:04.484Z</time>
      </trkpt>
      <trkpt lat="48.4394" lon="5.1355">
        <ele>199.45</ele>
        <time>2025-01-03T17:03:09.018Z</time>
      </trkpt>
      <trkpt lat="48.43942" lon="5.13559">
        <ele>199.12</ele>
        <time>2025-01-03T17:03:13.553Z</time>
      </trkpt>
      <trkpt lat="48.43943" lon="5.13566">
        <ele>198.79</ele>
        <time>2025-01-03T17:03:18.089Z</time>
      </trkpt>
      <trkpt lat="48.43944" lon="5.13575">
        <ele>198.45</ele>
        <time>2025-01-03T17:03:22.626Z</time>
      </trkpt>
      <trkpt lat="48.43948" lon="5.13601">
        <ele>198.07</ele>
        <time>2025-01-03T17:03:27.166Z</time>
      </trkpt>
      <trkpt lat="48.43953" lon="5.1362">
        <ele>197.7</ele>
        <time>2025-01-03T17:03:31.708Z</time>
      </trkpt>
      <trkpt lat="48.43955" lon="5.13634">
        <ele>197.36</ele>
        <time>2025-01-03T17:03:36.252Z</time>
      </trkpt>
      <trkpt lat="48.43953" lon="5.13639">
        <ele>197.04</ele>
        <time>2025-01-03T17:03:40.796Z</time>
      </trkpt>
      <trkpt lat="48.43939" lon="5.13643">
        <ele>196.7</ele>
        <time>2025-01-03T17:03:45.343Z</time>
      </trkpt>
      <trkpt lat="48.43916" lon="5.1365">
        <ele>196.42</ele>
        <time>2025-01-03T17:03:49.893Z</time>
      </trkpt>
      <trkpt lat="48.43899" lon="5.13656">
        <ele>196.09</ele>
        <time>2025-01-03T17:03:54.446Z</time>
      </trkpt>
      <trkpt lat="48.43883" lon="5.13661">
        <ele>195.77</ele>
        <time>2025-01-03T17:03:59.002Z</time>
      </trkpt>
      <trkpt lat="48.43867" lon="5.13668">
        <ele>195.49</ele>
        <time>2025-01-03T17:04:03.560Z</time>
      </trkpt>
      <trkpt lat="48.43852" lon="5.13674">
        <ele>195.21</ele>
        <time>2025-01-03T17:04:08.121Z</time>
      </trkpt>
      <trkpt lat="48.43832" lon="5.13683">
        <ele>194.91</ele>
        <time>2025-01-03T17:04:12.685Z</time>
      </trkpt>
      <trkpt lat="48.43813" lon="5.13692">
        <ele>194.61</ele>
        <time>2025-01-03T17:04:17.252Z</time>
      </trkpt>
      <trkpt lat="48.4379" lon="5.13702">
        <ele>194.32</ele>
        <time>2025-01-03T17:04:21.823Z</time>
      </trkpt>
      <trkpt lat="48.43768" lon="5.13711">
        <ele>194.11</ele>
        <time>2025-01-03T17:04:26.398Z</time>
      </trkpt>
      <trkpt lat="48.43745" lon="5.13719">
        <ele>193.93</ele>
        <time>2025-01-03T17:04:30.977Z</time>
      </trkpt>
      <trkpt lat="48.43722" lon="5.13726">
        <ele>193.81</ele>
        <time>2025-01-03T17:04:35.559Z</time>
      </trkpt>
      <trkpt lat="48.437" lon="5.13731">
        <ele>193.67</ele>
        <time>2025-01-03T17:04:40.145Z</time>
      </trkpt>
      <trkpt lat="48.43678" lon="5.13736">
        <ele>193.52</ele>
        <time>2025-01-03T17:04:44.734Z</time>
      </trkpt>
      <trkpt lat="48.43652" lon="5.13742">
        <ele>193.39</ele>
        <time>2025-01-03T17:04:49.328Z</time>
      </trkpt>
      <trkpt lat="48.43625" lon="5.13748">
        <ele>193.28</ele>
        <time>2025-01-03T17:04:53.926Z</time>
      </trkpt>
      <trkpt lat="48.43601" lon="5.13753">
        <ele>193.17</ele>
        <time>2025-01-03T17:04:58.528Z</time>
      </trkpt>
      <trkpt lat="48.43576" lon="5.13759">
        <ele>193.01</ele>
        <time>2025-01-03T17:05:03.134Z</time>
      </trkpt>
      <trkpt lat="48.4355" lon="5.13764">
        <ele>192.82</ele>
        <time>2025-01-03T17:05:07.744Z</time>
      </trkpt>
      <trkpt lat="48.43522" lon="5.13769">
        <ele>192.78</ele>
        <time>2025-01-03T17:05:12.359Z</time>
      </trkpt>
      <trkpt lat="48.43494" lon="5.13774">
        <ele>192.72</ele>
        <time>2025-01-03T17:05:16.978Z</time>
      </trkpt>
      <trkpt lat="48.43465" lon="5.1378">
        <ele>192.67</ele>
        <time>2025-01-03T17:05:21.602Z</time>
      </trkpt>
      <trkpt lat="48.43458" lon="5.13781">
        <ele>192.61</ele>
        <time>2025-01-03T17:05:26.227Z</time>
      </trkpt>
      <trkpt lat="48.43439" lon="5.13785">
        <ele>192.56</ele>
        <time>2025-01-03T17:05:30.855Z</time>
      </trkpt>
      <trkpt lat="48.43419" lon="5.13789">
        <ele>192.54</ele>
        <time>2025-01-03T17:05:35.486Z</time>
      </trkpt>
      <trkpt lat="48.43394" lon="5.13793">
        <ele>192.54</ele>
        <time>2025-01-03T17:05:40.121Z</time>
      </trkpt>
      <trkpt lat="48.4337" lon="5.13798">
        <ele>192.51</ele>
        <time>2025-01-03T17:05:44.760Z</time>
      </trkpt>
      <trkpt lat="48.43348" lon="5.13802">
        <ele>192.46</ele>
        <time>2025-01-03T17:05:49.403Z</time>
      </trkpt>
      <trkpt lat="48.43326" lon="5.13806">
        <ele>192.43</ele>
        <time>2025-01-03T17:05:54.049Z</time>
      </trkpt>
      <trkpt lat="48.43303" lon="5.13811">
        <ele>192.36</ele>
        <time>2025-01-03T17:05:58.699Z</time>
      </trkpt>
      <trkpt lat="48.43279" lon="5.13815">
        <ele>192.25</ele>
        <time>2025-01-03T17:06:03.353Z</time>
      </trkpt>
      <trkpt lat="48.43258" lon="5.1382">
        <ele>192.22</ele>
        <time>2025-01-03T17:06:08.010Z</time>
      </trkpt>
      <trkpt lat="48.43236" lon="5.13825">
        <ele>192.24</ele>
        <time>2025-01-03T17:06:12.671Z</time>
      </trkpt>
      <trkpt lat="48.43209" lon="5.1383">
        <ele>192.28</ele>
        <time>2025-01-03T17:06:17.336Z</time>
      </trkpt>
      <trkpt lat="48.43182" lon="5.13836">
        <ele>192.31</ele>
        <time>2025-01-03T17:06:22.006Z</time>
      </trkpt>
      <trkpt lat="48.43154" lon="5.13842">
        <ele>192.48</ele>
        <time>2025-01-03T17:06:26.680Z</time>
      </trkpt>
      <trkpt lat="48.43126" lon="5.13847">
        <ele>192.78</ele>
        <time>2025-01-03T17:06:31.359Z</time>
      </trkpt>
      <trkpt lat="48.4312" lon="5.13848">
        <ele>192.94</ele>
        <time>2025-01-03T17:06:36.039Z</time>
      </trkpt>
      <trkpt lat="48.43102" lon="5.13851">
        <ele>193.11</ele>
        <time>2025-01-03T17:06:40.722Z</time>
      </trkpt>
      <trkpt lat="48.43083" lon="5.13853">
        <ele>193.24</ele>
        <time>2025-01-03T17:06:45.407Z</time>
      </trkpt>
      <trkpt lat="48.43059" lon="5.13858">
        <ele>193.26</ele>
        <time>2025-01-03T17:06:50.096Z</time>
      </trkpt>
      <trkpt lat="48.43035" lon="5.13862">
        <ele>193.43</ele>
        <time>2025-01-03T17:06:54.789Z</time>
      </trkpt>
      <trkpt lat="48.43007" lon="5.13866">
        <ele>193.64</ele>
        <time>2025-01-03T17:06:59.487Z</time>
      </trkpt>
      <trkpt lat="48.42979" lon="5.13871">
        <ele>193.94</ele>
        <time>2025-01-03T17:07:04.189Z</time>
      </trkpt>
      <trkpt lat="48.42972" lon="5.13872">
        <ele>194.23</ele>
        <time>2025-01-03T17:07:08.892Z</time>
      </trkpt>
      <trkpt lat="48.42948" lon="5.13876">
        <ele>194.59</ele>
        <time>2025-01-03T17:07:13.599Z</time>
      </trkpt>
      <trkpt lat="48.42924" lon="5.1388">
        <ele>194.98</ele>
        <time>2025-01-03T17:07:18.310Z</time>
      </trkpt>
      <trkpt lat="48.42901" lon="5.13883">
        <ele>195.41</ele>
        <time>2025-01-03T17:07:23.025Z</time>
      </trkpt>
      <trkpt lat="48.42878" lon="5.13886">
        <ele>195.82</ele>
        <time>2025-01-03T17:07:27.744Z</time>
      </trkpt>
      <trkpt lat="48.42859" lon="5.13889">
        <ele>196.19</ele>
        <time>2025-01-03T17:07:32.466Z</time>
      </trkpt>
      <trkpt lat="48.42839" lon="5.13892">
        <ele>196.54</ele>
        <time>2025-01-03T17:07:37.191Z</time>
      </trkpt>
      <trkpt lat="48.42823" lon="5.13894">
        <ele>196.82</ele>
        <time>2025-01-03T17:07:41.918Z</time>
      </trkpt>
      <trkpt lat="48.42821" lon="5.13895">
        <ele>197.1</ele>
        <time>2025-01-03T17:07:46.646Z</time>
      </trkpt>
      <trkpt lat="48.42815" lon="5.13895">
        <ele>197.36</ele>
        <time>2025-01-03T17:07:51.375Z</time>
      </trkpt>
      <trkpt lat="48.42813" lon="5.13896">
        <ele>197.62</ele>
        <time>2025-01-03T17:07:56.104Z</time>
      </trkpt>
      <trkpt lat="48.42808" lon="5.13896">
        <ele>197.86</ele>
        <time>2025-01-03T17:08:00.834Z</time>
      </trkpt>
      <trkpt lat="48.42794" lon="5.13899">
        <ele>198.06</ele>
        <time>2025-01-03T17:08:05.566Z</time>
      </trkpt>
      <trkpt lat="48.42767" lon="5.13904">
        <ele>198.23</ele>
        <time>2025-01-03T17:08:10.302Z</time>
      </trkpt>
      <trkpt lat="48.42745" lon="5.13907">
        <ele>198.43</ele>
        <time>2025-01-03T17:08:15.042Z</time>
      </trkpt>
      <trkpt lat="48.42735" lon="5.13909">
        <ele>198.63</ele>
        <time>2025-01-03T17:08:19.784Z</time>
      </trkpt>
      <trkpt lat="48.42716" lon="5.13912">
        <ele>198.84</ele>
        <time>2025-01-03T17:08:24.529Z</time>
      </trkpt>
      <trkpt lat="48.42698" lon="5.13916">
        <ele>199.06</ele>
        <time>2025-01-03T17:08:29.277Z</time>
      </trkpt>
      <trkpt lat="48.42668" lon="5.13921">
        <ele>199.26</ele>
        <time>2025-01-03T17:08:34.029Z</time>
      </trkpt>
      <trkpt lat="48.42646" lon="5.13925">
        <ele>199.37</ele>
        <time>2025-01-03T17:08:38.785Z</time>
      </trkpt>
      <trkpt lat="48.42643" lon="5.13925">
        <ele>199.43</ele>
        <time>2025-01-03T17:08:43.541Z</time>
      </trkpt>
      <trkpt lat="48.42642" lon="5.13925">
        <ele>199.46</ele>
        <time>2025-01-03T17:08:48.298Z</time>
      </trkpt>
      <trkpt lat="48.42643" lon="5.13938">
        <ele>199.45</ele>
        <time>2025-01-03T17:08:53.056Z</time>
      </trkpt>
      <trkpt lat="48.42644" lon="5.13938">
        <ele>199.42</ele>
        <time>2025-01-03T17:08:57.814Z</time>
      </trkpt>
      <trkpt lat="48.42643" lon="5.13936">
        <ele>199.37</ele>
        <time>2025-01-03T17:09:02.572Z</time>
      </trkpt>
      <trkpt lat="48.42641" lon="5.13926">
        <ele>199.29</ele>
        <time>2025-01-03T17:09:07.332Z</time>
      </trkpt>
      <trkpt lat="48.42638" lon="5.13926">
        <ele>199.17</ele>
        <time>2025-01-03T17:09:12.092Z</time>
      </trkpt>
      <trkpt lat="48.42636" lon="5.13926">
        <ele>199.03</ele>
        <time>2025-01-03T17:09:16.852Z</time>
      </trkpt>
      <trkpt lat="48.42634" lon="5.13927">
        <ele>198.87</ele>
        <time>2025-01-03T17:09:21.613Z</time>
      </trkpt>
      <trkpt lat="48.42626" lon="5.13928">
        <ele>198.69</ele>
        <time>2025-01-03T17:09:26.375Z</time>
      </trkpt>
      <trkpt lat="48.42605" lon="5.13932">
        <ele>198.48</ele>
        <time>2025-01-03T17:09:31.140Z</time>
      </trkpt>
      <trkpt lat="48.42587" lon="5.13935">
        <ele>198.17</ele>
        <time>2025-01-03T17:09:35.908Z</time>
      </trkpt>
      <trkpt lat="48.42569" lon="5.13938">
        <ele>197.88</ele>
        <time>2025-01-03T17:09:40.679Z</time>
      </trkpt>
      <trkpt lat="48.42551" lon="5.13941">
        <ele>197.62</ele>
        <time>2025-01-03T17:09:45.453Z</time>
      </trkpt>
      <trkpt lat="48.42532" lon="5.13944">
        <ele>197.43</ele>
        <time>2025-01-03T17:09:50.230Z</time>
      </trkpt>
      <trkpt lat="48.42511" lon="5.13948">
        <ele>197.29</ele>
        <time>2025-01-03T17:09:55.010Z</time>
      </trkpt>
      <trkpt lat="48.4249" lon="5.13951">
        <ele>197.16</ele>
        <time>2025-01-03T17:09:59.794Z</time>
      </trkpt>
      <trkpt lat="48.42472" lon="5.13954">
        <ele>197.01</ele>
        <time>2025-01-03T17:10:04.581Z</time>
      </trkpt>
      <trkpt lat="48.42455" lon="5.13957">
        <ele>196.89</ele>
        <time>2025-01-03T17:10:09.370Z</time>
      </trkpt>
      <trkpt lat="48.42431" lon="5.13961">
        <ele>196.8</ele>
        <time>2025-01-03T17:10:14.163Z</time>
      </trkpt>
      <trkpt lat="48.42429" lon="5.13962">
        <ele>196.72</ele>
        <time>2025-01-03T17:10:18.957Z</time>
      </trkpt>
      <trkpt lat="48.42424" lon="5.13957">
        <ele>196.66</ele>
        <time>2025-01-03T17:10:23.752Z</time>
      </trkpt>
      <trkpt lat="48.42424" lon="5.13955">
        <ele>196.6</ele>
        <time>2025-01-03T17:10:28.547Z</time>
      </trkpt>
      <trkpt lat="48.42425" lon="5.13952">
        <ele>196.56</ele>
        <time>2025-01-03T17:10:33.342Z</time>
      </trkpt>
      <trkpt lat="48.42425" lon="5.13945">
        <ele>196.54</ele>
        <time>2025-01-03T17:10:38.138Z</time>
      </trkpt>
      <trkpt lat="48.42436" lon="5.13919">
        <ele>196.51</ele>
        <time>2025-01-03T17:10:42.937Z</time>
      </trkpt>
      <trkpt lat="48.42454" lon="5.1389">
        <ele>196.5</ele>
        <time>2025-01-03T17:10:47.740Z</time>
      </trkpt>
      <trkpt lat="48.42475" lon="5.13861">
        <ele>196.52</ele>
        <time>2025-01-03T17:10:52.548Z</time>
      </trkpt>
      <trkpt lat="48.42494" lon="5.13835">
        <ele>196.57</ele>
        <time>2025-01-03T17:10:57.360Z</time>
      </trkpt>
      <trkpt lat="48.425" lon="5.13818">
        <ele>196.67</ele>
        <time>2025-01-03T17:11:02.174Z</time>
      </trkpt>
      <trkpt lat="48.425" lon="5.13814">
        <ele>196.73</ele>
        <time>2025-01-03T17:11:06.988Z</time>
      </trkpt>
      <trkpt lat="48.42501" lon="5.1381">
        <ele>196.79</ele>
        <time>2025-01-03T17:11:11.803Z</time>
      </trkpt>
      <trkpt lat="48.425" lon="5.13816">
        <ele>196.82</ele>
        <time>2025-01-03T17:11:16.618Z</time>
      </trkpt>
      <trkpt lat="48.42499" lon="5.13823">
        <ele>196.85</ele>
        <time>2025-01-03T17:11:21.434Z</time>
      </trkpt>
      <trkpt lat="48.42495" lon="5.13833">
        <ele>196.86</ele>
        <time>2025-01-03T17:11:26.252Z</time>
      </trkpt>
      <trkpt lat="48.42488" lon="5.13842">
        <ele>196.86</ele>
        <time>2025-01-03T17:11:31.071Z</time>
      </trkpt>
      <trkpt lat="48.42467" lon="5.13872">
        <ele>196.92</ele>
        <time>2025-01-03T17:11:35.895Z</time>
      </trkpt>
      <trkpt lat="48.42455" lon="5.1389">
        <ele>196.96</ele>
        <time>2025-01-03T17:11:40.721Z</time>
      </trkpt>
      <trkpt lat="48.42442" lon="5.13907">
        <ele>196.98</ele>
        <time>2025-01-03T17:11:45.550Z</time>
      </trkpt>
      <trkpt lat="48.42434" lon="5.13924">
        <ele>197.02</ele>
        <time>2025-01-03T17:11:50.381Z</time>
      </trkpt>
      <trkpt lat="48.42429" lon="5.13934">
        <ele>197.03</ele>
        <time>2025-01-03T17:11:55.214Z</time>
      </trkpt>
      <trkpt lat="48.42425" lon="5.13949">
        <ele>197.03</ele>
        <time>2025-01-03T17:12:00.048Z</time>
      </trkpt>
      <trkpt lat="48.42424" lon="5.13963">
        <ele>197.01</ele>
        <time>2025-01-03T17:12:04.884Z</time>
      </trkpt>
      <trkpt lat="48.42418" lon="5.13966">
        <ele>196.97</ele>
        <time>2025-01-03T17:12:09.721Z</time>
      </trkpt>
      <trkpt lat="48.42407" lon="5.13973">
        <ele>196.95</ele>
        <time>2025-01-03T17:12:14.560Z</time>
      </trkpt>
      <trkpt lat="48.42402" lon="5.13975">
        <ele>196.87</ele>
        <time>2025-01-03T17:12:19.400Z</time>
      </trkpt>
      <trkpt lat="48.42402" lon="5.13975">
        <ele>196.76</ele>
        <time>2025-01-03T17:12:24.240Z</time>
      </trkpt>
      <trkpt lat="48.42399" lon="5.13982">
        <ele>196.61</ele>
        <time>2025-01-03T17:12:29.080Z</time>
      </trkpt>
      <trkpt lat="48.42399" lon="5.13984">
        <ele>196.43</ele>
        <time>2025-01-03T17:12:33.921Z</time>
      </trkpt>
      <trkpt lat="48.42403" lon="5.14005">
        <ele>196.21</ele>
        <time>2025-01-03T17:12:38.764Z</time>
      </trkpt>
      <trkpt lat="48.4241" lon="5.14039">
        <ele>195.93</ele>
        <time>2025-01-03T17:12:43.611Z</time>
      </trkpt>
      <trkpt lat="48.42418" lon="5.14077">
        <ele>195.64</ele>
        <time>2025-01-03T17:12:48.462Z</time>
      </trkpt>
      <trkpt lat="48.42421" lon="5.14095">
        <ele>195.33</ele>
        <time>2025-01-03T17:12:53.315Z</time>
      </trkpt>
      <trkpt lat="48.42422" lon="5.14097">
        <ele>195.04</ele>
        <time>2025-01-03T17:12:58.168Z</time>
      </trkpt>
      <trkpt lat="48.42413" lon="5.14103">
        <ele>194.78</ele>
        <time>2025-01-03T17:13:03.023Z</time>
      </trkpt>
      <trkpt lat="48.42405" lon="5.14108">
        <ele>194.49</ele>
        <time>2025-01-03T17:13:07.879Z</time>
      </trkpt>
      <trkpt lat="48.42409" lon="5.14139">
        <ele>194.12</ele>
        <time>2025-01-03T17:13:12.738Z</time>
      </trkpt>
      <trkpt lat="48.42401" lon="5.14124">
        <ele>193.86</ele>
        <time>2025-01-03T17:13:17.599Z</time>
      </trkpt>
      <trkpt lat="48.42409" lon="5.1414">
        <ele>193.51</ele>
        <time>2025-01-03T17:13:22.463Z</time>
      </trkpt>
      <trkpt lat="48.42409" lon="5.14146">
        <ele>193.2</ele>
        <time>2025-01-03T17:13:27.327Z</time>
      </trkpt>
      <trkpt lat="48.4241" lon="5.14155">
        <ele>192.9</ele>
        <time>2025-01-03T17:13:32.192Z</time>
      </trkpt>
      <trkpt lat="48.4241" lon="5.14156">
        <ele>192.62</ele>
        <time>2025-01-03T17:13:37.057Z</time>
      </trkpt>
      <trkpt lat="48.4241" lon="5.1416">
        <ele>192.35</ele>
        <time>2025-01-03T17:13:41.923Z</time>
      </trkpt>
      <trkpt lat="48.4241" lon="5.14162">
        <ele>192.1</ele>
        <time>2025-01-03T17:13:46.789Z</time>
      </trkpt>
      <trkpt lat="48.42405" lon="5.1414">
        <ele>191.95</ele>
        <time>2025-01-03T17:13:51.657Z</time>
      </trkpt>
      <trkpt lat="48.4241" lon="5.1416">
        <ele>191.7</ele>
        <time>2025-01-03T17:13:56.528Z</time>
      </trkpt>
      <trkpt lat="48.42414" lon="5.14186">
        <ele>191.47</ele>
        <time>2025-01-03T17:14:01.402Z</time>
      </trkpt>
      <trkpt lat="48.42421" lon="5.14213">
        <ele>191.33</ele>
        <time>2025-01-03T17:14:06.279Z</time>
      </trkpt>
      <trkpt lat="48.42426" lon="5.14223">
        <ele>191.22</ele>
        <time>2025-01-03T17:14:11.157Z</time>
      </trkpt>
      <trkpt lat="48.4243" lon="5.1422">
        <ele>191.16</ele>
        <time>2025-01-03T17:14:16.036Z</time>
      </trkpt>
      <trkpt lat="48.4244" lon="5.14211">
        <ele>191.12</ele>
        <time>2025-01-03T17:14:20.917Z</time>
      </trkpt>
      <trkpt lat="48.42443" lon="5.14208">
        <ele>191.15</ele>
        <time>2025-01-03T17:14:25.798Z</time>
      </trkpt>
      <trkpt lat="48.42442" lon="5.14199">
        <ele>191.25</ele>
        <time>2025-01-03T17:14:30.680Z</time>
      </trkpt>
      <trkpt lat="48.42439" lon="5.14182">
        <ele>191.4</ele>
        <time>2025-01-03T17:14:35.564Z</time>
      </trkpt>
      <trkpt lat="48.42433" lon="5.14154">
        <ele>191.59</ele>
        <time>2025-01-03T17:14:40.451Z</time>
      </trkpt>
      <trkpt lat="48.42427" lon="5.14125">
        <ele>191.84</ele>
        <time>2025-01-03T17:14:45.341Z</time>
      </trkpt>
      <trkpt lat="48.42426" lon="5.1412">
        <ele>192.1</ele>
        <time>2025-01-03T17:14:50.232Z</time>
      </trkpt>
      <trkpt lat="48.42426" lon="5.14128">
        <ele>192.38</ele>
        <time>2025-01-03T17:14:55.124Z</time>
      </trkpt>
      <trkpt lat="48.42428" lon="5.14128">
        <ele>192.7</ele>
        <time>2025-01-03T17:15:00.016Z</time>
      </trkpt>
      <trkpt lat="48.42429" lon="5.14127">
        <ele>193.07</ele>
        <time>2025-01-03T17:15:04.908Z</time>
      </trkpt>
      <trkpt lat="48.42427" lon="5.14124">
        <ele>193.49</ele>
        <time>2025-01-03T17:15:09.801Z</time>
      </trkpt>
      <trkpt lat="48.42423" lon="5.14106">
        <ele>193.99</ele>
        <time>2025-01-03T17:15:14.696Z</time>
      </trkpt>
      <trkpt lat="48.42423" lon="5.14103">
        <ele>194.47</ele>
        <time>2025-01-03T17:15:19.591Z</time>
      </trkpt>
      <trkpt lat="48.42413" lon="5.14104">
        <ele>195</ele>
        <time>2025-01-03T17:15:24.487Z</time>
      </trkpt>
      <trkpt lat="48.42413" lon="5.14104">
        <ele>195.53</ele>
        <time>2025-01-03T17:15:29.383Z</time>
      </trkpt>
      <trkpt lat="48.42407" lon="5.14107">
        <ele>196.07</ele>
        <time>2025-01-03T17:15:34.280Z</time>
      </trkpt>
      <trkpt lat="48.42404" lon="5.14108">
        <ele>196.63</ele>
        <time>2025-01-03T17:15:39.178Z</time>
      </trkpt>
      <trkpt lat="48.42385" lon="5.14115">
        <ele>197.23</ele>
        <time>2025-01-03T17:15:44.079Z</time>
      </trkpt>
      <trkpt lat="48.42366" lon="5.14106">
        <ele>197.86</ele>
        <time>2025-01-03T17:15:48.983Z</time>
      </trkpt>
      <trkpt lat="48.42354" lon="5.14087">
        <ele>198.5</ele>
        <time>2025-01-03T17:15:53.890Z</time>
      </trkpt>
      <trkpt lat="48.42346" lon="5.14057">
        <ele>199.13</ele>
        <time>2025-01-03T17:15:58.801Z</time>
      </trkpt>
      <trkpt lat="48.42342" lon="5.1404">
        <ele>199.71</ele>
        <time>2025-01-03T17:16:03.713Z</time>
      </trkpt>
      <trkpt lat="48.42337" lon="5.14031">
        <ele>200.25</ele>
        <time>2025-01-03T17:16:08.627Z</time>
      </trkpt>
      <trkpt lat="48.42334" lon="5.1403">
        <ele>200.75</ele>
        <time>2025-01-03T17:16:13.541Z</time>
      </trkpt>
      <trkpt lat="48.42325" lon="5.14041">
        <ele>201.2</ele>
        <time>2025-01-03T17:16:18.457Z</time>
      </trkpt>
      <trkpt lat="48.42305" lon="5.14065">
        <ele>201.7</ele>
        <time>2025-01-03T17:16:23.377Z</time>
      </trkpt>
      <trkpt lat="48.42292" lon="5.1408">
        <ele>202.09</ele>
        <time>2025-01-03T17:16:28.300Z</time>
      </trkpt>
      <trkpt lat="48.4228" lon="5.14095">
        <ele>202.45</ele>
        <time>2025-01-03T17:16:33.225Z</time>
      </trkpt>
      <trkpt lat="48.42268" lon="5.14111">
        <ele>202.73</ele>
        <time>2025-01-03T17:16:38.153Z</time>
      </trkpt>
      <trkpt lat="48.42255" lon="5.14126">
        <ele>202.99</ele>
        <time>2025-01-03T17:16:43.083Z</time>
      </trkpt>
      <trkpt lat="48.4224" lon="5.14146">
        <ele>203.13</ele>
        <time>2025-01-03T17:16:48.017Z</time>
      </trkpt>
      <trkpt lat="48.42236" lon="5.1415">
        <ele>203.2</ele>
        <time>2025-01-03T17:16:52.951Z</time>
      </trkpt>
      <trkpt lat="48.42221" lon="5.1417">
        <ele>203.2</ele>
        <time>2025-01-03T17:16:57.889Z</time>
      </trkpt>
      <trkpt lat="48.42206" lon="5.1419">
        <ele>203.1</ele>
        <time>2025-01-03T17:17:02.830Z</time>
      </trkpt>
      <trkpt lat="48.42193" lon="5.14205">
        <ele>202.92</ele>
        <time>2025-01-03T17:17:07.773Z</time>
      </trkpt>
      <trkpt lat="48.42181" lon="5.1422">
        <ele>202.74</ele>
        <time>2025-01-03T17:17:12.719Z</time>
      </trkpt>
      <trkpt lat="48.42158" lon="5.14247">
        <ele>202.52</ele>
        <time>2025-01-03T17:17:17.670Z</time>
      </trkpt>
      <trkpt lat="48.42138" lon="5.14271">
        <ele>202.35</ele>
        <time>2025-01-03T17:17:22.625Z</time>
      </trkpt>
      <trkpt lat="48.42118" lon="5.14294">
        <ele>202.2</ele>
        <time>2025-01-03T17:17:27.584Z</time>
      </trkpt>
      <trkpt lat="48.42099" lon="5.14316">
        <ele>202.02</ele>
        <time>2025-01-03T17:17:32.547Z</time>
      </trkpt>
      <trkpt lat="48.42081" lon="5.14338">
        <ele>201.74</ele>
        <time>2025-01-03T17:17:37.513Z</time>
      </trkpt>
      <trkpt lat="48.42056" lon="5.14366">
        <ele>201.47</ele>
        <time>2025-01-03T17:17:42.484Z</time>
      </trkpt>
      <trkpt lat="48.42032" lon="5.14395">
        <ele>201.12</ele>
        <time>2025-01-03T17:17:47.460Z</time>
      </trkpt>
      <trkpt lat="48.42009" lon="5.14422">
        <ele>200.87</ele>
        <time>2025-01-03T17:17:52.441Z</time>
      </trkpt>
      <trkpt lat="48.41986" lon="5.14449">
        <ele>200.7</ele>
        <time>2025-01-03T17:17:57.427Z</time>
      </trkpt>
      <trkpt lat="48.41972" lon="5.14465">
        <ele>200.51</ele>
        <time>2025-01-03T17:18:02.415Z</time>
      </trkpt>
      <trkpt lat="48.4195" lon="5.14492">
        <ele>200.34</ele>
        <time>2025-01-03T17:18:07.408Z</time>
      </trkpt>
      <trkpt lat="48.41927" lon="5.14519">
        <ele>200.2</ele>
        <time>2025-01-03T17:18:12.406Z</time>
      </trkpt>
      <trkpt lat="48.4192" lon="5.14526">
        <ele>200.03</ele>
        <time>2025-01-03T17:18:17.405Z</time>
      </trkpt>
      <trkpt lat="48.41897" lon="5.14554">
        <ele>199.87</ele>
        <time>2025-01-03T17:18:22.409Z</time>
      </trkpt>
      <trkpt lat="48.41873" lon="5.14582">
        <ele>199.76</ele>
        <time>2025-01-03T17:18:27.418Z</time>
      </trkpt>
      <trkpt lat="48.4185" lon="5.14609">
        <ele>199.59</ele>
        <time>2025-01-03T17:18:32.431Z</time>
      </trkpt>
      <trkpt lat="48.41827" lon="5.14636">
        <ele>199.39</ele>
        <time>2025-01-03T17:18:37.449Z</time>
      </trkpt>
      <trkpt lat="48.41805" lon="5.14662">
        <ele>199.14</ele>
        <time>2025-01-03T17:18:42.471Z</time>
      </trkpt>
      <trkpt lat="48.41783" lon="5.14688">
        <ele>198.85</ele>
        <time>2025-01-03T17:18:47.498Z</time>
      </trkpt>
      <trkpt lat="48.41777" lon="5.14695">
        <ele>198.61</ele>
        <time>2025-01-03T17:18:52.526Z</time>
      </trkpt>
      <trkpt lat="48.41753" lon="5.14722">
        <ele>198.38</ele>
        <time>2025-01-03T17:18:57.559Z</time>
      </trkpt>
      <trkpt lat="48.4173" lon="5.1475">
        <ele>198.14</ele>
        <time>2025-01-03T17:19:02.597Z</time>
      </trkpt>
      <trkpt lat="48.41724" lon="5.14757">
        <ele>197.9</ele>
        <time>2025-01-03T17:19:07.636Z</time>
      </trkpt>
      <trkpt lat="48.41704" lon="5.14781">
        <ele>197.65</ele>
        <time>2025-01-03T17:19:12.679Z</time>
      </trkpt>
      <trkpt lat="48.41683" lon="5.14805">
        <ele>197.34</ele>
        <time>2025-01-03T17:19:17.726Z</time>
      </trkpt>
      <trkpt lat="48.41658" lon="5.14834">
        <ele>197.02</ele>
        <time>2025-01-03T17:19:22.778Z</time>
      </trkpt>
      <trkpt lat="48.41634" lon="5.14863">
        <ele>196.76</ele>
        <time>2025-01-03T17:19:27.835Z</time>
      </trkpt>
      <trkpt lat="48.41609" lon="5.14887">
        <ele>196.5</ele>
        <time>2025-01-03T17:19:32.897Z</time>
      </trkpt>
      <trkpt lat="48.41584" lon="5.14912">
        <ele>196.28</ele>
        <time>2025-01-03T17:19:37.964Z</time>
      </trkpt>
      <trkpt lat="48.41559" lon="5.14928">
        <ele>196.14</ele>
        <time>2025-01-03T17:19:43.035Z</time>
      </trkpt>
      <trkpt lat="48.41534" lon="5.14944">
        <ele>196.02</ele>
        <time>2025-01-03T17:19:48.111Z</time>
      </trkpt>
      <trkpt lat="48.41506" lon="5.14962">
        <ele>195.92</ele>
        <time>2025-01-03T17:19:53.191Z</time>
      </trkpt>
      <trkpt lat="48.41479" lon="5.1498">
        <ele>195.84</ele>
        <time>2025-01-03T17:19:58.276Z</time>
      </trkpt>
      <trkpt lat="48.41471" lon="5.14985">
        <ele>195.77</ele>
        <time>2025-01-03T17:20:03.362Z</time>
      </trkpt>
      <trkpt lat="48.41447" lon="5.15002">
        <ele>195.68</ele>
        <time>2025-01-03T17:20:08.453Z</time>
      </trkpt>
      <trkpt lat="48.41422" lon="5.15018">
        <ele>195.6</ele>
        <time>2025-01-03T17:20:13.548Z</time>
      </trkpt>
      <trkpt lat="48.41396" lon="5.15034">
        <ele>195.66</ele>
        <time>2025-01-03T17:20:18.648Z</time>
      </trkpt>
      <trkpt lat="48.4137" lon="5.15051">
        <ele>195.66</ele>
        <time>2025-01-03T17:20:23.752Z</time>
      </trkpt>
      <trkpt lat="48.41364" lon="5.15055">
        <ele>195.61</ele>
        <time>2025-01-03T17:20:28.857Z</time>
      </trkpt>
      <trkpt lat="48.41338" lon="5.15072">
        <ele>195.54</ele>
        <time>2025-01-03T17:20:33.967Z</time>
      </trkpt>
      <trkpt lat="48.41313" lon="5.15089">
        <ele>195.48</ele>
        <time>2025-01-03T17:20:39.081Z</time>
      </trkpt>
      <trkpt lat="48.41295" lon="5.15098">
        <ele>195.35</ele>
        <time>2025-01-03T17:20:44.198Z</time>
      </trkpt>
      <trkpt lat="48.41268" lon="5.15121">
        <ele>195.22</ele>
        <time>2025-01-03T17:20:49.320Z</time>
      </trkpt>
      <trkpt lat="48.41241" lon="5.15144">
        <ele>195.14</ele>
        <time>2025-01-03T17:20:54.447Z</time>
      </trkpt>
      <trkpt lat="48.41214" lon="5.15168">
        <ele>195.06</ele>
        <time>2025-01-03T17:20:59.579Z</time>
      </trkpt>
      <trkpt lat="48.41187" lon="5.15191">
        <ele>194.97</ele>
        <time>2025-01-03T17:21:04.716Z</time>
      </trkpt>
      <trkpt lat="48.4116" lon="5.15214">
        <ele>194.82</ele>
        <time>2025-01-03T17:21:09.858Z</time>
      </trkpt>
      <trkpt lat="48.41133" lon="5.15237">
        <ele>194.68</ele>
        <time>2025-01-03T17:21:15.005Z</time>
      </trkpt>
      <trkpt lat="48.41106" lon="5.1526">
        <ele>194.6</ele>
        <time>2025-01-03T17:21:20.157Z</time>
      </trkpt>
      <trkpt lat="48.4108" lon="5.15284">
        <ele>194.53</ele>
        <time>2025-01-03T17:21:25.314Z</time>
      </trkpt>
      <trkpt lat="48.41053" lon="5.15307">
        <ele>194.4</ele>
        <time>2025-01-03T17:21:30.476Z</time>
      </trkpt>
      <trkpt lat="48.41026" lon="5.1533">
        <ele>194.24</ele>
        <time>2025-01-03T17:21:35.643Z</time>
      </trkpt>
      <trkpt lat="48.40999" lon="5.15353">
        <ele>194.08</ele>
        <time>2025-01-03T17:21:40.815Z</time>
      </trkpt>
      <trkpt lat="48.40971" lon="5.15368">
        <ele>194.04</ele>
        <time>2025-01-03T17:21:45.992Z</time>
      </trkpt>
      <trkpt lat="48.40947" lon="5.15375">
        <ele>194.05</ele>
        <time>2025-01-03T17:21:51.172Z</time>
      </trkpt>
      <trkpt lat="48.40917" lon="5.15375">
        <ele>194.12</ele>
        <time>2025-01-03T17:21:56.357Z</time>
      </trkpt>
      <trkpt lat="48.40886" lon="5.15376">
        <ele>194.11</ele>
        <time>2025-01-03T17:22:01.547Z</time>
      </trkpt>
      <trkpt lat="48.40856" lon="5.15376">
        <ele>194.17</ele>
        <time>2025-01-03T17:22:06.742Z</time>
      </trkpt>
      <trkpt lat="48.40825" lon="5.15377">
        <ele>194.32</ele>
        <time>2025-01-03T17:22:11.942Z</time>
      </trkpt>
      <trkpt lat="48.40794" lon="5.15377">
        <ele>194.5</ele>
        <time>2025-01-03T17:22:17.147Z</time>
      </trkpt>
      <trkpt lat="48.40764" lon="5.15377">
        <ele>194.7</ele>
        <time>2025-01-03T17:22:22.357Z</time>
      </trkpt>
      <trkpt lat="48.40733" lon="5.15377">
        <ele>194.8</ele>
        <time>2025-01-03T17:22:27.572Z</time>
      </trkpt>
      <trkpt lat="48.40702" lon="5.15377">
        <ele>194.95</ele>
        <time>2025-01-03T17:22:32.792Z</time>
      </trkpt>
      <trkpt lat="48.40671" lon="5.15377">
        <ele>195.16</ele>
        <time>2025-01-03T17:22:38.017Z</time>
      </trkpt>
      <trkpt lat="48.40641" lon="5.15377">
        <ele>195.32</ele>
        <time>2025-01-03T17:22:43.247Z</time>
      </trkpt>
      <trkpt lat="48.40613" lon="5.15379">
        <ele>195.47</ele>
        <time>2025-01-03T17:22:48.481Z</time>
      </trkpt>
      <trkpt lat="48.40587" lon="5.15388">
        <ele>195.56</ele>
        <time>2025-01-03T17:22:53.719Z</time>
      </trkpt>
      <trkpt lat="48.40563" lon="5.15404">
        <ele>195.72</ele>
        <time>2025-01-03T17:22:58.961Z</time>
      </trkpt>
      <trkpt lat="48.4054" lon="5.1542">
        <ele>195.88</ele>
        <time>2025-01-03T17:23:04.208Z</time>
      </trkpt>
      <trkpt lat="48.40533" lon="5.15424">
        <ele>196.04</ele>
        <time>2025-01-03T17:23:09.456Z</time>
      </trkpt>
      <trkpt lat="48.40527" lon="5.1543">
        <ele>196.2</ele>
        <time>2025-01-03T17:23:14.705Z</time>
      </trkpt>
      <trkpt lat="48.40506" lon="5.15443">
        <ele>196.39</ele>
        <time>2025-01-03T17:23:19.957Z</time>
      </trkpt>
      <trkpt lat="48.40485" lon="5.15456">
        <ele>196.53</ele>
        <time>2025-01-03T17:23:25.213Z</time>
      </trkpt>
      <trkpt lat="48.40465" lon="5.15469">
        <ele>196.69</ele>
        <time>2025-01-03T17:23:30.473Z</time>
      </trkpt>
      <trkpt lat="48.40435" lon="5.15479">
        <ele>196.85</ele>
        <time>2025-01-03T17:23:35.738Z</time>
      </trkpt>
      <trkpt lat="48.40405" lon="5.15488">
        <ele>197.01</ele>
        <time>2025-01-03T17:23:41.008Z</time>
      </trkpt>
      <trkpt lat="48.40381" lon="5.15488">
        <ele>197.17</ele>
        <time>2025-01-03T17:23:46.281Z</time>
      </trkpt>
      <trkpt lat="48.40357" lon="5.15484">
        <ele>197.37</ele>
        <time>2025-01-03T17:23:51.558Z</time>
      </trkpt>
      <trkpt lat="48.40334" lon="5.1548">
        <ele>197.52</ele>
        <time>2025-01-03T17:23:56.839Z</time>
      </trkpt>
      <trkpt lat="48.40304" lon="5.15471">
        <ele>197.66</ele>
        <time>2025-01-03T17:24:02.125Z</time>
      </trkpt>
      <trkpt lat="48.40286" lon="5.1546">
        <ele>197.75</ele>
        <time>2025-01-03T17:24:07.414Z</time>
      </trkpt>
      <trkpt lat="48.40269" lon="5.15445">
        <ele>197.79</ele>
        <time>2025-01-03T17:24:12.706Z</time>
      </trkpt>
      <trkpt lat="48.40251" lon="5.15422">
        <ele>197.83</ele>
        <time>2025-01-03T17:24:18.002Z</time>
      </trkpt>
      <trkpt lat="48.40232" lon="5.15398">
        <ele>197.87</ele>
        <time>2025-01-03T17:24:23.302Z</time>
      </trkpt>
      <trkpt lat="48.40213" lon="5.15375">
        <ele>197.94</ele>
        <time>2025-01-03T17:24:28.606Z</time>
      </trkpt>
      <trkpt lat="48.40194" lon="5.15351">
        <ele>198.03</ele>
        <time>2025-01-03T17:24:33.914Z</time>
      </trkpt>
      <trkpt lat="48.40179" lon="5.15336">
        <ele>198.12</ele>
        <time>2025-01-03T17:24:39.225Z</time>
      </trkpt>
      <trkpt lat="48.40164" lon="5.15321">
        <ele>198.19</ele>
        <time>2025-01-03T17:24:44.538Z</time>
      </trkpt>
      <trkpt lat="48.40143" lon="5.1531">
        <ele>198.32</ele>
        <time>2025-01-03T17:24:49.855Z</time>
      </trkpt>
      <trkpt lat="48.40121" lon="5.15306">
        <ele>198.28</ele>
        <time>2025-01-03T17:24:55.176Z</time>
      </trkpt>
      <trkpt lat="48.40098" lon="5.15302">
        <ele>198.19</ele>
        <time>2025-01-03T17:25:00.500Z</time>
      </trkpt>
      <trkpt lat="48.40076" lon="5.15297">
        <ele>197.99</ele>
        <time>2025-01-03T17:25:05.828Z</time>
      </trkpt>
      <trkpt lat="48.40073" lon="5.1533">
        <ele>197.54</ele>
        <time>2025-01-03T17:25:11.159Z</time>
      </trkpt>
      <trkpt lat="48.4007" lon="5.15362">
        <ele>197.2</ele>
        <time>2025-01-03T17:25:16.494Z</time>
      </trkpt>
      <trkpt lat="48.40071" lon="5.15409">
        <ele>197.01</ele>
        <time>2025-01-03T17:25:21.834Z</time>
      </trkpt>
      <trkpt lat="48.40072" lon="5.15456">
        <ele>196.83</ele>
        <time>2025-01-03T17:25:27.179Z</time>
      </trkpt>
      <trkpt lat="48.40073" lon="5.15491">
        <ele>196.55</ele>
        <time>2025-01-03T17:25:32.528Z</time>
      </trkpt>
      <trkpt lat="48.40075" lon="5.15526">
        <ele>196.17</ele>
        <time>2025-01-03T17:25:37.880Z</time>
      </trkpt>
      <trkpt lat="48.40076" lon="5.15561">
        <ele>195.87</ele>
        <time>2025-01-03T17:25:43.236Z</time>
      </trkpt>
      <trkpt lat="48.40076" lon="5.15583">
        <ele>195.56</ele>
        <time>2025-01-03T17:25:48.594Z</time>
      </trkpt>
      <trkpt lat="48.40076" lon="5.15615">
        <ele>195.27</ele>
        <time>2025-01-03T17:25:53.956Z</time>
      </trkpt>
      <trkpt lat="48.40078" lon="5.1563">
        <ele>194.95</ele>
        <time>2025-01-03T17:25:59.319Z</time>
      </trkpt>
      <trkpt lat="48.40078" lon="5.15641">
        <ele>194.63</ele>
        <time>2025-01-03T17:26:04.684Z</time>
      </trkpt>
      <trkpt lat="48.40078" lon="5.15675">
        <ele>194.29</ele>
        <time>2025-01-03T17:26:10.052Z</time>
      </trkpt>
      <trkpt lat="48.40079" lon="5.15712">
        <ele>193.94</ele>
        <time>2025-01-03T17:26:15.424Z</time>
      </trkpt>
      <trkpt lat="48.40081" lon="5.15748">
        <ele>193.67</ele>
        <time>2025-01-03T17:26:20.800Z</time>
      </trkpt>
      <trkpt lat="48.40081" lon="5.15763">
        <ele>193.41</ele>
        <time>2025-01-03T17:26:26.178Z</time>
      </trkpt>
      <trkpt lat="48.40082" lon="5.15809">
        <ele>193.19</ele>
        <time>2025-01-03T17:26:31.560Z</time>
      </trkpt>
      <trkpt lat="48.40084" lon="5.15854">
        <ele>193</ele>
        <time>2025-01-03T17:26:36.947Z</time>
      </trkpt>
      <trkpt lat="48.40085" lon="5.159">
        <ele>192.82</ele>
        <time>2025-01-03T17:26:42.339Z</time>
      </trkpt>
      <trkpt lat="48.40087" lon="5.15946">
        <ele>192.6</ele>
        <time>2025-01-03T17:26:47.736Z</time>
      </trkpt>
      <trkpt lat="48.40089" lon="5.15991">
        <ele>192.4</ele>
        <time>2025-01-03T17:26:53.138Z</time>
      </trkpt>
      <trkpt lat="48.4009" lon="5.16037">
        <ele>192.23</ele>
        <time>2025-01-03T17:26:58.545Z</time>
      </trkpt>
      <trkpt lat="48.40092" lon="5.16083">
        <ele>192.1</ele>
        <time>2025-01-03T17:27:03.957Z</time>
      </trkpt>
      <trkpt lat="48.40094" lon="5.16128">
        <ele>192.03</ele>
        <time>2025-01-03T17:27:09.374Z</time>
      </trkpt>
      <trkpt lat="48.40095" lon="5.16174">
        <ele>192</ele>
        <time>2025-01-03T17:27:14.795Z</time>
      </trkpt>
      <trkpt lat="48.40097" lon="5.1622">
        <ele>191.91</ele>
        <time>2025-01-03T17:27:20.221Z</time>
      </trkpt>
      <trkpt lat="48.40099" lon="5.16266">
        <ele>191.87</ele>
        <time>2025-01-03T17:27:25.652Z</time>
      </trkpt>
      <trkpt lat="48.401" lon="5.16311">
        <ele>191.95</ele>
        <time>2025-01-03T17:27:31.088Z</time>
      </trkpt>
      <trkpt lat="48.40102" lon="5.16355">
        <ele>192.08</ele>
        <time>2025-01-03T17:27:36.529Z</time>
      </trkpt>
      <trkpt lat="48.40103" lon="5.164">
        <ele>192.21</ele>
        <time>2025-01-03T17:27:41.975Z</time>
      </trkpt>
      <trkpt lat="48.40104" lon="5.16445">
        <ele>192.4</ele>
        <time>2025-01-03T17:27:47.425Z</time>
      </trkpt>
      <trkpt lat="48.40104" lon="5.16465">
        <ele>192.53</ele>
        <time>2025-01-03T17:27:52.878Z</time>
      </trkpt>
      <trkpt lat="48.40101" lon="5.16496">
        <ele>192.67</ele>
        <time>2025-01-03T17:27:58.334Z</time>
      </trkpt>
      <trkpt lat="48.40098" lon="5.16528">
        <ele>192.81</ele>
        <time>2025-01-03T17:28:03.793Z</time>
      </trkpt>
      <trkpt lat="48.40096" lon="5.16559">
        <ele>192.98</ele>
        <time>2025-01-03T17:28:09.256Z</time>
      </trkpt>
      <trkpt lat="48.4008" lon="5.16561">
        <ele>193.22</ele>
        <time>2025-01-03T17:28:14.721Z</time>
      </trkpt>
      <trkpt lat="48.40049" lon="5.16557">
        <ele>193.45</ele>
        <time>2025-01-03T17:28:20.191Z</time>
      </trkpt>
      <trkpt lat="48.40018" lon="5.16554">
        <ele>193.59</ele>
        <time>2025-01-03T17:28:25.666Z</time>
      </trkpt>
      <trkpt lat="48.39987" lon="5.1655">
        <ele>193.69</ele>
        <time>2025-01-03T17:28:31.146Z</time>
      </trkpt>
      <trkpt lat="48.39955" lon="5.16546">
        <ele>193.88</ele>
        <time>2025-01-03T17:28:36.631Z</time>
      </trkpt>
      <trkpt lat="48.39924" lon="5.16542">
        <ele>194.15</ele>
        <time>2025-01-03T17:28:42.121Z</time>
      </trkpt>
      <trkpt lat="48.39893" lon="5.16538">
        <ele>194.4</ele>
        <time>2025-01-03T17:28:47.616Z</time>
      </trkpt>
      <trkpt lat="48.39861" lon="5.16534">
        <ele>194.56</ele>
        <time>2025-01-03T17:28:53.116Z</time>
      </trkpt>
      <trkpt lat="48.3983" lon="5.1653">
        <ele>194.69</ele>
        <time>2025-01-03T17:28:58.621Z</time>
      </trkpt>
      <trkpt lat="48.39799" lon="5.16527">
        <ele>194.94</ele>
        <time>2025-01-03T17:29:04.131Z</time>
      </trkpt>
      <trkpt lat="48.39767" lon="5.16523">
        <ele>195.17</ele>
        <time>2025-01-03T17:29:09.646Z</time>
      </trkpt>
      <trkpt lat="48.39736" lon="5.16519">
        <ele>195.4</ele>
        <time>2025-01-03T17:29:15.166Z</time>
      </trkpt>
      <trkpt lat="48.39705" lon="5.16515">
        <ele>195.61</ele>
        <time>2025-01-03T17:29:20.691Z</time>
      </trkpt>
      <trkpt lat="48.39673" lon="5.16511">
        <ele>195.89</ele>
        <time>2025-01-03T17:29:26.222Z</time>
      </trkpt>
      <trkpt lat="48.39642" lon="5.16507">
        <ele>196.19</ele>
        <time>2025-01-03T17:29:31.758Z</time>
      </trkpt>
      <trkpt lat="48.39611" lon="5.16503">
        <ele>196.4</ele>
        <time>2025-01-03T17:29:37.299Z</time>
      </trkpt>
      <trkpt lat="48.39579" lon="5.16499">
        <ele>196.52</ele>
        <time>2025-01-03T17:29:42.845Z</time>
      </trkpt>
      <trkpt lat="48.39548" lon="5.16496">
        <ele>196.68</ele>
        <time>2025-01-03T17:29:48.396Z</time>
      </trkpt>
      <trkpt lat="48.39517" lon="5.16492">
        <ele>196.89</ele>
        <time>2025-01-03T17:29:53.952Z</time>
      </trkpt>
      <trkpt lat="48.39485" lon="5.16488">
        <ele>197.14</ele>
        <time>2025-01-03T17:29:59.513Z</time>
      </trkpt>
      <trkpt lat="48.39454" lon="5.16484">
        <ele>197.31</ele>
        <time>2025-01-03T17:30:05.079Z</time>
      </trkpt>
      <trkpt lat="48.39423" lon="5.1648">
        <ele>197.43</ele>
        <time>2025-01-03T17:30:10.650Z</time>
      </trkpt>
      <trkpt lat="48.39391" lon="5.16476">
        <ele>197.54</ele>
        <time>2025-01-03T17:30:16.226Z</time>
      </trkpt>
      <trkpt lat="48.3936" lon="5.16472">
        <ele>197.57</ele>
        <time>2025-01-03T17:30:21.807Z</time>
      </trkpt>
      <trkpt lat="48.39329" lon="5.16469">
        <ele>197.59</ele>
        <time>2025-01-03T17:30:27.393Z</time>
      </trkpt>
      <trkpt lat="48.39297" lon="5.16465">
        <ele>197.61</ele>
        <time>2025-01-03T17:30:32.984Z</time>
      </trkpt>
      <trkpt lat="48.39266" lon="5.16461">
        <ele>197.7</ele>
        <time>2025-01-03T17:30:38.580Z</time>
      </trkpt>
      <trkpt lat="48.39235" lon="5.16457">
        <ele>197.85</ele>
        <time>2025-01-03T17:30:44.181Z</time>
      </trkpt>
      <trkpt lat="48.39204" lon="5.16453">
        <ele>198</ele>
        <time>2025-01-03T17:30:49.787Z</time>
      </trkpt>
      <trkpt lat="48.39172" lon="5.16449">
        <ele>198.11</ele>
        <time>2025-01-03T17:30:55.398Z</time>
      </trkpt>
      <trkpt lat="48.39141" lon="5.16445">
        <ele>198.1</ele>
        <time>2025-01-03T17:31:01.014Z</time>
      </trkpt>
      <trkpt lat="48.39111" lon="5.16444">
        <ele>198.11</ele>
        <time>2025-01-03T17:31:06.635Z</time>
      </trkpt>
      <trkpt lat="48.39081" lon="5.16442">
        <ele>198.17</ele>
        <time>2025-01-03T17:31:12.261Z</time>
      </trkpt>
      <trkpt lat="48.39052" lon="5.1644">
        <ele>198.23</ele>
        <time>2025-01-03T17:31:17.891Z</time>
      </trkpt>
      <trkpt lat="48.39022" lon="5.16439">
        <ele>198.18</ele>
        <time>2025-01-03T17:31:23.526Z</time>
      </trkpt>
      <trkpt lat="48.38993" lon="5.16437">
        <ele>198.11</ele>
        <time>2025-01-03T17:31:29.166Z</time>
      </trkpt>
      <trkpt lat="48.38963" lon="5.16429">
        <ele>198.03</ele>
        <time>2025-01-03T17:31:34.811Z</time>
      </trkpt>
      <trkpt lat="48.38933" lon="5.16421">
        <ele>197.98</ele>
        <time>2025-01-03T17:31:40.460Z</time>
      </trkpt>
      <trkpt lat="48.38904" lon="5.16412">
        <ele>197.98</ele>
        <time>2025-01-03T17:31:46.114Z</time>
      </trkpt>
      <trkpt lat="48.38874" lon="5.16404">
        <ele>197.97</ele>
        <time>2025-01-03T17:31:51.773Z</time>
      </trkpt>
      <trkpt lat="48.38845" lon="5.16396">
        <ele>198.01</ele>
        <time>2025-01-03T17:31:57.437Z</time>
      </trkpt>
      <trkpt lat="48.38817" lon="5.16382">
        <ele>198.04</ele>
        <time>2025-01-03T17:32:03.106Z</time>
      </trkpt>
      <trkpt lat="48.38789" lon="5.16368">
        <ele>198.07</ele>
        <time>2025-01-03T17:32:08.779Z</time>
      </trkpt>
      <trkpt lat="48.38762" lon="5.16354">
        <ele>198.1</ele>
        <time>2025-01-03T17:32:14.457Z</time>
      </trkpt>
      <trkpt lat="48.38734" lon="5.1634">
        <ele>198.09</ele>
        <time>2025-01-03T17:32:20.140Z</time>
      </trkpt>
      <trkpt lat="48.38707" lon="5.16326">
        <ele>198.09</ele>
        <time>2025-01-03T17:32:25.827Z</time>
      </trkpt>
      <trkpt lat="48.38679" lon="5.16311">
        <ele>198.1</ele>
        <time>2025-01-03T17:32:31.519Z</time>
      </trkpt>
      <trkpt lat="48.38651" lon="5.16297">
        <ele>198.1</ele>
        <time>2025-01-03T17:32:37.216Z</time>
      </trkpt>
      <trkpt lat="48.38626" lon="5.16282">
        <ele>198.07</ele>
        <time>2025-01-03T17:32:42.917Z</time>
      </trkpt>
      <trkpt lat="48.38601" lon="5.16267">
        <ele>198.03</ele>
        <time>2025-01-03T17:32:48.622Z</time>
      </trkpt>
      <trkpt lat="48.38575" lon="5.16251">
        <ele>197.94</ele>
        <time>2025-01-03T17:32:54.332Z</time>
      </trkpt>
      <trkpt lat="48.3855" lon="5.16236">
        <ele>197.84</ele>
        <time>2025-01-03T17:33:00.046Z</time>
      </trkpt>
      <trkpt lat="48.38524" lon="5.16221">
        <ele>197.77</ele>
        <time>2025-01-03T17:33:05.765Z</time>
      </trkpt>
      <trkpt lat="48.38499" lon="5.16205">
        <ele>197.64</ele>
        <time>2025-01-03T17:33:11.488Z</time>
      </trkpt>
      <trkpt lat="48.38473" lon="5.1619">
        <ele>197.59</ele>
        <time>2025-01-03T17:33:17.215Z</time>
      </trkpt>
      <trkpt lat="48.38447" lon="5.16176">
        <ele>197.53</ele>
        <time>2025-01-03T17:33:22.947Z</time>
      </trkpt>
      <trkpt lat="48.3842" lon="5.16162">
        <ele>197.42</ele>
        <time>2025-01-03T17:33:28.683Z</time>
      </trkpt>
      <trkpt lat="48.38393" lon="5.16148">
        <ele>197.32</ele>
        <time>2025-01-03T17:33:34.424Z</time>
      </trkpt>
      <trkpt lat="48.38367" lon="5.16133">
        <ele>197.22</ele>
        <time>2025-01-03T17:33:40.169Z</time>
      </trkpt>
      <trkpt lat="48.3834" lon="5.16119">
        <ele>197.15</ele>
        <time>2025-01-03T17:33:45.919Z</time>
      </trkpt>
      <trkpt lat="48.38311" lon="5.1611">
        <ele>197.08</ele>
        <time>2025-01-03T17:33:51.674Z</time>
      </trkpt>
      <trkpt lat="48.38282" lon="5.161">
        <ele>196.94</ele>
        <time>2025-01-03T17:33:57.433Z</time>
      </trkpt>
      <trkpt lat="48.38252" lon="5.16097">
        <ele>196.81</ele>
        <time>2025-01-03T17:34:03.197Z</time>
      </trkpt>
      <trkpt lat="48.38222" lon="5.16095">
        <ele>196.64</ele>
        <time>2025-01-03T17:34:08.966Z</time>
      </trkpt>
      <trkpt lat="48.38192" lon="5.16092">
        <ele>196.47</ele>
        <time>2025-01-03T17:34:14.740Z</time>
      </trkpt>
      <trkpt lat="48.38162" lon="5.16089">
        <ele>196.33</ele>
        <time>2025-01-03T17:34:20.519Z</time>
      </trkpt>
      <trkpt lat="48.38132" lon="5.16087">
        <ele>196.25</ele>
        <time>2025-01-03T17:34:26.302Z</time>
      </trkpt>
      <trkpt lat="48.38102" lon="5.16084">
        <ele>196.2</ele>
        <time>2025-01-03T17:34:32.090Z</time>
      </trkpt>
      <trkpt lat="48.38072" lon="5.16082">
        <ele>196.08</ele>
        <time>2025-01-03T17:34:37.883Z</time>
      </trkpt>
      <trkpt lat="48.38042" lon="5.16079">
        <ele>195.96</ele>
        <time>2025-01-03T17:34:43.681Z</time>
      </trkpt>
      <trkpt lat="48.38012" lon="5.16076">
        <ele>195.87</ele>
        <time>2025-01-03T17:34:49.484Z</time>
      </trkpt>
      <trkpt lat="48.37984" lon="5.16083">
        <ele>195.84</ele>
        <time>2025-01-03T17:34:55.291Z</time>
      </trkpt>
      <trkpt lat="48.37956" lon="5.16089">
        <ele>195.77</ele>
        <time>2025-01-03T17:35:01.103Z</time>
      </trkpt>
      <trkpt lat="48.37928" lon="5.16096">
        <ele>195.77</ele>
        <time>2025-01-03T17:35:06.919Z</time>
      </trkpt>
      <trkpt lat="48.37904" lon="5.1611">
        <ele>195.71</ele>
        <time>2025-01-03T17:35:12.739Z</time>
      </trkpt>
      <trkpt lat="48.3788" lon="5.16125">
        <ele>195.61</ele>
        <time>2025-01-03T17:35:18.564Z</time>
      </trkpt>
      <trkpt lat="48.37856" lon="5.16139">
        <ele>195.55</ele>
        <time>2025-01-03T17:35:24.393Z</time>
      </trkpt>
      <trkpt lat="48.37832" lon="5.16154">
        <ele>195.58</ele>
        <time>2025-01-03T17:35:30.226Z</time>
      </trkpt>
      <trkpt lat="48.37808" lon="5.16169">
        <ele>195.71</ele>
        <time>2025-01-03T17:35:36.063Z</time>
      </trkpt>
      <trkpt lat="48.37787" lon="5.16177">
        <ele>195.82</ele>
        <time>2025-01-03T17:35:41.904Z</time>
      </trkpt>
      <trkpt lat="48.37765" lon="5.16186">
        <ele>195.98</ele>
        <time>2025-01-03T17:35:47.748Z</time>
      </trkpt>
      <trkpt lat="48.37744" lon="5.16194">
        <ele>196.13</ele>
        <time>2025-01-03T17:35:53.596Z</time>
      </trkpt>
      <trkpt lat="48.3772" lon="5.16196">
        <ele>196.31</ele>
        <time>2025-01-03T17:35:59.448Z</time>
      </trkpt>
      <trkpt lat="48.37697" lon="5.1619">
        <ele>196.5</ele>
        <time>2025-01-03T17:36:05.303Z</time>
      </trkpt>
      <trkpt lat="48.37675" lon="5.16179">
        <ele>196.73</ele>
        <time>2025-01-03T17:36:11.162Z</time>
      </trkpt>
      <trkpt lat="48.37654" lon="5.16169">
        <ele>196.97</ele>
        <time>2025-01-03T17:36:17.025Z</time>
      </trkpt>
      <trkpt lat="48.37632" lon="5.16158">
        <ele>197.16</ele>
        <time>2025-01-03T17:36:22.891Z</time>
      </trkpt>
      <trkpt lat="48.37632" lon="5.16158">
        <ele>197.36</ele>
        <time>2025-01-03T17:36:28.757Z</time>
      </trkpt>
      <trkpt lat="48.37604" lon="5.16143">
        <ele>197.62</ele>
        <time>2025-01-03T17:36:34.628Z</time>
      </trkpt>
      <trkpt lat="48.37589" lon="5.16143">
        <ele>197.84</ele>
        <time>2025-01-03T17:36:40.501Z</time>
      </trkpt>
      <trkpt lat="48.3757" lon="5.16131">
        <ele>198.04</ele>
        <time>2025-01-03T17:36:46.378Z</time>
      </trkpt>
      <trkpt lat="48.37551" lon="5.16119">
        <ele>198.25</ele>
        <time>2025-01-03T17:36:52.258Z</time>
      </trkpt>
      <trkpt lat="48.3754" lon="5.16102">
        <ele>198.54</ele>
        <time>2025-01-03T17:36:58.141Z</time>
      </trkpt>
      <trkpt lat="48.37544" lon="5.16061">
        <ele>198.84</ele>
        <time>2025-01-03T17:37:04.028Z</time>
      </trkpt>
      <trkpt lat="48.37543" lon="5.16029">
        <ele>199.14</ele>
        <time>2025-01-03T17:37:09.918Z</time>
      </trkpt>
      <trkpt lat="48.37542" lon="5.15997">
        <ele>199.47</ele>
        <time>2025-01-03T17:37:15.812Z</time>
      </trkpt>
      <trkpt lat="48.37546" lon="5.15955">
        <ele>199.98</ele>
        <time>2025-01-03T17:37:21.710Z</time>
      </trkpt>
      <trkpt lat="48.37551" lon="5.15914">
        <ele>200.46</ele>
        <time>2025-01-03T17:37:27.613Z</time>
      </trkpt>
      <trkpt lat="48.37555" lon="5.15872">
        <ele>200.95</ele>
        <time>2025-01-03T17:37:33.520Z</time>
      </trkpt>
      <trkpt lat="48.37553" lon="5.15834">
        <ele>201.5</ele>
        <time>2025-01-03T17:37:39.431Z</time>
      </trkpt>
      <trkpt lat="48.37552" lon="5.15795">
        <ele>202.03</ele>
        <time>2025-01-03T17:37:45.347Z</time>
      </trkpt>
      <trkpt lat="48.37551" lon="5.15757">
        <ele>202.5</ele>
        <time>2025-01-03T17:37:51.267Z</time>
      </trkpt>
      <trkpt lat="48.37559" lon="5.15733">
        <ele>203.04</ele>
        <time>2025-01-03T17:37:57.190Z</time>
      </trkpt>
      <trkpt lat="48.37574" lon="5.15716">
        <ele>203.63</ele>
        <time>2025-01-03T17:38:03.116Z</time>
      </trkpt>
      <trkpt lat="48.37579" lon="5.15701">
        <ele>204.15</ele>
        <time>2025-01-03T17:38:09.043Z</time>
      </trkpt>
      <trkpt lat="48.37579" lon="5.15701">
        <ele>204.61</ele>
        <time>2025-01-03T17:38:14.970Z</time>
      </trkpt>
      <trkpt lat="48.37583" lon="5.15684">
        <ele>205.13</ele>
        <time>2025-01-03T17:38:20.899Z</time>
      </trkpt>
      <trkpt lat="48.37587" lon="5.15679">
        <ele>205.6</ele>
        <time>2025-01-03T17:38:26.829Z</time>
      </trkpt>
      <trkpt lat="48.37615" lon="5.15675">
        <ele>206.11</ele>
        <time>2025-01-03T17:38:32.764Z</time>
      </trkpt>
      <trkpt lat="48.37624" lon="5.15666">
        <ele>206.61</ele>
        <time>2025-01-03T17:38:38.700Z</time>
      </trkpt>
      <trkpt lat="48.3763" lon="5.15628">
        <ele>207.11</ele>
        <time>2025-01-03T17:38:44.640Z</time>
      </trkpt>
      <trkpt lat="48.37637" lon="5.1559">
        <ele>207.69</ele>
        <time>2025-01-03T17:38:50.585Z</time>
      </trkpt>
      <trkpt lat="48.37643" lon="5.15552">
        <ele>208.31</ele>
        <time>2025-01-03T17:38:56.534Z</time>
      </trkpt>
      <trkpt lat="48.37649" lon="5.15514">
        <ele>208.98</ele>
        <time>2025-01-03T17:39:02.487Z</time>
      </trkpt>
      <trkpt lat="48.37657" lon="5.15476">
        <ele>209.72</ele>
        <time>2025-01-03T17:39:08.444Z</time>
      </trkpt>
      <trkpt lat="48.37664" lon="5.15438">
        <ele>210.43</ele>
        <time>2025-01-03T17:39:14.406Z</time>
      </trkpt>
      <trkpt lat="48.37671" lon="5.15399">
        <ele>211.08</ele>
        <time>2025-01-03T17:39:20.372Z</time>
      </trkpt>
      <trkpt lat="48.37679" lon="5.15361">
        <ele>211.73</ele>
        <time>2025-01-03T17:39:26.342Z</time>
      </trkpt>
      <trkpt lat="48.37686" lon="5.15323">
        <ele>212.41</ele>
        <time>2025-01-03T17:39:32.316Z</time>
      </trkpt>
      <trkpt lat="48.37699" lon="5.15282">
        <ele>213.26</ele>
        <time>2025-01-03T17:39:38.295Z</time>
      </trkpt>
      <trkpt lat="48.37712" lon="5.15241">
        <ele>214.06</ele>
        <time>2025-01-03T17:39:44.279Z</time>
      </trkpt>
      <trkpt lat="48.37724" lon="5.15201">
        <ele>214.83</ele>
        <time>2025-01-03T17:39:50.268Z</time>
      </trkpt>
      <trkpt lat="48.37729" lon="5.1519">
        <ele>215.53</ele>
        <time>2025-01-03T17:39:56.258Z</time>
      </trkpt>
      <trkpt lat="48.37748" lon="5.15154">
        <ele>216.27</ele>
        <time>2025-01-03T17:40:02.253Z</time>
      </trkpt>
      <trkpt lat="48.37768" lon="5.15118">
        <ele>216.96</ele>
        <time>2025-01-03T17:40:08.253Z</time>
      </trkpt>
      <trkpt lat="48.37788" lon="5.15083">
        <ele>217.62</ele>
        <time>2025-01-03T17:40:14.258Z</time>
      </trkpt>
      <trkpt lat="48.37808" lon="5.15047">
        <ele>218.14</ele>
        <time>2025-01-03T17:40:20.268Z</time>
      </trkpt>
      <trkpt lat="48.37827" lon="5.15011">
        <ele>218.49</ele>
        <time>2025-01-03T17:40:26.283Z</time>
      </trkpt>
      <trkpt lat="48.37847" lon="5.14976">
        <ele>218.77</ele>
        <time>2025-01-03T17:40:32.303Z</time>
      </trkpt>
      <trkpt lat="48.37863" lon="5.14942">
        <ele>218.77</ele>
        <time>2025-01-03T17:40:38.327Z</time>
      </trkpt>
      <trkpt lat="48.37879" lon="5.14909">
        <ele>219.83</ele>
        <time>2025-01-03T17:40:44.355Z</time>
      </trkpt>
      <trkpt lat="48.37875" lon="5.14903">
        <ele>218.74</ele>
        <time>2025-01-03T17:40:50.384Z</time>
      </trkpt>
      <trkpt lat="48.37849" lon="5.14899">
        <ele>218.01</ele>
        <time>2025-01-03T17:40:56.418Z</time>
      </trkpt>
      <trkpt lat="48.37823" lon="5.14896">
        <ele>217.35</ele>
        <time>2025-01-03T17:41:02.456Z</time>
      </trkpt>
      <trkpt lat="48.378" lon="5.14883">
        <ele>216.68</ele>
        <time>2025-01-03T17:41:08.498Z</time>
      </trkpt>
      <trkpt lat="48.378" lon="5.14883">
        <ele>216.16</ele>
        <time>2025-01-03T17:41:14.540Z</time>
      </trkpt>
      <trkpt lat="48.37785" lon="5.14875">
        <ele>215.57</ele>
        <time>2025-01-03T17:41:20.584Z</time>
      </trkpt>
      <trkpt lat="48.37777" lon="5.14852">
        <ele>216.01</ele>
        <time>2025-01-03T17:41:26.631Z</time>
      </trkpt>
      <trkpt lat="48.3777" lon="5.1483">
        <ele>214.44</ele>
        <time>2025-01-03T17:41:32.681Z</time>
      </trkpt>
      <trkpt lat="48.37765" lon="5.14819">
        <ele>213.98</ele>
        <time>2025-01-03T17:41:38.732Z</time>
      </trkpt>
      <trkpt lat="48.37754" lon="5.14806">
        <ele>213.58</ele>
        <time>2025-01-03T17:41:44.785Z</time>
      </trkpt>
      <trkpt lat="48.37742" lon="5.14795">
        <ele>213.29</ele>
        <time>2025-01-03T17:41:50.841Z</time>
      </trkpt>
      <trkpt lat="48.37729" lon="5.14793">
        <ele>214.23</ele>
        <time>2025-01-03T17:41:56.899Z</time>
      </trkpt>
    </trkseg>
  </trk>
</gpx>